<?xml version="1.0" encoding="UTF-8" standalone="no" ?>
<gpx xmlns="http://www.topografix.com/GPX/1/1" xmlns:xsi="http://www.w3.org/2001/XMLSchema-instance" xsi:schemaLocation="http://www.topografix.com/GPX/1/1 http://www.topografix.com/GPX/1/1/gpx.xsd" version="1.1" creator="VisuGPX - https://www.visugpx.com">
  <metadata>
    <name>Vtt en Minervois</name>
    <desc><![CDATA[Départ Olonzac direction Le Causse de La Coquille. Nous  suivons les chemins de Mirailles et d'Azillanet entretenus par les associations... Tout est tracé . Direction Fauzan et descente sur Najac. Découvrez le relief de Causse et le maquis avant le retour dans la plaine et les vignes du Minervois.]]></desc>
  </metadata>
  <wpt lat="43.28273" lon="2.72872">
    <ele>51.3156738</ele>
    <name><![CDATA[001]]></name>
    <desc><![CDATA[04-OCT-09]]></desc>
    <cmt><![CDATA[04-OCT-09]]></cmt>
  </wpt>
  <wpt lat="43.28147" lon="2.72408">
    <ele>48.9124756</ele>
    <name><![CDATA[002]]></name>
    <desc><![CDATA[05-OCT-09]]></desc>
    <cmt><![CDATA[05-OCT-09]]></cmt>
  </wpt>
  <wpt lat="43.28255" lon="2.72847">
    <ele>49</ele>
    <name><![CDATA[003]]></name>
    <desc><![CDATA[09-OCT-09]]></desc>
    <cmt><![CDATA[09-OCT-09]]></cmt>
  </wpt>
  <trk>
    <name><![CDATA[Vtt en Minervois_1]]></name>
    <trkseg>
      <trkpt lat="43.28286" lon="2.72852">
        <ele>59.2584229</ele>
        <time>2009-10-11T06:17:27Z</time>
      </trkpt>
      <trkpt lat="43.28288" lon="2.72853">
        <ele>54.932373</ele>
        <time>2009-10-11T06:18:07Z</time>
      </trkpt>
      <trkpt lat="43.28289" lon="2.72854">
        <ele>56.8551025</ele>
        <time>2009-10-11T06:18:23Z</time>
      </trkpt>
      <trkpt lat="43.28291" lon="2.72853">
        <ele>57.8165283</ele>
        <time>2009-10-11T06:18:31Z</time>
      </trkpt>
      <trkpt lat="43.28291" lon="2.72859">
        <ele>61.1810303</ele>
        <time>2009-10-11T06:18:37Z</time>
      </trkpt>
      <trkpt lat="43.28292" lon="2.72864">
        <ele>62.142334</ele>
        <time>2009-10-11T06:18:39Z</time>
      </trkpt>
      <trkpt lat="43.28295" lon="2.72884">
        <ele>61.1810303</ele>
        <time>2009-10-11T06:18:45Z</time>
      </trkpt>
      <trkpt lat="43.28291" lon="2.7291">
        <ele>65.9876709</ele>
        <time>2009-10-11T06:18:52Z</time>
      </trkpt>
      <trkpt lat="43.28292" lon="2.72922">
        <ele>69.3522949</ele>
        <time>2009-10-11T06:18:56Z</time>
      </trkpt>
      <trkpt lat="43.28294" lon="2.72928">
        <ele>61.1810303</ele>
        <time>2009-10-11T06:19:01Z</time>
      </trkpt>
      <trkpt lat="43.28291" lon="2.72958">
        <ele>58.2971191</ele>
        <time>2009-10-11T06:19:09Z</time>
      </trkpt>
      <trkpt lat="43.28288" lon="2.72975">
        <ele>57.8165283</ele>
        <time>2009-10-11T06:19:13Z</time>
      </trkpt>
      <trkpt lat="43.28285" lon="2.73">
        <ele>55.8937988</ele>
        <time>2009-10-11T06:19:19Z</time>
      </trkpt>
      <trkpt lat="43.28283" lon="2.73021">
        <ele>55.4130859</ele>
        <time>2009-10-11T06:19:24Z</time>
      </trkpt>
      <trkpt lat="43.28284" lon="2.73033">
        <ele>56.3745117</ele>
        <time>2009-10-11T06:19:27Z</time>
      </trkpt>
      <trkpt lat="43.28293" lon="2.73038">
        <ele>59.2584229</ele>
        <time>2009-10-11T06:19:32Z</time>
      </trkpt>
      <trkpt lat="43.28298" lon="2.73035">
        <ele>63.1036377</ele>
        <time>2009-10-11T06:19:34Z</time>
      </trkpt>
      <trkpt lat="43.28319" lon="2.73039">
        <ele>63.1036377</ele>
        <time>2009-10-11T06:19:41Z</time>
      </trkpt>
      <trkpt lat="43.28322" lon="2.7304">
        <ele>62.142334</ele>
        <time>2009-10-11T06:19:42Z</time>
      </trkpt>
      <trkpt lat="43.28328" lon="2.73057">
        <ele>61.1810303</ele>
        <time>2009-10-11T06:19:47Z</time>
      </trkpt>
      <trkpt lat="43.28327" lon="2.73079">
        <ele>59.2584229</ele>
        <time>2009-10-11T06:19:52Z</time>
      </trkpt>
      <trkpt lat="43.2833" lon="2.731">
        <ele>62.6229248</ele>
        <time>2009-10-11T06:19:57Z</time>
      </trkpt>
      <trkpt lat="43.2833" lon="2.73118">
        <ele>60.7003174</ele>
        <time>2009-10-11T06:20:03Z</time>
      </trkpt>
      <trkpt lat="43.28332" lon="2.73126">
        <ele>55.4130859</ele>
        <time>2009-10-11T06:20:08Z</time>
      </trkpt>
      <trkpt lat="43.28334" lon="2.73137">
        <ele>54.932373</ele>
        <time>2009-10-11T06:20:14Z</time>
      </trkpt>
      <trkpt lat="43.28334" lon="2.73138">
        <ele>54.4517822</ele>
        <time>2009-10-11T06:20:16Z</time>
      </trkpt>
      <trkpt lat="43.28337" lon="2.73144">
        <ele>53.4904785</ele>
        <time>2009-10-11T06:20:22Z</time>
      </trkpt>
      <trkpt lat="43.28339" lon="2.73147">
        <ele>52.5291748</ele>
        <time>2009-10-11T06:20:28Z</time>
      </trkpt>
      <trkpt lat="43.28339" lon="2.73147">
        <ele>59.2584229</ele>
        <time>2009-10-11T06:20:34Z</time>
      </trkpt>
      <trkpt lat="43.28341" lon="2.73145">
        <ele>62.6229248</ele>
        <time>2009-10-11T06:20:40Z</time>
      </trkpt>
      <trkpt lat="43.28346" lon="2.73146">
        <ele>64.5456543</ele>
        <time>2009-10-11T06:20:47Z</time>
      </trkpt>
      <trkpt lat="43.2835" lon="2.73145">
        <ele>68.871582</ele>
        <time>2009-10-11T06:20:53Z</time>
      </trkpt>
      <trkpt lat="43.28353" lon="2.73146">
        <ele>69.3522949</ele>
        <time>2009-10-11T06:20:58Z</time>
      </trkpt>
      <trkpt lat="43.28359" lon="2.73148">
        <ele>71.2749023</ele>
        <time>2009-10-11T06:21:06Z</time>
      </trkpt>
      <trkpt lat="43.28363" lon="2.7315">
        <ele>70.3134766</ele>
        <time>2009-10-11T06:21:09Z</time>
      </trkpt>
      <trkpt lat="43.28369" lon="2.7315">
        <ele>71.7554932</ele>
        <time>2009-10-11T06:21:15Z</time>
      </trkpt>
      <trkpt lat="43.2838" lon="2.73151">
        <ele>71.2749023</ele>
        <time>2009-10-11T06:21:22Z</time>
      </trkpt>
      <trkpt lat="43.28392" lon="2.73157">
        <ele>67.9102783</ele>
        <time>2009-10-11T06:21:29Z</time>
      </trkpt>
      <trkpt lat="43.28403" lon="2.73164">
        <ele>67.4296875</ele>
        <time>2009-10-11T06:21:36Z</time>
      </trkpt>
      <trkpt lat="43.28414" lon="2.73172">
        <ele>64.5456543</ele>
        <time>2009-10-11T06:21:42Z</time>
      </trkpt>
      <trkpt lat="43.28416" lon="2.73173">
        <ele>64.0650635</ele>
        <time>2009-10-11T06:21:43Z</time>
      </trkpt>
      <trkpt lat="43.28419" lon="2.73177">
        <ele>61.1810303</ele>
        <time>2009-10-11T06:21:46Z</time>
      </trkpt>
      <trkpt lat="43.28424" lon="2.73179">
        <ele>59.7391357</ele>
        <time>2009-10-11T06:21:54Z</time>
      </trkpt>
      <trkpt lat="43.28428" lon="2.7318">
        <ele>60.2197266</ele>
        <time>2009-10-11T06:22:09Z</time>
      </trkpt>
      <trkpt lat="43.28434" lon="2.73177">
        <ele>61.6617432</ele>
        <time>2009-10-11T06:22:15Z</time>
      </trkpt>
      <trkpt lat="43.28437" lon="2.73176">
        <ele>60.7003174</ele>
        <time>2009-10-11T06:22:16Z</time>
      </trkpt>
      <trkpt lat="43.2845" lon="2.73171">
        <ele>60.2197266</ele>
        <time>2009-10-11T06:22:23Z</time>
      </trkpt>
      <trkpt lat="43.28454" lon="2.7317">
        <ele>60.2197266</ele>
        <time>2009-10-11T06:22:25Z</time>
      </trkpt>
      <trkpt lat="43.28474" lon="2.73157">
        <ele>57.8165283</ele>
        <time>2009-10-11T06:22:33Z</time>
      </trkpt>
      <trkpt lat="43.28488" lon="2.73143">
        <ele>54.4517822</ele>
        <time>2009-10-11T06:22:40Z</time>
      </trkpt>
      <trkpt lat="43.28489" lon="2.73141">
        <ele>53.9711914</ele>
        <time>2009-10-11T06:22:41Z</time>
      </trkpt>
      <trkpt lat="43.28494" lon="2.73131">
        <ele>52.048584</ele>
        <time>2009-10-11T06:22:46Z</time>
      </trkpt>
      <trkpt lat="43.28518" lon="2.73123">
        <ele>56.3745117</ele>
        <time>2009-10-11T06:22:53Z</time>
      </trkpt>
      <trkpt lat="43.28532" lon="2.73112">
        <ele>57.3358154</ele>
        <time>2009-10-11T06:22:59Z</time>
      </trkpt>
      <trkpt lat="43.28546" lon="2.73103">
        <ele>58.2971191</ele>
        <time>2009-10-11T06:23:04Z</time>
      </trkpt>
      <trkpt lat="43.28566" lon="2.73091">
        <ele>60.7003174</ele>
        <time>2009-10-11T06:23:11Z</time>
      </trkpt>
      <trkpt lat="43.28578" lon="2.73078">
        <ele>61.1810303</ele>
        <time>2009-10-11T06:23:16Z</time>
      </trkpt>
      <trkpt lat="43.28595" lon="2.73064">
        <ele>62.142334</ele>
        <time>2009-10-11T06:23:23Z</time>
      </trkpt>
      <trkpt lat="43.28614" lon="2.73055">
        <ele>60.2197266</ele>
        <time>2009-10-11T06:23:30Z</time>
      </trkpt>
      <trkpt lat="43.2863" lon="2.73046">
        <ele>59.7391357</ele>
        <time>2009-10-11T06:23:36Z</time>
      </trkpt>
      <trkpt lat="43.28651" lon="2.73034">
        <ele>60.7003174</ele>
        <time>2009-10-11T06:23:44Z</time>
      </trkpt>
      <trkpt lat="43.28667" lon="2.73026">
        <ele>59.2584229</ele>
        <time>2009-10-11T06:23:50Z</time>
      </trkpt>
      <trkpt lat="43.28684" lon="2.73015">
        <ele>58.77771</ele>
        <time>2009-10-11T06:23:57Z</time>
      </trkpt>
      <trkpt lat="43.28709" lon="2.73003">
        <ele>58.77771</ele>
        <time>2009-10-11T06:24:06Z</time>
      </trkpt>
      <trkpt lat="43.28731" lon="2.72992">
        <ele>57.8165283</ele>
        <time>2009-10-11T06:24:14Z</time>
      </trkpt>
      <trkpt lat="43.28758" lon="2.72978">
        <ele>57.8165283</ele>
        <time>2009-10-11T06:24:23Z</time>
      </trkpt>
      <trkpt lat="43.28776" lon="2.72971">
        <ele>57.8165283</ele>
        <time>2009-10-11T06:24:28Z</time>
      </trkpt>
      <trkpt lat="43.28797" lon="2.72971">
        <ele>57.3358154</ele>
        <time>2009-10-11T06:24:34Z</time>
      </trkpt>
      <trkpt lat="43.28811" lon="2.72978">
        <ele>57.3358154</ele>
        <time>2009-10-11T06:24:39Z</time>
      </trkpt>
      <trkpt lat="43.28827" lon="2.72989">
        <ele>57.3358154</ele>
        <time>2009-10-11T06:24:44Z</time>
      </trkpt>
      <trkpt lat="43.28837" lon="2.72982">
        <ele>57.8165283</ele>
        <time>2009-10-11T06:24:48Z</time>
      </trkpt>
      <trkpt lat="43.28839" lon="2.72974">
        <ele>57.3358154</ele>
        <time>2009-10-11T06:24:50Z</time>
      </trkpt>
      <trkpt lat="43.2885" lon="2.72939">
        <ele>55.8937988</ele>
        <time>2009-10-11T06:24:58Z</time>
      </trkpt>
      <trkpt lat="43.28865" lon="2.72902">
        <ele>56.3745117</ele>
        <time>2009-10-11T06:25:07Z</time>
      </trkpt>
      <trkpt lat="43.28883" lon="2.72859">
        <ele>56.8551025</ele>
        <time>2009-10-11T06:25:17Z</time>
      </trkpt>
      <trkpt lat="43.28902" lon="2.72816">
        <ele>57.8165283</ele>
        <time>2009-10-11T06:25:28Z</time>
      </trkpt>
      <trkpt lat="43.28923" lon="2.72767">
        <ele>59.2584229</ele>
        <time>2009-10-11T06:25:40Z</time>
      </trkpt>
      <trkpt lat="43.28939" lon="2.72734">
        <ele>59.7391357</ele>
        <time>2009-10-11T06:25:48Z</time>
      </trkpt>
      <trkpt lat="43.2896" lon="2.72705">
        <ele>59.2584229</ele>
        <time>2009-10-11T06:25:56Z</time>
      </trkpt>
      <trkpt lat="43.28984" lon="2.72691">
        <ele>59.2584229</ele>
        <time>2009-10-11T06:26:03Z</time>
      </trkpt>
      <trkpt lat="43.28996" lon="2.72687">
        <ele>59.2584229</ele>
        <time>2009-10-11T06:26:07Z</time>
      </trkpt>
      <trkpt lat="43.28998" lon="2.72675">
        <ele>57.8165283</ele>
        <time>2009-10-11T06:26:11Z</time>
      </trkpt>
      <trkpt lat="43.28996" lon="2.72644">
        <ele>55.4130859</ele>
        <time>2009-10-11T06:26:18Z</time>
      </trkpt>
      <trkpt lat="43.28997" lon="2.72634">
        <ele>54.4517822</ele>
        <time>2009-10-11T06:26:22Z</time>
      </trkpt>
      <trkpt lat="43.28998" lon="2.72627">
        <ele>53.9711914</ele>
        <time>2009-10-11T06:26:28Z</time>
      </trkpt>
      <trkpt lat="43.29" lon="2.72607">
        <ele>52.048584</ele>
        <time>2009-10-11T06:26:34Z</time>
      </trkpt>
      <trkpt lat="43.29004" lon="2.72577">
        <ele>49.1645508</ele>
        <time>2009-10-11T06:26:42Z</time>
      </trkpt>
      <trkpt lat="43.29009" lon="2.72543">
        <ele>50.1259766</ele>
        <time>2009-10-11T06:26:51Z</time>
      </trkpt>
      <trkpt lat="43.29013" lon="2.72508">
        <ele>52.5291748</ele>
        <time>2009-10-11T06:27:00Z</time>
      </trkpt>
      <trkpt lat="43.29019" lon="2.72458">
        <ele>53.4904785</ele>
        <time>2009-10-11T06:27:12Z</time>
      </trkpt>
      <trkpt lat="43.29025" lon="2.72411">
        <ele>55.8937988</ele>
        <time>2009-10-11T06:27:23Z</time>
      </trkpt>
      <trkpt lat="43.29031" lon="2.72378">
        <ele>55.8937988</ele>
        <time>2009-10-11T06:27:31Z</time>
      </trkpt>
      <trkpt lat="43.29041" lon="2.72346">
        <ele>55.4130859</ele>
        <time>2009-10-11T06:27:39Z</time>
      </trkpt>
      <trkpt lat="43.29056" lon="2.72312">
        <ele>57.3358154</ele>
        <time>2009-10-11T06:27:49Z</time>
      </trkpt>
      <trkpt lat="43.29076" lon="2.72287">
        <ele>59.7391357</ele>
        <time>2009-10-11T06:27:59Z</time>
      </trkpt>
      <trkpt lat="43.29094" lon="2.72272">
        <ele>62.142334</ele>
        <time>2009-10-11T06:28:08Z</time>
      </trkpt>
      <trkpt lat="43.29108" lon="2.7226">
        <ele>63.1036377</ele>
        <time>2009-10-11T06:28:15Z</time>
      </trkpt>
      <trkpt lat="43.29128" lon="2.72243">
        <ele>65.9876709</ele>
        <time>2009-10-11T06:28:25Z</time>
      </trkpt>
      <trkpt lat="43.29146" lon="2.72227">
        <ele>66.4682617</ele>
        <time>2009-10-11T06:28:34Z</time>
      </trkpt>
      <trkpt lat="43.29163" lon="2.72213">
        <ele>65.0263672</ele>
        <time>2009-10-11T06:28:42Z</time>
      </trkpt>
      <trkpt lat="43.2918" lon="2.72195">
        <ele>63.5843506</ele>
        <time>2009-10-11T06:28:51Z</time>
      </trkpt>
      <trkpt lat="43.29199" lon="2.7217">
        <ele>64.5456543</ele>
        <time>2009-10-11T06:29:01Z</time>
      </trkpt>
      <trkpt lat="43.29211" lon="2.72152">
        <ele>65.5070801</ele>
        <time>2009-10-11T06:29:08Z</time>
      </trkpt>
      <trkpt lat="43.29233" lon="2.72115">
        <ele>65.5070801</ele>
        <time>2009-10-11T06:29:21Z</time>
      </trkpt>
      <trkpt lat="43.29246" lon="2.72093">
        <ele>64.5456543</ele>
        <time>2009-10-11T06:29:29Z</time>
      </trkpt>
      <trkpt lat="43.29257" lon="2.72067">
        <ele>63.1036377</ele>
        <time>2009-10-11T06:29:37Z</time>
      </trkpt>
      <trkpt lat="43.29271" lon="2.72034">
        <ele>63.5843506</ele>
        <time>2009-10-11T06:29:46Z</time>
      </trkpt>
      <trkpt lat="43.29284" lon="2.72001">
        <ele>63.5843506</ele>
        <time>2009-10-11T06:29:54Z</time>
      </trkpt>
      <trkpt lat="43.29297" lon="2.71974">
        <ele>63.1036377</ele>
        <time>2009-10-11T06:30:02Z</time>
      </trkpt>
      <trkpt lat="43.29301" lon="2.71968">
        <ele>63.1036377</ele>
        <time>2009-10-11T06:30:05Z</time>
      </trkpt>
      <trkpt lat="43.29308" lon="2.7197">
        <ele>63.5843506</ele>
        <time>2009-10-11T06:30:10Z</time>
      </trkpt>
      <trkpt lat="43.2931" lon="2.71977">
        <ele>64.0650635</ele>
        <time>2009-10-11T06:30:14Z</time>
      </trkpt>
      <trkpt lat="43.29309" lon="2.71993">
        <ele>65.9876709</ele>
        <time>2009-10-11T06:30:22Z</time>
      </trkpt>
      <trkpt lat="43.2931" lon="2.72011">
        <ele>67.4296875</ele>
        <time>2009-10-11T06:30:30Z</time>
      </trkpt>
      <trkpt lat="43.29314" lon="2.72023">
        <ele>68.3908691</ele>
        <time>2009-10-11T06:30:36Z</time>
      </trkpt>
      <trkpt lat="43.2932" lon="2.7202">
        <ele>68.871582</ele>
        <time>2009-10-11T06:30:41Z</time>
      </trkpt>
      <trkpt lat="43.29321" lon="2.72017">
        <ele>68.871582</ele>
        <time>2009-10-11T06:30:43Z</time>
      </trkpt>
      <trkpt lat="43.29328" lon="2.72007">
        <ele>68.871582</ele>
        <time>2009-10-11T06:30:49Z</time>
      </trkpt>
      <trkpt lat="43.2934" lon="2.72003">
        <ele>68.3908691</ele>
        <time>2009-10-11T06:30:56Z</time>
      </trkpt>
      <trkpt lat="43.29348" lon="2.72001">
        <ele>67.4296875</ele>
        <time>2009-10-11T06:31:02Z</time>
      </trkpt>
      <trkpt lat="43.29354" lon="2.72">
        <ele>68.3908691</ele>
        <time>2009-10-11T06:31:06Z</time>
      </trkpt>
      <trkpt lat="43.29357" lon="2.72004">
        <ele>67.9102783</ele>
        <time>2009-10-11T06:31:10Z</time>
      </trkpt>
      <trkpt lat="43.29359" lon="2.7201">
        <ele>69.8328857</ele>
        <time>2009-10-11T06:31:16Z</time>
      </trkpt>
      <trkpt lat="43.29364" lon="2.72007">
        <ele>71.2749023</ele>
        <time>2009-10-11T06:31:22Z</time>
      </trkpt>
      <trkpt lat="43.29365" lon="2.72002">
        <ele>72.2362061</ele>
        <time>2009-10-11T06:31:28Z</time>
      </trkpt>
      <trkpt lat="43.29367" lon="2.71996">
        <ele>73.1976318</ele>
        <time>2009-10-11T06:31:31Z</time>
      </trkpt>
      <trkpt lat="43.2937" lon="2.71986">
        <ele>74.6395264</ele>
        <time>2009-10-11T06:31:37Z</time>
      </trkpt>
      <trkpt lat="43.29373" lon="2.71985">
        <ele>76.0814209</ele>
        <time>2009-10-11T06:31:40Z</time>
      </trkpt>
      <trkpt lat="43.29376" lon="2.71987">
        <ele>76.5621338</ele>
        <time>2009-10-11T06:31:46Z</time>
      </trkpt>
      <trkpt lat="43.29383" lon="2.71987">
        <ele>77.5234375</ele>
        <time>2009-10-11T06:31:51Z</time>
      </trkpt>
      <trkpt lat="43.29397" lon="2.71982">
        <ele>81.8493652</ele>
        <time>2009-10-11T06:31:59Z</time>
      </trkpt>
      <trkpt lat="43.29407" lon="2.71982">
        <ele>84.2526855</ele>
        <time>2009-10-11T06:32:06Z</time>
      </trkpt>
      <trkpt lat="43.29409" lon="2.71984">
        <ele>84.7333984</ele>
        <time>2009-10-11T06:32:11Z</time>
      </trkpt>
      <trkpt lat="43.29412" lon="2.71988">
        <ele>84.2526855</ele>
        <time>2009-10-11T06:32:17Z</time>
      </trkpt>
      <trkpt lat="43.29412" lon="2.71992">
        <ele>82.3300781</ele>
        <time>2009-10-11T06:32:24Z</time>
      </trkpt>
      <trkpt lat="43.2942" lon="2.71996">
        <ele>83.2913818</ele>
        <time>2009-10-11T06:32:30Z</time>
      </trkpt>
      <trkpt lat="43.29423" lon="2.71998">
        <ele>83.2913818</ele>
        <time>2009-10-11T06:32:34Z</time>
      </trkpt>
      <trkpt lat="43.29432" lon="2.71997">
        <ele>82.810791</ele>
        <time>2009-10-11T06:32:40Z</time>
      </trkpt>
      <trkpt lat="43.29442" lon="2.71997">
        <ele>83.2913818</ele>
        <time>2009-10-11T06:32:46Z</time>
      </trkpt>
      <trkpt lat="43.29453" lon="2.72">
        <ele>83.7719727</ele>
        <time>2009-10-11T06:32:54Z</time>
      </trkpt>
      <trkpt lat="43.29461" lon="2.72">
        <ele>82.810791</ele>
        <time>2009-10-11T06:33:00Z</time>
      </trkpt>
      <trkpt lat="43.29465" lon="2.71999">
        <ele>82.810791</ele>
        <time>2009-10-11T06:33:04Z</time>
      </trkpt>
      <trkpt lat="43.29476" lon="2.71999">
        <ele>85.6945801</ele>
        <time>2009-10-11T06:33:12Z</time>
      </trkpt>
      <trkpt lat="43.29477" lon="2.71999">
        <ele>85.6945801</ele>
        <time>2009-10-11T06:33:13Z</time>
      </trkpt>
      <trkpt lat="43.29479" lon="2.71999">
        <ele>85.2139893</ele>
        <time>2009-10-11T06:33:15Z</time>
      </trkpt>
      <trkpt lat="43.29488" lon="2.72">
        <ele>85.6945801</ele>
        <time>2009-10-11T06:33:22Z</time>
      </trkpt>
      <trkpt lat="43.2949" lon="2.71996">
        <ele>84.7333984</ele>
        <time>2009-10-11T06:33:24Z</time>
      </trkpt>
      <trkpt lat="43.295" lon="2.71983">
        <ele>86.6560059</ele>
        <time>2009-10-11T06:33:34Z</time>
      </trkpt>
      <trkpt lat="43.29501" lon="2.71982">
        <ele>86.175293</ele>
        <time>2009-10-11T06:33:35Z</time>
      </trkpt>
      <trkpt lat="43.29507" lon="2.71978">
        <ele>88.0980225</ele>
        <time>2009-10-11T06:33:41Z</time>
      </trkpt>
      <trkpt lat="43.29514" lon="2.71976">
        <ele>90.0206299</ele>
        <time>2009-10-11T06:33:50Z</time>
      </trkpt>
      <trkpt lat="43.2952" lon="2.71974">
        <ele>90.9819336</ele>
        <time>2009-10-11T06:33:57Z</time>
      </trkpt>
      <trkpt lat="43.2952" lon="2.71973">
        <ele>90.5013428</ele>
        <time>2009-10-11T06:34:02Z</time>
      </trkpt>
      <trkpt lat="43.29523" lon="2.71976">
        <ele>91.4625244</ele>
        <time>2009-10-11T06:34:09Z</time>
      </trkpt>
      <trkpt lat="43.29528" lon="2.71981">
        <ele>92.904541</ele>
        <time>2009-10-11T06:34:18Z</time>
      </trkpt>
      <trkpt lat="43.2953" lon="2.71988">
        <ele>90.9819336</ele>
        <time>2009-10-11T06:34:24Z</time>
      </trkpt>
      <trkpt lat="43.29536" lon="2.71988">
        <ele>94.3465576</ele>
        <time>2009-10-11T06:34:30Z</time>
      </trkpt>
      <trkpt lat="43.29541" lon="2.71987">
        <ele>96.7498779</ele>
        <time>2009-10-11T06:34:36Z</time>
      </trkpt>
      <trkpt lat="43.29545" lon="2.71989">
        <ele>96.7498779</ele>
        <time>2009-10-11T06:34:42Z</time>
      </trkpt>
      <trkpt lat="43.29546" lon="2.71989">
        <ele>95.3077393</ele>
        <time>2009-10-11T06:34:50Z</time>
      </trkpt>
      <trkpt lat="43.29547" lon="2.7199">
        <ele>91.4625244</ele>
        <time>2009-10-11T06:35:01Z</time>
      </trkpt>
      <trkpt lat="43.29548" lon="2.71994">
        <ele>86.175293</ele>
        <time>2009-10-11T06:35:20Z</time>
      </trkpt>
      <trkpt lat="43.29548" lon="2.71993">
        <ele>85.2139893</ele>
        <time>2009-10-11T06:35:29Z</time>
      </trkpt>
      <trkpt lat="43.29548" lon="2.71989">
        <ele>88.5787354</ele>
        <time>2009-10-11T06:35:53Z</time>
      </trkpt>
      <trkpt lat="43.29548" lon="2.71986">
        <ele>90.5013428</ele>
        <time>2009-10-11T06:36:37Z</time>
      </trkpt>
      <trkpt lat="43.29549" lon="2.71989">
        <ele>91.9432373</ele>
        <time>2009-10-11T06:36:51Z</time>
      </trkpt>
      <trkpt lat="43.29552" lon="2.71991">
        <ele>92.4239502</ele>
        <time>2009-10-11T06:36:56Z</time>
      </trkpt>
      <trkpt lat="43.29557" lon="2.71992">
        <ele>92.904541</ele>
        <time>2009-10-11T06:37:00Z</time>
      </trkpt>
      <trkpt lat="43.29566" lon="2.71997">
        <ele>90.5013428</ele>
        <time>2009-10-11T06:37:04Z</time>
      </trkpt>
      <trkpt lat="43.29576" lon="2.72003">
        <ele>89.0593262</ele>
        <time>2009-10-11T06:37:09Z</time>
      </trkpt>
      <trkpt lat="43.29585" lon="2.72007">
        <ele>88.5787354</ele>
        <time>2009-10-11T06:37:15Z</time>
      </trkpt>
      <trkpt lat="43.29589" lon="2.72009">
        <ele>88.0980225</ele>
        <time>2009-10-11T06:37:18Z</time>
      </trkpt>
      <trkpt lat="43.29603" lon="2.72018">
        <ele>88.5787354</ele>
        <time>2009-10-11T06:37:24Z</time>
      </trkpt>
      <trkpt lat="43.29609" lon="2.72033">
        <ele>85.6945801</ele>
        <time>2009-10-11T06:37:29Z</time>
      </trkpt>
      <trkpt lat="43.29622" lon="2.72054">
        <ele>86.6560059</ele>
        <time>2009-10-11T06:37:34Z</time>
      </trkpt>
      <trkpt lat="43.29632" lon="2.72064">
        <ele>87.1365967</ele>
        <time>2009-10-11T06:37:37Z</time>
      </trkpt>
      <trkpt lat="43.29654" lon="2.72091">
        <ele>83.7719727</ele>
        <time>2009-10-11T06:37:44Z</time>
      </trkpt>
      <trkpt lat="43.2968" lon="2.72108">
        <ele>87.6171875</ele>
        <time>2009-10-11T06:37:50Z</time>
      </trkpt>
      <trkpt lat="43.29686" lon="2.72112">
        <ele>88.0980225</ele>
        <time>2009-10-11T06:37:52Z</time>
      </trkpt>
      <trkpt lat="43.29698" lon="2.72117">
        <ele>89.539917</ele>
        <time>2009-10-11T06:37:58Z</time>
      </trkpt>
      <trkpt lat="43.29701" lon="2.72117">
        <ele>90.0206299</ele>
        <time>2009-10-11T06:37:59Z</time>
      </trkpt>
      <trkpt lat="43.29723" lon="2.72116">
        <ele>91.9432373</ele>
        <time>2009-10-11T06:38:07Z</time>
      </trkpt>
      <trkpt lat="43.2974" lon="2.72114">
        <ele>93.8658447</ele>
        <time>2009-10-11T06:38:14Z</time>
      </trkpt>
      <trkpt lat="43.29754" lon="2.7211">
        <ele>94.8271484</ele>
        <time>2009-10-11T06:38:21Z</time>
      </trkpt>
      <trkpt lat="43.29757" lon="2.72098">
        <ele>93.8658447</ele>
        <time>2009-10-11T06:38:26Z</time>
      </trkpt>
      <trkpt lat="43.29758" lon="2.72077">
        <ele>93.3851318</ele>
        <time>2009-10-11T06:38:35Z</time>
      </trkpt>
      <trkpt lat="43.29761" lon="2.7206">
        <ele>92.904541</ele>
        <time>2009-10-11T06:38:42Z</time>
      </trkpt>
      <trkpt lat="43.29768" lon="2.7204">
        <ele>92.4239502</ele>
        <time>2009-10-11T06:38:47Z</time>
      </trkpt>
      <trkpt lat="43.29774" lon="2.72016">
        <ele>91.9432373</ele>
        <time>2009-10-11T06:38:52Z</time>
      </trkpt>
      <trkpt lat="43.29767" lon="2.71996">
        <ele>90.5013428</ele>
        <time>2009-10-11T06:38:57Z</time>
      </trkpt>
      <trkpt lat="43.29771" lon="2.7198">
        <ele>91.4625244</ele>
        <time>2009-10-11T06:39:01Z</time>
      </trkpt>
      <trkpt lat="43.29789" lon="2.71948">
        <ele>92.4239502</ele>
        <time>2009-10-11T06:39:10Z</time>
      </trkpt>
      <trkpt lat="43.29802" lon="2.7192">
        <ele>92.4239502</ele>
        <time>2009-10-11T06:39:18Z</time>
      </trkpt>
      <trkpt lat="43.29813" lon="2.71901">
        <ele>93.3851318</ele>
        <time>2009-10-11T06:39:25Z</time>
      </trkpt>
      <trkpt lat="43.29814" lon="2.7189">
        <ele>94.8271484</ele>
        <time>2009-10-11T06:39:29Z</time>
      </trkpt>
      <trkpt lat="43.29809" lon="2.7188">
        <ele>95.3077393</ele>
        <time>2009-10-11T06:39:34Z</time>
      </trkpt>
      <trkpt lat="43.29805" lon="2.71869">
        <ele>93.8658447</ele>
        <time>2009-10-11T06:39:39Z</time>
      </trkpt>
      <trkpt lat="43.29804" lon="2.71865">
        <ele>93.8658447</ele>
        <time>2009-10-11T06:39:41Z</time>
      </trkpt>
      <trkpt lat="43.29802" lon="2.71859">
        <ele>92.4239502</ele>
        <time>2009-10-11T06:39:44Z</time>
      </trkpt>
      <trkpt lat="43.29802" lon="2.71846">
        <ele>93.8658447</ele>
        <time>2009-10-11T06:39:50Z</time>
      </trkpt>
      <trkpt lat="43.29811" lon="2.71834">
        <ele>95.3077393</ele>
        <time>2009-10-11T06:39:56Z</time>
      </trkpt>
      <trkpt lat="43.29816" lon="2.7182">
        <ele>93.8658447</ele>
        <time>2009-10-11T06:40:03Z</time>
      </trkpt>
      <trkpt lat="43.29818" lon="2.71817">
        <ele>93.3851318</ele>
        <time>2009-10-11T06:40:05Z</time>
      </trkpt>
      <trkpt lat="43.29828" lon="2.71798">
        <ele>92.4239502</ele>
        <time>2009-10-11T06:40:13Z</time>
      </trkpt>
      <trkpt lat="43.2984" lon="2.71784">
        <ele>91.9432373</ele>
        <time>2009-10-11T06:40:20Z</time>
      </trkpt>
      <trkpt lat="43.29849" lon="2.71791">
        <ele>91.9432373</ele>
        <time>2009-10-11T06:40:24Z</time>
      </trkpt>
      <trkpt lat="43.29863" lon="2.7181">
        <ele>90.9819336</ele>
        <time>2009-10-11T06:40:30Z</time>
      </trkpt>
      <trkpt lat="43.29877" lon="2.71827">
        <ele>91.9432373</ele>
        <time>2009-10-11T06:40:36Z</time>
      </trkpt>
      <trkpt lat="43.29884" lon="2.71831">
        <ele>92.4239502</ele>
        <time>2009-10-11T06:40:41Z</time>
      </trkpt>
      <trkpt lat="43.29892" lon="2.71827">
        <ele>91.9432373</ele>
        <time>2009-10-11T06:40:50Z</time>
      </trkpt>
      <trkpt lat="43.29894" lon="2.71826">
        <ele>92.4239502</ele>
        <time>2009-10-11T06:40:55Z</time>
      </trkpt>
      <trkpt lat="43.29896" lon="2.71824">
        <ele>92.904541</ele>
        <time>2009-10-11T06:41:04Z</time>
      </trkpt>
      <trkpt lat="43.29898" lon="2.71822">
        <ele>91.4625244</ele>
        <time>2009-10-11T06:41:12Z</time>
      </trkpt>
      <trkpt lat="43.299" lon="2.71821">
        <ele>90.9819336</ele>
        <time>2009-10-11T06:41:16Z</time>
      </trkpt>
      <trkpt lat="43.29905" lon="2.71812">
        <ele>90.9819336</ele>
        <time>2009-10-11T06:41:21Z</time>
      </trkpt>
      <trkpt lat="43.2991" lon="2.71805">
        <ele>89.539917</ele>
        <time>2009-10-11T06:41:25Z</time>
      </trkpt>
      <trkpt lat="43.29918" lon="2.71799">
        <ele>88.5787354</ele>
        <time>2009-10-11T06:41:30Z</time>
      </trkpt>
      <trkpt lat="43.2992" lon="2.71798">
        <ele>88.5787354</ele>
        <time>2009-10-11T06:41:31Z</time>
      </trkpt>
      <trkpt lat="43.29924" lon="2.71797">
        <ele>89.0593262</ele>
        <time>2009-10-11T06:41:34Z</time>
      </trkpt>
      <trkpt lat="43.29926" lon="2.71799">
        <ele>87.1365967</ele>
        <time>2009-10-11T06:41:40Z</time>
      </trkpt>
      <trkpt lat="43.29931" lon="2.71798">
        <ele>89.539917</ele>
        <time>2009-10-11T06:41:47Z</time>
      </trkpt>
      <trkpt lat="43.29935" lon="2.71796">
        <ele>90.9819336</ele>
        <time>2009-10-11T06:41:53Z</time>
      </trkpt>
      <trkpt lat="43.29939" lon="2.71796">
        <ele>92.4239502</ele>
        <time>2009-10-11T06:41:55Z</time>
      </trkpt>
      <trkpt lat="43.2995" lon="2.7179">
        <ele>91.9432373</ele>
        <time>2009-10-11T06:42:01Z</time>
      </trkpt>
      <trkpt lat="43.29954" lon="2.71779">
        <ele>91.4625244</ele>
        <time>2009-10-11T06:42:04Z</time>
      </trkpt>
      <trkpt lat="43.29957" lon="2.7175">
        <ele>90.9819336</ele>
        <time>2009-10-11T06:42:10Z</time>
      </trkpt>
      <trkpt lat="43.29963" lon="2.7172">
        <ele>90.0206299</ele>
        <time>2009-10-11T06:42:15Z</time>
      </trkpt>
      <trkpt lat="43.29963" lon="2.7171">
        <ele>89.539917</ele>
        <time>2009-10-11T06:42:17Z</time>
      </trkpt>
      <trkpt lat="43.29967" lon="2.71698">
        <ele>88.5787354</ele>
        <time>2009-10-11T06:42:21Z</time>
      </trkpt>
      <trkpt lat="43.29972" lon="2.71697">
        <ele>88.0980225</ele>
        <time>2009-10-11T06:42:23Z</time>
      </trkpt>
      <trkpt lat="43.29991" lon="2.71697">
        <ele>89.539917</ele>
        <time>2009-10-11T06:42:31Z</time>
      </trkpt>
      <trkpt lat="43.30001" lon="2.717">
        <ele>87.6171875</ele>
        <time>2009-10-11T06:42:37Z</time>
      </trkpt>
      <trkpt lat="43.30008" lon="2.71706">
        <ele>85.2139893</ele>
        <time>2009-10-11T06:42:43Z</time>
      </trkpt>
      <trkpt lat="43.30009" lon="2.71707">
        <ele>83.7719727</ele>
        <time>2009-10-11T06:42:50Z</time>
      </trkpt>
      <trkpt lat="43.30015" lon="2.71713">
        <ele>82.810791</ele>
        <time>2009-10-11T06:42:55Z</time>
      </trkpt>
      <trkpt lat="43.30026" lon="2.71719">
        <ele>82.810791</ele>
        <time>2009-10-11T06:43:00Z</time>
      </trkpt>
      <trkpt lat="43.30031" lon="2.71724">
        <ele>83.2913818</ele>
        <time>2009-10-11T06:43:04Z</time>
      </trkpt>
      <trkpt lat="43.30044" lon="2.71733">
        <ele>83.7719727</ele>
        <time>2009-10-11T06:43:14Z</time>
      </trkpt>
      <trkpt lat="43.30052" lon="2.71735">
        <ele>83.7719727</ele>
        <time>2009-10-11T06:43:19Z</time>
      </trkpt>
      <trkpt lat="43.30069" lon="2.71732">
        <ele>89.0593262</ele>
        <time>2009-10-11T06:43:27Z</time>
      </trkpt>
      <trkpt lat="43.30076" lon="2.71718">
        <ele>88.0980225</ele>
        <time>2009-10-11T06:43:32Z</time>
      </trkpt>
      <trkpt lat="43.30083" lon="2.71711">
        <ele>90.5013428</ele>
        <time>2009-10-11T06:43:37Z</time>
      </trkpt>
      <trkpt lat="43.3009" lon="2.71712">
        <ele>90.5013428</ele>
        <time>2009-10-11T06:43:42Z</time>
      </trkpt>
      <trkpt lat="43.30102" lon="2.71717">
        <ele>86.175293</ele>
        <time>2009-10-11T06:43:49Z</time>
      </trkpt>
      <trkpt lat="43.30113" lon="2.71731">
        <ele>84.2526855</ele>
        <time>2009-10-11T06:43:55Z</time>
      </trkpt>
      <trkpt lat="43.30128" lon="2.71747">
        <ele>83.2913818</ele>
        <time>2009-10-11T06:44:00Z</time>
      </trkpt>
      <trkpt lat="43.3014" lon="2.71762">
        <ele>81.8493652</ele>
        <time>2009-10-11T06:44:05Z</time>
      </trkpt>
      <trkpt lat="43.30155" lon="2.71775">
        <ele>78.9654541</ele>
        <time>2009-10-11T06:44:12Z</time>
      </trkpt>
      <trkpt lat="43.30163" lon="2.71795">
        <ele>77.5234375</ele>
        <time>2009-10-11T06:44:17Z</time>
      </trkpt>
      <trkpt lat="43.30168" lon="2.71831">
        <ele>78.4847412</ele>
        <time>2009-10-11T06:44:22Z</time>
      </trkpt>
      <trkpt lat="43.30169" lon="2.71862">
        <ele>79.4460449</ele>
        <time>2009-10-11T06:44:26Z</time>
      </trkpt>
      <trkpt lat="43.30169" lon="2.71876">
        <ele>80.4074707</ele>
        <time>2009-10-11T06:44:28Z</time>
      </trkpt>
      <trkpt lat="43.30179" lon="2.71907">
        <ele>79.4460449</ele>
        <time>2009-10-11T06:44:33Z</time>
      </trkpt>
      <trkpt lat="43.30186" lon="2.71923">
        <ele>77.0428467</ele>
        <time>2009-10-11T06:44:36Z</time>
      </trkpt>
      <trkpt lat="43.30196" lon="2.7195">
        <ele>74.6395264</ele>
        <time>2009-10-11T06:44:41Z</time>
      </trkpt>
      <trkpt lat="43.30205" lon="2.71986">
        <ele>75.1202393</ele>
        <time>2009-10-11T06:44:47Z</time>
      </trkpt>
      <trkpt lat="43.30217" lon="2.72038">
        <ele>75.6008301</ele>
        <time>2009-10-11T06:44:55Z</time>
      </trkpt>
      <trkpt lat="43.30216" lon="2.72077">
        <ele>76.0814209</ele>
        <time>2009-10-11T06:45:01Z</time>
      </trkpt>
      <trkpt lat="43.30209" lon="2.72131">
        <ele>72.7169189</ele>
        <time>2009-10-11T06:45:10Z</time>
      </trkpt>
      <trkpt lat="43.30198" lon="2.72186">
        <ele>68.3908691</ele>
        <time>2009-10-11T06:45:20Z</time>
      </trkpt>
      <trkpt lat="43.30194" lon="2.72218">
        <ele>65.9876709</ele>
        <time>2009-10-11T06:45:27Z</time>
      </trkpt>
      <trkpt lat="43.30191" lon="2.72248">
        <ele>62.6229248</ele>
        <time>2009-10-11T06:45:34Z</time>
      </trkpt>
      <trkpt lat="43.30188" lon="2.72291">
        <ele>62.142334</ele>
        <time>2009-10-11T06:45:43Z</time>
      </trkpt>
      <trkpt lat="43.30187" lon="2.72309">
        <ele>63.5843506</ele>
        <time>2009-10-11T06:45:49Z</time>
      </trkpt>
      <trkpt lat="43.30188" lon="2.72311">
        <ele>65.0263672</ele>
        <time>2009-10-11T06:45:54Z</time>
      </trkpt>
      <trkpt lat="43.30187" lon="2.72312">
        <ele>66.4682617</ele>
        <time>2009-10-11T06:46:07Z</time>
      </trkpt>
      <trkpt lat="43.30182" lon="2.72329">
        <ele>66.9489746</ele>
        <time>2009-10-11T06:46:13Z</time>
      </trkpt>
      <trkpt lat="43.30167" lon="2.72364">
        <ele>66.4682617</ele>
        <time>2009-10-11T06:46:20Z</time>
      </trkpt>
      <trkpt lat="43.30148" lon="2.72405">
        <ele>66.4682617</ele>
        <time>2009-10-11T06:46:27Z</time>
      </trkpt>
      <trkpt lat="43.30127" lon="2.72453">
        <ele>67.4296875</ele>
        <time>2009-10-11T06:46:35Z</time>
      </trkpt>
      <trkpt lat="43.30098" lon="2.72516">
        <ele>64.5456543</ele>
        <time>2009-10-11T06:46:46Z</time>
      </trkpt>
      <trkpt lat="43.30075" lon="2.7257">
        <ele>59.2584229</ele>
        <time>2009-10-11T06:46:55Z</time>
      </trkpt>
      <trkpt lat="43.30063" lon="2.72615">
        <ele>55.8937988</ele>
        <time>2009-10-11T06:47:02Z</time>
      </trkpt>
      <trkpt lat="43.3005" lon="2.72674">
        <ele>53.0097656</ele>
        <time>2009-10-11T06:47:11Z</time>
      </trkpt>
      <trkpt lat="43.30047" lon="2.7272">
        <ele>52.048584</ele>
        <time>2009-10-11T06:47:18Z</time>
      </trkpt>
      <trkpt lat="43.30043" lon="2.72759">
        <ele>54.4517822</ele>
        <time>2009-10-11T06:47:24Z</time>
      </trkpt>
      <trkpt lat="43.30048" lon="2.72777">
        <ele>57.3358154</ele>
        <time>2009-10-11T06:47:28Z</time>
      </trkpt>
      <trkpt lat="43.30063" lon="2.72785">
        <ele>59.2584229</ele>
        <time>2009-10-11T06:47:33Z</time>
      </trkpt>
      <trkpt lat="43.30084" lon="2.72806">
        <ele>64.5456543</ele>
        <time>2009-10-11T06:47:43Z</time>
      </trkpt>
      <trkpt lat="43.30102" lon="2.72828">
        <ele>68.3908691</ele>
        <time>2009-10-11T06:47:53Z</time>
      </trkpt>
      <trkpt lat="43.30123" lon="2.72846">
        <ele>68.871582</ele>
        <time>2009-10-11T06:48:01Z</time>
      </trkpt>
      <trkpt lat="43.30145" lon="2.72866">
        <ele>68.871582</ele>
        <time>2009-10-11T06:48:09Z</time>
      </trkpt>
      <trkpt lat="43.30162" lon="2.72881">
        <ele>71.2749023</ele>
        <time>2009-10-11T06:48:17Z</time>
      </trkpt>
      <trkpt lat="43.30176" lon="2.72884">
        <ele>73.1976318</ele>
        <time>2009-10-11T06:48:23Z</time>
      </trkpt>
      <trkpt lat="43.302" lon="2.72876">
        <ele>75.1202393</ele>
        <time>2009-10-11T06:48:32Z</time>
      </trkpt>
      <trkpt lat="43.3022" lon="2.72875">
        <ele>75.1202393</ele>
        <time>2009-10-11T06:48:38Z</time>
      </trkpt>
      <trkpt lat="43.30253" lon="2.72873">
        <ele>75.1202393</ele>
        <time>2009-10-11T06:48:46Z</time>
      </trkpt>
      <trkpt lat="43.30295" lon="2.72873">
        <ele>75.1202393</ele>
        <time>2009-10-11T06:48:56Z</time>
      </trkpt>
      <trkpt lat="43.30315" lon="2.72876">
        <ele>75.1202393</ele>
        <time>2009-10-11T06:49:02Z</time>
      </trkpt>
      <trkpt lat="43.30321" lon="2.72878">
        <ele>74.6395264</ele>
        <time>2009-10-11T06:49:07Z</time>
      </trkpt>
      <trkpt lat="43.30333" lon="2.72885">
        <ele>74.1588135</ele>
        <time>2009-10-11T06:49:15Z</time>
      </trkpt>
      <trkpt lat="43.30353" lon="2.72899">
        <ele>73.1976318</ele>
        <time>2009-10-11T06:49:22Z</time>
      </trkpt>
      <trkpt lat="43.30386" lon="2.72922">
        <ele>71.7554932</ele>
        <time>2009-10-11T06:49:32Z</time>
      </trkpt>
      <trkpt lat="43.30418" lon="2.72943">
        <ele>71.7554932</ele>
        <time>2009-10-11T06:49:41Z</time>
      </trkpt>
      <trkpt lat="43.30441" lon="2.72961">
        <ele>71.7554932</ele>
        <time>2009-10-11T06:49:48Z</time>
      </trkpt>
      <trkpt lat="43.30466" lon="2.72981">
        <ele>70.7941895</ele>
        <time>2009-10-11T06:49:56Z</time>
      </trkpt>
      <trkpt lat="43.3049" lon="2.72998">
        <ele>71.2749023</ele>
        <time>2009-10-11T06:50:04Z</time>
      </trkpt>
      <trkpt lat="43.30512" lon="2.73003">
        <ele>71.2749023</ele>
        <time>2009-10-11T06:50:10Z</time>
      </trkpt>
      <trkpt lat="43.30547" lon="2.73018">
        <ele>70.3134766</ele>
        <time>2009-10-11T06:50:19Z</time>
      </trkpt>
      <trkpt lat="43.3058" lon="2.73039">
        <ele>69.8328857</ele>
        <time>2009-10-11T06:50:28Z</time>
      </trkpt>
      <trkpt lat="43.30597" lon="2.73047">
        <ele>69.3522949</ele>
        <time>2009-10-11T06:50:34Z</time>
      </trkpt>
      <trkpt lat="43.30601" lon="2.73049">
        <ele>69.3522949</ele>
        <time>2009-10-11T06:50:41Z</time>
      </trkpt>
      <trkpt lat="43.30604" lon="2.73049">
        <ele>70.7941895</ele>
        <time>2009-10-11T06:51:09Z</time>
      </trkpt>
      <trkpt lat="43.3062" lon="2.73057">
        <ele>70.7941895</ele>
        <time>2009-10-11T06:51:15Z</time>
      </trkpt>
      <trkpt lat="43.30641" lon="2.73068">
        <ele>70.7941895</ele>
        <time>2009-10-11T06:51:22Z</time>
      </trkpt>
      <trkpt lat="43.30665" lon="2.73075">
        <ele>71.2749023</ele>
        <time>2009-10-11T06:51:29Z</time>
      </trkpt>
      <trkpt lat="43.30683" lon="2.73078">
        <ele>71.7554932</ele>
        <time>2009-10-11T06:51:35Z</time>
      </trkpt>
      <trkpt lat="43.307" lon="2.73081">
        <ele>72.7169189</ele>
        <time>2009-10-11T06:51:40Z</time>
      </trkpt>
      <trkpt lat="43.30732" lon="2.73097">
        <ele>73.6782227</ele>
        <time>2009-10-11T06:51:51Z</time>
      </trkpt>
      <trkpt lat="43.30756" lon="2.7311">
        <ele>73.6782227</ele>
        <time>2009-10-11T06:51:59Z</time>
      </trkpt>
      <trkpt lat="43.3078" lon="2.73123">
        <ele>72.2362061</ele>
        <time>2009-10-11T06:52:04Z</time>
      </trkpt>
      <trkpt lat="43.30825" lon="2.73137">
        <ele>70.3134766</ele>
        <time>2009-10-11T06:52:11Z</time>
      </trkpt>
      <trkpt lat="43.30872" lon="2.73146">
        <ele>70.3134766</ele>
        <time>2009-10-11T06:52:18Z</time>
      </trkpt>
      <trkpt lat="43.3091" lon="2.73154">
        <ele>70.3134766</ele>
        <time>2009-10-11T06:52:25Z</time>
      </trkpt>
      <trkpt lat="43.30946" lon="2.73162">
        <ele>70.7941895</ele>
        <time>2009-10-11T06:52:33Z</time>
      </trkpt>
      <trkpt lat="43.30994" lon="2.73172">
        <ele>70.7941895</ele>
        <time>2009-10-11T06:52:44Z</time>
      </trkpt>
      <trkpt lat="43.3103" lon="2.73175">
        <ele>70.7941895</ele>
        <time>2009-10-11T06:52:52Z</time>
      </trkpt>
      <trkpt lat="43.31076" lon="2.7319">
        <ele>71.2749023</ele>
        <time>2009-10-11T06:53:03Z</time>
      </trkpt>
      <trkpt lat="43.31085" lon="2.73192">
        <ele>71.2749023</ele>
        <time>2009-10-11T06:53:05Z</time>
      </trkpt>
      <trkpt lat="43.31115" lon="2.73191">
        <ele>69.8328857</ele>
        <time>2009-10-11T06:53:12Z</time>
      </trkpt>
      <trkpt lat="43.31138" lon="2.73193">
        <ele>70.3134766</ele>
        <time>2009-10-11T06:53:17Z</time>
      </trkpt>
      <trkpt lat="43.31161" lon="2.73204">
        <ele>69.8328857</ele>
        <time>2009-10-11T06:53:23Z</time>
      </trkpt>
      <trkpt lat="43.3121" lon="2.73214">
        <ele>69.8328857</ele>
        <time>2009-10-11T06:53:35Z</time>
      </trkpt>
      <trkpt lat="43.31255" lon="2.73219">
        <ele>70.7941895</ele>
        <time>2009-10-11T06:53:46Z</time>
      </trkpt>
      <trkpt lat="43.31302" lon="2.73225">
        <ele>71.2749023</ele>
        <time>2009-10-11T06:53:57Z</time>
      </trkpt>
      <trkpt lat="43.31344" lon="2.73239">
        <ele>71.7554932</ele>
        <time>2009-10-11T06:54:07Z</time>
      </trkpt>
      <trkpt lat="43.31378" lon="2.73247">
        <ele>71.7554932</ele>
        <time>2009-10-11T06:54:15Z</time>
      </trkpt>
      <trkpt lat="43.31407" lon="2.73256">
        <ele>72.2362061</ele>
        <time>2009-10-11T06:54:22Z</time>
      </trkpt>
      <trkpt lat="43.31435" lon="2.73269">
        <ele>71.7554932</ele>
        <time>2009-10-11T06:54:29Z</time>
      </trkpt>
      <trkpt lat="43.3146" lon="2.73283">
        <ele>71.2749023</ele>
        <time>2009-10-11T06:54:35Z</time>
      </trkpt>
      <trkpt lat="43.31488" lon="2.73299">
        <ele>70.7941895</ele>
        <time>2009-10-11T06:54:42Z</time>
      </trkpt>
      <trkpt lat="43.31526" lon="2.73313">
        <ele>70.7941895</ele>
        <time>2009-10-11T06:54:51Z</time>
      </trkpt>
      <trkpt lat="43.31572" lon="2.73327">
        <ele>71.2749023</ele>
        <time>2009-10-11T06:55:02Z</time>
      </trkpt>
      <trkpt lat="43.31593" lon="2.73332">
        <ele>71.7554932</ele>
        <time>2009-10-11T06:55:07Z</time>
      </trkpt>
      <trkpt lat="43.31617" lon="2.7335">
        <ele>72.7169189</ele>
        <time>2009-10-11T06:55:14Z</time>
      </trkpt>
      <trkpt lat="43.31645" lon="2.73373">
        <ele>73.1976318</ele>
        <time>2009-10-11T06:55:23Z</time>
      </trkpt>
      <trkpt lat="43.31677" lon="2.73383">
        <ele>73.6782227</ele>
        <time>2009-10-11T06:55:32Z</time>
      </trkpt>
      <trkpt lat="43.31712" lon="2.73393">
        <ele>75.1202393</ele>
        <time>2009-10-11T06:55:41Z</time>
      </trkpt>
      <trkpt lat="43.31736" lon="2.73406">
        <ele>75.1202393</ele>
        <time>2009-10-11T06:55:48Z</time>
      </trkpt>
      <trkpt lat="43.31764" lon="2.73433">
        <ele>76.0814209</ele>
        <time>2009-10-11T06:55:57Z</time>
      </trkpt>
      <trkpt lat="43.31794" lon="2.73455">
        <ele>76.5621338</ele>
        <time>2009-10-11T06:56:06Z</time>
      </trkpt>
      <trkpt lat="43.31811" lon="2.73455">
        <ele>77.5234375</ele>
        <time>2009-10-11T06:56:11Z</time>
      </trkpt>
      <trkpt lat="43.3183" lon="2.73462">
        <ele>77.5234375</ele>
        <time>2009-10-11T06:56:17Z</time>
      </trkpt>
      <trkpt lat="43.31848" lon="2.73462">
        <ele>77.5234375</ele>
        <time>2009-10-11T06:56:22Z</time>
      </trkpt>
      <trkpt lat="43.31885" lon="2.73457">
        <ele>78.9654541</ele>
        <time>2009-10-11T06:56:33Z</time>
      </trkpt>
      <trkpt lat="43.31918" lon="2.73458">
        <ele>79.9266357</ele>
        <time>2009-10-11T06:56:43Z</time>
      </trkpt>
      <trkpt lat="43.31945" lon="2.73458">
        <ele>81.8493652</ele>
        <time>2009-10-11T06:56:52Z</time>
      </trkpt>
      <trkpt lat="43.31976" lon="2.73449">
        <ele>83.7719727</ele>
        <time>2009-10-11T06:57:02Z</time>
      </trkpt>
      <trkpt lat="43.32003" lon="2.73451">
        <ele>83.7719727</ele>
        <time>2009-10-11T06:57:10Z</time>
      </trkpt>
      <trkpt lat="43.32033" lon="2.73458">
        <ele>82.810791</ele>
        <time>2009-10-11T06:57:18Z</time>
      </trkpt>
      <trkpt lat="43.32057" lon="2.73463">
        <ele>82.3300781</ele>
        <time>2009-10-11T06:57:24Z</time>
      </trkpt>
      <trkpt lat="43.32093" lon="2.7346">
        <ele>83.7719727</ele>
        <time>2009-10-11T06:57:34Z</time>
      </trkpt>
      <trkpt lat="43.32119" lon="2.73456">
        <ele>85.6945801</ele>
        <time>2009-10-11T06:57:43Z</time>
      </trkpt>
      <trkpt lat="43.32141" lon="2.73459">
        <ele>86.6560059</ele>
        <time>2009-10-11T06:57:51Z</time>
      </trkpt>
      <trkpt lat="43.32142" lon="2.7346">
        <ele>86.6560059</ele>
        <time>2009-10-11T06:57:52Z</time>
      </trkpt>
      <trkpt lat="43.32147" lon="2.73479">
        <ele>86.6560059</ele>
        <time>2009-10-11T06:57:58Z</time>
      </trkpt>
      <trkpt lat="43.32151" lon="2.73507">
        <ele>87.6171875</ele>
        <time>2009-10-11T06:58:04Z</time>
      </trkpt>
      <trkpt lat="43.32158" lon="2.7354">
        <ele>87.6171875</ele>
        <time>2009-10-11T06:58:12Z</time>
      </trkpt>
      <trkpt lat="43.32163" lon="2.73568">
        <ele>87.1365967</ele>
        <time>2009-10-11T06:58:19Z</time>
      </trkpt>
      <trkpt lat="43.32164" lon="2.73598">
        <ele>84.7333984</ele>
        <time>2009-10-11T06:58:27Z</time>
      </trkpt>
      <trkpt lat="43.32167" lon="2.7362">
        <ele>85.2139893</ele>
        <time>2009-10-11T06:58:33Z</time>
      </trkpt>
      <trkpt lat="43.32178" lon="2.73632">
        <ele>85.6945801</ele>
        <time>2009-10-11T06:58:39Z</time>
      </trkpt>
      <trkpt lat="43.3218" lon="2.73634">
        <ele>86.175293</ele>
        <time>2009-10-11T06:58:40Z</time>
      </trkpt>
      <trkpt lat="43.32175" lon="2.73646">
        <ele>87.1365967</ele>
        <time>2009-10-11T06:58:45Z</time>
      </trkpt>
      <trkpt lat="43.32156" lon="2.73665">
        <ele>88.5787354</ele>
        <time>2009-10-11T06:58:53Z</time>
      </trkpt>
      <trkpt lat="43.32146" lon="2.73688">
        <ele>89.0593262</ele>
        <time>2009-10-11T06:58:59Z</time>
      </trkpt>
      <trkpt lat="43.32147" lon="2.7371">
        <ele>88.0980225</ele>
        <time>2009-10-11T06:59:04Z</time>
      </trkpt>
      <trkpt lat="43.32159" lon="2.73722">
        <ele>87.1365967</ele>
        <time>2009-10-11T06:59:09Z</time>
      </trkpt>
      <trkpt lat="43.32173" lon="2.73729">
        <ele>87.6171875</ele>
        <time>2009-10-11T06:59:15Z</time>
      </trkpt>
      <trkpt lat="43.32197" lon="2.73738">
        <ele>90.0206299</ele>
        <time>2009-10-11T06:59:24Z</time>
      </trkpt>
      <trkpt lat="43.32216" lon="2.73747">
        <ele>92.4239502</ele>
        <time>2009-10-11T06:59:32Z</time>
      </trkpt>
      <trkpt lat="43.32233" lon="2.73761">
        <ele>96.2692871</ele>
        <time>2009-10-11T06:59:40Z</time>
      </trkpt>
      <trkpt lat="43.3225" lon="2.73774">
        <ele>100.5950928</ele>
        <time>2009-10-11T06:59:49Z</time>
      </trkpt>
      <trkpt lat="43.32264" lon="2.73784">
        <ele>108.2856445</ele>
        <time>2009-10-11T06:59:57Z</time>
      </trkpt>
      <trkpt lat="43.32276" lon="2.73798">
        <ele>105.8824463</ele>
        <time>2009-10-11T07:00:02Z</time>
      </trkpt>
      <trkpt lat="43.32287" lon="2.73805">
        <ele>108.7662354</ele>
        <time>2009-10-11T07:00:07Z</time>
      </trkpt>
      <trkpt lat="43.323" lon="2.73812">
        <ele>111.1695557</ele>
        <time>2009-10-11T07:00:12Z</time>
      </trkpt>
      <trkpt lat="43.32318" lon="2.7383">
        <ele>107.3243408</ele>
        <time>2009-10-11T07:00:19Z</time>
      </trkpt>
      <trkpt lat="43.32332" lon="2.73838">
        <ele>106.8436279</ele>
        <time>2009-10-11T07:00:26Z</time>
      </trkpt>
      <trkpt lat="43.32342" lon="2.73841">
        <ele>106.8436279</ele>
        <time>2009-10-11T07:00:31Z</time>
      </trkpt>
      <trkpt lat="43.32356" lon="2.73845">
        <ele>105.4017334</ele>
        <time>2009-10-11T07:00:38Z</time>
      </trkpt>
      <trkpt lat="43.32369" lon="2.73851">
        <ele>106.8436279</ele>
        <time>2009-10-11T07:00:44Z</time>
      </trkpt>
      <trkpt lat="43.32384" lon="2.73865">
        <ele>110.6888428</ele>
        <time>2009-10-11T07:00:52Z</time>
      </trkpt>
      <trkpt lat="43.32398" lon="2.73887">
        <ele>111.1695557</ele>
        <time>2009-10-11T07:01:00Z</time>
      </trkpt>
      <trkpt lat="43.32412" lon="2.73904">
        <ele>111.6502686</ele>
        <time>2009-10-11T07:01:08Z</time>
      </trkpt>
      <trkpt lat="43.32424" lon="2.73912">
        <ele>112.6115723</ele>
        <time>2009-10-11T07:01:15Z</time>
      </trkpt>
      <trkpt lat="43.32434" lon="2.73913">
        <ele>112.1309814</ele>
        <time>2009-10-11T07:01:21Z</time>
      </trkpt>
      <trkpt lat="43.32439" lon="2.73912">
        <ele>113.0922852</ele>
        <time>2009-10-11T07:01:23Z</time>
      </trkpt>
      <trkpt lat="43.32444" lon="2.7392">
        <ele>113.572998</ele>
        <time>2009-10-11T07:01:28Z</time>
      </trkpt>
      <trkpt lat="43.32441" lon="2.73923">
        <ele>113.0922852</ele>
        <time>2009-10-11T07:01:30Z</time>
      </trkpt>
      <trkpt lat="43.32436" lon="2.73942">
        <ele>108.2856445</ele>
        <time>2009-10-11T07:01:38Z</time>
      </trkpt>
      <trkpt lat="43.32433" lon="2.73962">
        <ele>107.8050537</ele>
        <time>2009-10-11T07:01:45Z</time>
      </trkpt>
      <trkpt lat="43.32432" lon="2.73981">
        <ele>107.8050537</ele>
        <time>2009-10-11T07:01:51Z</time>
      </trkpt>
      <trkpt lat="43.32425" lon="2.74007">
        <ele>107.8050537</ele>
        <time>2009-10-11T07:01:57Z</time>
      </trkpt>
      <trkpt lat="43.32408" lon="2.74044">
        <ele>108.7662354</ele>
        <time>2009-10-11T07:02:05Z</time>
      </trkpt>
      <trkpt lat="43.32388" lon="2.74063">
        <ele>109.7276611</ele>
        <time>2009-10-11T07:02:11Z</time>
      </trkpt>
      <trkpt lat="43.32363" lon="2.74091">
        <ele>110.6888428</ele>
        <time>2009-10-11T07:02:20Z</time>
      </trkpt>
      <trkpt lat="43.32343" lon="2.74117">
        <ele>111.6502686</ele>
        <time>2009-10-11T07:02:29Z</time>
      </trkpt>
      <trkpt lat="43.32329" lon="2.74143">
        <ele>111.1695557</ele>
        <time>2009-10-11T07:02:35Z</time>
      </trkpt>
      <trkpt lat="43.32306" lon="2.74193">
        <ele>110.208252</ele>
        <time>2009-10-11T07:02:44Z</time>
      </trkpt>
      <trkpt lat="43.32303" lon="2.74199">
        <ele>109.7276611</ele>
        <time>2009-10-11T07:02:45Z</time>
      </trkpt>
      <trkpt lat="43.32279" lon="2.74225">
        <ele>108.7662354</ele>
        <time>2009-10-11T07:02:50Z</time>
      </trkpt>
      <trkpt lat="43.32261" lon="2.7424">
        <ele>107.3243408</ele>
        <time>2009-10-11T07:02:53Z</time>
      </trkpt>
      <trkpt lat="43.32245" lon="2.74268">
        <ele>104.9210205</ele>
        <time>2009-10-11T07:02:57Z</time>
      </trkpt>
      <trkpt lat="43.32241" lon="2.74287">
        <ele>103.9597168</ele>
        <time>2009-10-11T07:02:59Z</time>
      </trkpt>
      <trkpt lat="43.32232" lon="2.74327">
        <ele>102.5177002</ele>
        <time>2009-10-11T07:03:03Z</time>
      </trkpt>
      <trkpt lat="43.32213" lon="2.74367">
        <ele>99.6337891</ele>
        <time>2009-10-11T07:03:08Z</time>
      </trkpt>
      <trkpt lat="43.3221" lon="2.74371">
        <ele>99.1530762</ele>
        <time>2009-10-11T07:03:09Z</time>
      </trkpt>
      <trkpt lat="43.32206" lon="2.7438">
        <ele>98.6724854</ele>
        <time>2009-10-11T07:03:11Z</time>
      </trkpt>
      <trkpt lat="43.32206" lon="2.74396">
        <ele>99.1530762</ele>
        <time>2009-10-11T07:03:15Z</time>
      </trkpt>
      <trkpt lat="43.32219" lon="2.74427">
        <ele>101.5563965</ele>
        <time>2009-10-11T07:03:24Z</time>
      </trkpt>
      <trkpt lat="43.32222" lon="2.74458">
        <ele>102.5177002</ele>
        <time>2009-10-11T07:03:32Z</time>
      </trkpt>
      <trkpt lat="43.32228" lon="2.74499">
        <ele>102.998291</ele>
        <time>2009-10-11T07:03:43Z</time>
      </trkpt>
      <trkpt lat="43.32235" lon="2.7453">
        <ele>103.4790039</ele>
        <time>2009-10-11T07:03:52Z</time>
      </trkpt>
      <trkpt lat="43.32239" lon="2.74565">
        <ele>103.9597168</ele>
        <time>2009-10-11T07:04:01Z</time>
      </trkpt>
      <trkpt lat="43.32244" lon="2.74595">
        <ele>105.4017334</ele>
        <time>2009-10-11T07:04:09Z</time>
      </trkpt>
      <trkpt lat="43.32248" lon="2.7462">
        <ele>106.8436279</ele>
        <time>2009-10-11T07:04:17Z</time>
      </trkpt>
      <trkpt lat="43.3225" lon="2.74649">
        <ele>109.2469482</ele>
        <time>2009-10-11T07:04:26Z</time>
      </trkpt>
      <trkpt lat="43.32256" lon="2.74674">
        <ele>110.6888428</ele>
        <time>2009-10-11T07:04:34Z</time>
      </trkpt>
      <trkpt lat="43.32265" lon="2.74683">
        <ele>111.6502686</ele>
        <time>2009-10-11T07:04:40Z</time>
      </trkpt>
      <trkpt lat="43.32271" lon="2.74696">
        <ele>112.6115723</ele>
        <time>2009-10-11T07:04:47Z</time>
      </trkpt>
      <trkpt lat="43.32281" lon="2.74703">
        <ele>113.572998</ele>
        <time>2009-10-11T07:04:54Z</time>
      </trkpt>
      <trkpt lat="43.32286" lon="2.74707">
        <ele>114.5341797</ele>
        <time>2009-10-11T07:04:58Z</time>
      </trkpt>
      <trkpt lat="43.32291" lon="2.74716">
        <ele>114.0535889</ele>
        <time>2009-10-11T07:05:05Z</time>
      </trkpt>
      <trkpt lat="43.32295" lon="2.7472">
        <ele>115.0148926</ele>
        <time>2009-10-11T07:05:09Z</time>
      </trkpt>
      <trkpt lat="43.32297" lon="2.74722">
        <ele>115.4956055</ele>
        <time>2009-10-11T07:05:11Z</time>
      </trkpt>
      <trkpt lat="43.32302" lon="2.74723">
        <ele>117.8988037</ele>
        <time>2009-10-11T07:05:18Z</time>
      </trkpt>
      <trkpt lat="43.32305" lon="2.74727">
        <ele>118.8601074</ele>
        <time>2009-10-11T07:05:25Z</time>
      </trkpt>
      <trkpt lat="43.32306" lon="2.7473">
        <ele>119.8214111</ele>
        <time>2009-10-11T07:05:32Z</time>
      </trkpt>
      <trkpt lat="43.3231" lon="2.74739">
        <ele>119.3408203</ele>
        <time>2009-10-11T07:05:40Z</time>
      </trkpt>
      <trkpt lat="43.32314" lon="2.74744">
        <ele>120.7828369</ele>
        <time>2009-10-11T07:05:46Z</time>
      </trkpt>
      <trkpt lat="43.3232" lon="2.74748">
        <ele>119.8214111</ele>
        <time>2009-10-11T07:05:51Z</time>
      </trkpt>
      <trkpt lat="43.32328" lon="2.74757">
        <ele>119.3408203</ele>
        <time>2009-10-11T07:05:58Z</time>
      </trkpt>
      <trkpt lat="43.32334" lon="2.74772">
        <ele>118.8601074</ele>
        <time>2009-10-11T07:06:03Z</time>
      </trkpt>
      <trkpt lat="43.32344" lon="2.7478">
        <ele>118.3793945</ele>
        <time>2009-10-11T07:06:06Z</time>
      </trkpt>
      <trkpt lat="43.32366" lon="2.7479">
        <ele>117.4182129</ele>
        <time>2009-10-11T07:06:12Z</time>
      </trkpt>
      <trkpt lat="43.32381" lon="2.74793">
        <ele>115.9761963</ele>
        <time>2009-10-11T07:06:16Z</time>
      </trkpt>
      <trkpt lat="43.32397" lon="2.7479">
        <ele>115.0148926</ele>
        <time>2009-10-11T07:06:20Z</time>
      </trkpt>
      <trkpt lat="43.3241" lon="2.74776">
        <ele>114.0535889</ele>
        <time>2009-10-11T07:06:25Z</time>
      </trkpt>
      <trkpt lat="43.32418" lon="2.74763">
        <ele>116.4567871</ele>
        <time>2009-10-11T07:06:31Z</time>
      </trkpt>
      <trkpt lat="43.32426" lon="2.7475">
        <ele>117.8988037</ele>
        <time>2009-10-11T07:06:39Z</time>
      </trkpt>
      <trkpt lat="43.32436" lon="2.74753">
        <ele>118.3793945</ele>
        <time>2009-10-11T07:06:44Z</time>
      </trkpt>
      <trkpt lat="43.3244" lon="2.74762">
        <ele>117.8988037</ele>
        <time>2009-10-11T07:06:46Z</time>
      </trkpt>
      <trkpt lat="43.32466" lon="2.74818">
        <ele>116.4567871</ele>
        <time>2009-10-11T07:06:56Z</time>
      </trkpt>
      <trkpt lat="43.32492" lon="2.74866">
        <ele>116.9375</ele>
        <time>2009-10-11T07:07:06Z</time>
      </trkpt>
      <trkpt lat="43.32502" lon="2.74885">
        <ele>117.4182129</ele>
        <time>2009-10-11T07:07:12Z</time>
      </trkpt>
      <trkpt lat="43.32511" lon="2.7491">
        <ele>118.3793945</ele>
        <time>2009-10-11T07:07:21Z</time>
      </trkpt>
      <trkpt lat="43.32514" lon="2.74933">
        <ele>119.3408203</ele>
        <time>2009-10-11T07:07:28Z</time>
      </trkpt>
      <trkpt lat="43.32516" lon="2.74941">
        <ele>119.8214111</ele>
        <time>2009-10-11T07:07:31Z</time>
      </trkpt>
      <trkpt lat="43.32523" lon="2.74941">
        <ele>120.7828369</ele>
        <time>2009-10-11T07:07:36Z</time>
      </trkpt>
      <trkpt lat="43.32525" lon="2.74937">
        <ele>121.2635498</ele>
        <time>2009-10-11T07:07:38Z</time>
      </trkpt>
      <trkpt lat="43.32532" lon="2.74908">
        <ele>122.7054443</ele>
        <time>2009-10-11T07:07:49Z</time>
      </trkpt>
      <trkpt lat="43.32539" lon="2.74899">
        <ele>123.666748</ele>
        <time>2009-10-11T07:07:55Z</time>
      </trkpt>
      <trkpt lat="43.32547" lon="2.74896">
        <ele>125.5893555</ele>
        <time>2009-10-11T07:07:59Z</time>
      </trkpt>
      <trkpt lat="43.32551" lon="2.74898">
        <ele>127.0313721</ele>
        <time>2009-10-11T07:08:02Z</time>
      </trkpt>
      <trkpt lat="43.32554" lon="2.74914">
        <ele>126.5506592</ele>
        <time>2009-10-11T07:08:09Z</time>
      </trkpt>
      <trkpt lat="43.32554" lon="2.74921">
        <ele>126.5506592</ele>
        <time>2009-10-11T07:08:12Z</time>
      </trkpt>
      <trkpt lat="43.32554" lon="2.74941">
        <ele>126.5506592</ele>
        <time>2009-10-11T07:08:21Z</time>
      </trkpt>
      <trkpt lat="43.32562" lon="2.74953">
        <ele>126.5506592</ele>
        <time>2009-10-11T07:08:27Z</time>
      </trkpt>
      <trkpt lat="43.32574" lon="2.74963">
        <ele>127.5119629</ele>
        <time>2009-10-11T07:08:33Z</time>
      </trkpt>
      <trkpt lat="43.32587" lon="2.74976">
        <ele>126.0699463</ele>
        <time>2009-10-11T07:08:38Z</time>
      </trkpt>
      <trkpt lat="43.32594" lon="2.74995">
        <ele>124.6280518</ele>
        <time>2009-10-11T07:08:41Z</time>
      </trkpt>
      <trkpt lat="43.32595" lon="2.75012">
        <ele>123.1861572</ele>
        <time>2009-10-11T07:08:43Z</time>
      </trkpt>
      <trkpt lat="43.32603" lon="2.7504">
        <ele>121.7441406</ele>
        <time>2009-10-11T07:08:47Z</time>
      </trkpt>
      <trkpt lat="43.32612" lon="2.75042">
        <ele>121.7441406</ele>
        <time>2009-10-11T07:08:50Z</time>
      </trkpt>
      <trkpt lat="43.32613" lon="2.75041">
        <ele>121.7441406</ele>
        <time>2009-10-11T07:08:51Z</time>
      </trkpt>
      <trkpt lat="43.32628" lon="2.75034">
        <ele>126.5506592</ele>
        <time>2009-10-11T07:09:01Z</time>
      </trkpt>
      <trkpt lat="43.3264" lon="2.75036">
        <ele>127.5119629</ele>
        <time>2009-10-11T07:09:08Z</time>
      </trkpt>
      <trkpt lat="43.32655" lon="2.75047">
        <ele>128.9541016</ele>
        <time>2009-10-11T07:09:16Z</time>
      </trkpt>
      <trkpt lat="43.32669" lon="2.75059">
        <ele>130.876709</ele>
        <time>2009-10-11T07:09:25Z</time>
      </trkpt>
      <trkpt lat="43.32684" lon="2.75071">
        <ele>132.3186035</ele>
        <time>2009-10-11T07:09:34Z</time>
      </trkpt>
      <trkpt lat="43.3269" lon="2.75075">
        <ele>133.2799072</ele>
        <time>2009-10-11T07:09:38Z</time>
      </trkpt>
      <trkpt lat="43.32692" lon="2.75081">
        <ele>133.760498</ele>
        <time>2009-10-11T07:09:41Z</time>
      </trkpt>
      <trkpt lat="43.32691" lon="2.75096">
        <ele>134.7219238</ele>
        <time>2009-10-11T07:09:48Z</time>
      </trkpt>
      <trkpt lat="43.3269" lon="2.751">
        <ele>134.7219238</ele>
        <time>2009-10-11T07:09:50Z</time>
      </trkpt>
      <trkpt lat="43.32682" lon="2.75127">
        <ele>134.2412109</ele>
        <time>2009-10-11T07:09:59Z</time>
      </trkpt>
      <trkpt lat="43.32672" lon="2.7516">
        <ele>133.760498</ele>
        <time>2009-10-11T07:10:07Z</time>
      </trkpt>
      <trkpt lat="43.32667" lon="2.75191">
        <ele>132.7993164</ele>
        <time>2009-10-11T07:10:13Z</time>
      </trkpt>
      <trkpt lat="43.32674" lon="2.7521">
        <ele>132.7993164</ele>
        <time>2009-10-11T07:10:18Z</time>
      </trkpt>
      <trkpt lat="43.32684" lon="2.75223">
        <ele>135.6831055</ele>
        <time>2009-10-11T07:10:25Z</time>
      </trkpt>
      <trkpt lat="43.32696" lon="2.75226">
        <ele>137.1252441</ele>
        <time>2009-10-11T07:10:32Z</time>
      </trkpt>
      <trkpt lat="43.32706" lon="2.75221">
        <ele>138.5672607</ele>
        <time>2009-10-11T07:10:39Z</time>
      </trkpt>
      <trkpt lat="43.32714" lon="2.7521">
        <ele>139.5284424</ele>
        <time>2009-10-11T07:10:46Z</time>
      </trkpt>
      <trkpt lat="43.32722" lon="2.752">
        <ele>140.970459</ele>
        <time>2009-10-11T07:10:53Z</time>
      </trkpt>
      <trkpt lat="43.32729" lon="2.75182">
        <ele>142.8930664</ele>
        <time>2009-10-11T07:11:02Z</time>
      </trkpt>
      <trkpt lat="43.32735" lon="2.75172">
        <ele>143.3736572</ele>
        <time>2009-10-11T07:11:09Z</time>
      </trkpt>
      <trkpt lat="43.32738" lon="2.75169">
        <ele>144.3352051</ele>
        <time>2009-10-11T07:11:12Z</time>
      </trkpt>
      <trkpt lat="43.32744" lon="2.75159">
        <ele>144.8157959</ele>
        <time>2009-10-11T07:11:19Z</time>
      </trkpt>
      <trkpt lat="43.3275" lon="2.75164">
        <ele>146.7384033</ele>
        <time>2009-10-11T07:11:25Z</time>
      </trkpt>
      <trkpt lat="43.32754" lon="2.75165">
        <ele>146.7384033</ele>
        <time>2009-10-11T07:11:30Z</time>
      </trkpt>
      <trkpt lat="43.32756" lon="2.75156">
        <ele>147.699707</ele>
        <time>2009-10-11T07:11:38Z</time>
      </trkpt>
      <trkpt lat="43.32756" lon="2.75152">
        <ele>147.699707</ele>
        <time>2009-10-11T07:11:41Z</time>
      </trkpt>
      <trkpt lat="43.32756" lon="2.75136">
        <ele>147.699707</ele>
        <time>2009-10-11T07:11:48Z</time>
      </trkpt>
      <trkpt lat="43.32756" lon="2.75119">
        <ele>150.1030273</ele>
        <time>2009-10-11T07:11:55Z</time>
      </trkpt>
      <trkpt lat="43.32754" lon="2.75105">
        <ele>148.6610107</ele>
        <time>2009-10-11T07:12:01Z</time>
      </trkpt>
      <trkpt lat="43.32754" lon="2.75102">
        <ele>148.6610107</ele>
        <time>2009-10-11T07:12:06Z</time>
      </trkpt>
      <trkpt lat="43.32755" lon="2.75103">
        <ele>149.1416016</ele>
        <time>2009-10-11T07:12:13Z</time>
      </trkpt>
      <trkpt lat="43.32758" lon="2.751">
        <ele>144.3352051</ele>
        <time>2009-10-11T07:14:21Z</time>
      </trkpt>
      <trkpt lat="43.32758" lon="2.75105">
        <ele>140.4898682</ele>
        <time>2009-10-11T07:14:47Z</time>
      </trkpt>
      <trkpt lat="43.32756" lon="2.75103">
        <ele>138.0865479</ele>
        <time>2009-10-11T07:17:08Z</time>
      </trkpt>
      <trkpt lat="43.32754" lon="2.75103">
        <ele>137.605835</ele>
        <time>2009-10-11T07:17:28Z</time>
      </trkpt>
      <trkpt lat="43.32755" lon="2.75093">
        <ele>141.9317627</ele>
        <time>2009-10-11T07:17:37Z</time>
      </trkpt>
      <trkpt lat="43.32761" lon="2.75072">
        <ele>145.2963867</ele>
        <time>2009-10-11T07:17:44Z</time>
      </trkpt>
      <trkpt lat="43.32768" lon="2.7505">
        <ele>146.7384033</ele>
        <time>2009-10-11T07:17:51Z</time>
      </trkpt>
      <trkpt lat="43.32773" lon="2.75028">
        <ele>148.6610107</ele>
        <time>2009-10-11T07:18:00Z</time>
      </trkpt>
      <trkpt lat="43.32776" lon="2.75009">
        <ele>149.6223145</ele>
        <time>2009-10-11T07:18:07Z</time>
      </trkpt>
      <trkpt lat="43.32783" lon="2.7498">
        <ele>150.1030273</ele>
        <time>2009-10-11T07:18:14Z</time>
      </trkpt>
      <trkpt lat="43.3279" lon="2.74942">
        <ele>149.6223145</ele>
        <time>2009-10-11T07:18:22Z</time>
      </trkpt>
      <trkpt lat="43.32797" lon="2.74924">
        <ele>151.064209</ele>
        <time>2009-10-11T07:18:29Z</time>
      </trkpt>
      <trkpt lat="43.32809" lon="2.74926">
        <ele>152.5063477</ele>
        <time>2009-10-11T07:18:36Z</time>
      </trkpt>
      <trkpt lat="43.32826" lon="2.74928">
        <ele>152.9869385</ele>
        <time>2009-10-11T07:18:44Z</time>
      </trkpt>
      <trkpt lat="43.32838" lon="2.74935">
        <ele>152.5063477</ele>
        <time>2009-10-11T07:18:50Z</time>
      </trkpt>
      <trkpt lat="43.3285" lon="2.74934">
        <ele>152.0257568</ele>
        <time>2009-10-11T07:18:56Z</time>
      </trkpt>
      <trkpt lat="43.3286" lon="2.74928">
        <ele>152.5063477</ele>
        <time>2009-10-11T07:19:03Z</time>
      </trkpt>
      <trkpt lat="43.3287" lon="2.74927">
        <ele>154.4289551</ele>
        <time>2009-10-11T07:19:09Z</time>
      </trkpt>
      <trkpt lat="43.32879" lon="2.74928">
        <ele>157.7935791</ele>
        <time>2009-10-11T07:19:15Z</time>
      </trkpt>
      <trkpt lat="43.3289" lon="2.74931">
        <ele>160.6774902</ele>
        <time>2009-10-11T07:19:22Z</time>
      </trkpt>
      <trkpt lat="43.32901" lon="2.74934">
        <ele>162.1195068</ele>
        <time>2009-10-11T07:19:28Z</time>
      </trkpt>
      <trkpt lat="43.32906" lon="2.74937">
        <ele>159.2354736</ele>
        <time>2009-10-11T07:19:30Z</time>
      </trkpt>
      <trkpt lat="43.32916" lon="2.74932">
        <ele>156.8321533</ele>
        <time>2009-10-11T07:19:36Z</time>
      </trkpt>
      <trkpt lat="43.32933" lon="2.74925">
        <ele>156.3515625</ele>
        <time>2009-10-11T07:19:44Z</time>
      </trkpt>
      <trkpt lat="43.32946" lon="2.74916">
        <ele>157.3128662</ele>
        <time>2009-10-11T07:19:52Z</time>
      </trkpt>
      <trkpt lat="43.32956" lon="2.74917">
        <ele>159.2354736</ele>
        <time>2009-10-11T07:19:58Z</time>
      </trkpt>
      <trkpt lat="43.32958" lon="2.74918">
        <ele>159.7161865</ele>
        <time>2009-10-11T07:20:00Z</time>
      </trkpt>
      <trkpt lat="43.32961" lon="2.74918">
        <ele>157.3128662</ele>
        <time>2009-10-11T07:20:07Z</time>
      </trkpt>
      <trkpt lat="43.32965" lon="2.74913">
        <ele>157.7935791</ele>
        <time>2009-10-11T07:20:45Z</time>
      </trkpt>
      <trkpt lat="43.32962" lon="2.74892">
        <ele>156.8321533</ele>
        <time>2009-10-11T07:20:52Z</time>
      </trkpt>
      <trkpt lat="43.32955" lon="2.74872">
        <ele>157.3128662</ele>
        <time>2009-10-11T07:20:58Z</time>
      </trkpt>
      <trkpt lat="43.3294" lon="2.74859">
        <ele>152.9869385</ele>
        <time>2009-10-11T07:21:06Z</time>
      </trkpt>
      <trkpt lat="43.32923" lon="2.74845">
        <ele>152.0257568</ele>
        <time>2009-10-11T07:21:13Z</time>
      </trkpt>
      <trkpt lat="43.32903" lon="2.74822">
        <ele>150.1030273</ele>
        <time>2009-10-11T07:21:19Z</time>
      </trkpt>
      <trkpt lat="43.32878" lon="2.7479">
        <ele>146.7384033</ele>
        <time>2009-10-11T07:21:25Z</time>
      </trkpt>
      <trkpt lat="43.32864" lon="2.74769">
        <ele>143.8543701</ele>
        <time>2009-10-11T07:21:28Z</time>
      </trkpt>
      <trkpt lat="43.32851" lon="2.74723">
        <ele>140.0091553</ele>
        <time>2009-10-11T07:21:33Z</time>
      </trkpt>
      <trkpt lat="43.32854" lon="2.74689">
        <ele>136.6446533</ele>
        <time>2009-10-11T07:21:36Z</time>
      </trkpt>
      <trkpt lat="43.32858" lon="2.74663">
        <ele>135.2025146</ele>
        <time>2009-10-11T07:21:38Z</time>
      </trkpt>
      <trkpt lat="43.32854" lon="2.74614">
        <ele>134.7219238</ele>
        <time>2009-10-11T07:21:42Z</time>
      </trkpt>
      <trkpt lat="43.32845" lon="2.74598">
        <ele>134.7219238</ele>
        <time>2009-10-11T07:21:44Z</time>
      </trkpt>
      <trkpt lat="43.32842" lon="2.74584">
        <ele>138.0865479</ele>
        <time>2009-10-11T07:21:49Z</time>
      </trkpt>
      <trkpt lat="43.32843" lon="2.74583">
        <ele>138.5672607</ele>
        <time>2009-10-11T07:21:50Z</time>
      </trkpt>
      <trkpt lat="43.32855" lon="2.74567">
        <ele>142.4124756</ele>
        <time>2009-10-11T07:22:01Z</time>
      </trkpt>
      <trkpt lat="43.32862" lon="2.74553">
        <ele>144.3352051</ele>
        <time>2009-10-11T07:22:10Z</time>
      </trkpt>
      <trkpt lat="43.32865" lon="2.74539">
        <ele>149.1416016</ele>
        <time>2009-10-11T07:22:18Z</time>
      </trkpt>
      <trkpt lat="43.32869" lon="2.74524">
        <ele>150.5836182</ele>
        <time>2009-10-11T07:22:26Z</time>
      </trkpt>
      <trkpt lat="43.32873" lon="2.74515">
        <ele>150.5836182</ele>
        <time>2009-10-11T07:22:31Z</time>
      </trkpt>
      <trkpt lat="43.32874" lon="2.74508">
        <ele>150.1030273</ele>
        <time>2009-10-11T07:22:36Z</time>
      </trkpt>
      <trkpt lat="43.32879" lon="2.74496">
        <ele>149.1416016</ele>
        <time>2009-10-11T07:22:45Z</time>
      </trkpt>
      <trkpt lat="43.32886" lon="2.74479">
        <ele>155.3902588</ele>
        <time>2009-10-11T07:22:56Z</time>
      </trkpt>
      <trkpt lat="43.3289" lon="2.74468">
        <ele>157.3128662</ele>
        <time>2009-10-11T07:23:04Z</time>
      </trkpt>
      <trkpt lat="43.32893" lon="2.74459">
        <ele>157.7935791</ele>
        <time>2009-10-11T07:23:11Z</time>
      </trkpt>
      <trkpt lat="43.32896" lon="2.74448">
        <ele>159.2354736</ele>
        <time>2009-10-11T07:23:19Z</time>
      </trkpt>
      <trkpt lat="43.32898" lon="2.74436">
        <ele>160.1968994</ele>
        <time>2009-10-11T07:23:27Z</time>
      </trkpt>
      <trkpt lat="43.329" lon="2.74427">
        <ele>160.6774902</ele>
        <time>2009-10-11T07:23:34Z</time>
      </trkpt>
      <trkpt lat="43.32903" lon="2.74418">
        <ele>163.0808105</ele>
        <time>2009-10-11T07:23:40Z</time>
      </trkpt>
      <trkpt lat="43.32905" lon="2.74413">
        <ele>164.5227051</ele>
        <time>2009-10-11T07:23:44Z</time>
      </trkpt>
      <trkpt lat="43.32909" lon="2.74398">
        <ele>165.9647217</ele>
        <time>2009-10-11T07:23:53Z</time>
      </trkpt>
      <trkpt lat="43.32916" lon="2.74381">
        <ele>167.8873291</ele>
        <time>2009-10-11T07:24:02Z</time>
      </trkpt>
      <trkpt lat="43.32918" lon="2.74358">
        <ele>165.9647217</ele>
        <time>2009-10-11T07:24:10Z</time>
      </trkpt>
      <trkpt lat="43.32918" lon="2.74334">
        <ele>165.4841309</ele>
        <time>2009-10-11T07:24:18Z</time>
      </trkpt>
      <trkpt lat="43.32921" lon="2.74306">
        <ele>165.4841309</ele>
        <time>2009-10-11T07:24:26Z</time>
      </trkpt>
      <trkpt lat="43.32931" lon="2.74295">
        <ele>165.003418</ele>
        <time>2009-10-11T07:24:31Z</time>
      </trkpt>
      <trkpt lat="43.32943" lon="2.74291">
        <ele>165.003418</ele>
        <time>2009-10-11T07:24:37Z</time>
      </trkpt>
      <trkpt lat="43.32955" lon="2.74299">
        <ele>165.003418</ele>
        <time>2009-10-11T07:24:43Z</time>
      </trkpt>
      <trkpt lat="43.32973" lon="2.74311">
        <ele>165.9647217</ele>
        <time>2009-10-11T07:24:52Z</time>
      </trkpt>
      <trkpt lat="43.32992" lon="2.74314">
        <ele>165.9647217</ele>
        <time>2009-10-11T07:25:01Z</time>
      </trkpt>
      <trkpt lat="43.33005" lon="2.74319">
        <ele>166.9260254</ele>
        <time>2009-10-11T07:25:08Z</time>
      </trkpt>
      <trkpt lat="43.33014" lon="2.74324">
        <ele>168.368042</ele>
        <time>2009-10-11T07:25:15Z</time>
      </trkpt>
      <trkpt lat="43.33027" lon="2.74334">
        <ele>168.8487549</ele>
        <time>2009-10-11T07:25:25Z</time>
      </trkpt>
      <trkpt lat="43.33032" lon="2.7434">
        <ele>169.8100586</ele>
        <time>2009-10-11T07:25:30Z</time>
      </trkpt>
      <trkpt lat="43.33035" lon="2.74341">
        <ele>170.2906494</ele>
        <time>2009-10-11T07:25:33Z</time>
      </trkpt>
      <trkpt lat="43.33038" lon="2.74338">
        <ele>170.7713623</ele>
        <time>2009-10-11T07:25:37Z</time>
      </trkpt>
      <trkpt lat="43.33038" lon="2.74333">
        <ele>171.2520752</ele>
        <time>2009-10-11T07:25:41Z</time>
      </trkpt>
      <trkpt lat="43.33039" lon="2.7433">
        <ele>170.7713623</ele>
        <time>2009-10-11T07:25:43Z</time>
      </trkpt>
      <trkpt lat="43.3304" lon="2.74309">
        <ele>174.1358643</ele>
        <time>2009-10-11T07:25:54Z</time>
      </trkpt>
      <trkpt lat="43.33041" lon="2.74296">
        <ele>176.5393066</ele>
        <time>2009-10-11T07:26:00Z</time>
      </trkpt>
      <trkpt lat="43.33045" lon="2.7428">
        <ele>177.5006104</ele>
        <time>2009-10-11T07:26:09Z</time>
      </trkpt>
      <trkpt lat="43.33049" lon="2.74267">
        <ele>179.4232178</ele>
        <time>2009-10-11T07:26:16Z</time>
      </trkpt>
      <trkpt lat="43.33051" lon="2.74249">
        <ele>178.942627</ele>
        <time>2009-10-11T07:26:22Z</time>
      </trkpt>
      <trkpt lat="43.33051" lon="2.74243">
        <ele>178.942627</ele>
        <time>2009-10-11T07:26:24Z</time>
      </trkpt>
      <trkpt lat="43.33044" lon="2.74231">
        <ele>178.4619141</ele>
        <time>2009-10-11T07:26:30Z</time>
      </trkpt>
      <trkpt lat="43.33038" lon="2.7423">
        <ele>177.9812012</ele>
        <time>2009-10-11T07:26:32Z</time>
      </trkpt>
      <trkpt lat="43.33012" lon="2.74228">
        <ele>172.6939697</ele>
        <time>2009-10-11T07:26:38Z</time>
      </trkpt>
      <trkpt lat="43.33004" lon="2.74223">
        <ele>170.7713623</ele>
        <time>2009-10-11T07:26:41Z</time>
      </trkpt>
      <trkpt lat="43.33003" lon="2.74223">
        <ele>170.7713623</ele>
        <time>2009-10-11T07:26:42Z</time>
      </trkpt>
      <trkpt lat="43.32999" lon="2.74232">
        <ele>167.8873291</ele>
        <time>2009-10-11T07:26:47Z</time>
      </trkpt>
      <trkpt lat="43.32997" lon="2.74241">
        <ele>165.4841309</ele>
        <time>2009-10-11T07:26:51Z</time>
      </trkpt>
      <trkpt lat="43.32993" lon="2.74233">
        <ele>165.9647217</ele>
        <time>2009-10-11T07:26:55Z</time>
      </trkpt>
      <trkpt lat="43.32988" lon="2.74205">
        <ele>165.003418</ele>
        <time>2009-10-11T07:27:02Z</time>
      </trkpt>
      <trkpt lat="43.32984" lon="2.74183">
        <ele>163.5615234</ele>
        <time>2009-10-11T07:27:07Z</time>
      </trkpt>
      <trkpt lat="43.32982" lon="2.74152">
        <ele>164.5227051</ele>
        <time>2009-10-11T07:27:12Z</time>
      </trkpt>
      <trkpt lat="43.3298" lon="2.74101">
        <ele>161.638916</ele>
        <time>2009-10-11T07:27:20Z</time>
      </trkpt>
      <trkpt lat="43.32981" lon="2.74089">
        <ele>161.638916</ele>
        <time>2009-10-11T07:27:22Z</time>
      </trkpt>
      <trkpt lat="43.3298" lon="2.74075">
        <ele>159.7161865</ele>
        <time>2009-10-11T07:27:25Z</time>
      </trkpt>
      <trkpt lat="43.32976" lon="2.74063">
        <ele>156.3515625</ele>
        <time>2009-10-11T07:27:31Z</time>
      </trkpt>
      <trkpt lat="43.32974" lon="2.74062">
        <ele>153.4676514</ele>
        <time>2009-10-11T07:27:37Z</time>
      </trkpt>
      <trkpt lat="43.32964" lon="2.74058">
        <ele>152.5063477</ele>
        <time>2009-10-11T07:27:41Z</time>
      </trkpt>
      <trkpt lat="43.32942" lon="2.74051">
        <ele>150.5836182</ele>
        <time>2009-10-11T07:27:46Z</time>
      </trkpt>
      <trkpt lat="43.32931" lon="2.74031">
        <ele>149.1416016</ele>
        <time>2009-10-11T07:27:50Z</time>
      </trkpt>
      <trkpt lat="43.32916" lon="2.74011">
        <ele>148.1804199</ele>
        <time>2009-10-11T07:27:54Z</time>
      </trkpt>
      <trkpt lat="43.32911" lon="2.74002">
        <ele>147.699707</ele>
        <time>2009-10-11T07:27:57Z</time>
      </trkpt>
      <trkpt lat="43.32918" lon="2.73997">
        <ele>147.2189941</ele>
        <time>2009-10-11T07:28:00Z</time>
      </trkpt>
      <trkpt lat="43.32926" lon="2.73997">
        <ele>147.2189941</ele>
        <time>2009-10-11T07:28:02Z</time>
      </trkpt>
      <trkpt lat="43.32931" lon="2.73981">
        <ele>146.2578125</ele>
        <time>2009-10-11T07:28:06Z</time>
      </trkpt>
      <trkpt lat="43.32932" lon="2.73975">
        <ele>146.7384033</ele>
        <time>2009-10-11T07:28:07Z</time>
      </trkpt>
      <trkpt lat="43.32935" lon="2.7394">
        <ele>149.6223145</ele>
        <time>2009-10-11T07:28:14Z</time>
      </trkpt>
      <trkpt lat="43.32937" lon="2.73918">
        <ele>149.1416016</ele>
        <time>2009-10-11T07:28:19Z</time>
      </trkpt>
      <trkpt lat="43.3294" lon="2.73894">
        <ele>147.699707</ele>
        <time>2009-10-11T07:28:24Z</time>
      </trkpt>
      <trkpt lat="43.3294" lon="2.73871">
        <ele>146.2578125</ele>
        <time>2009-10-11T07:28:29Z</time>
      </trkpt>
      <trkpt lat="43.32934" lon="2.73857">
        <ele>145.7770996</ele>
        <time>2009-10-11T07:28:33Z</time>
      </trkpt>
      <trkpt lat="43.32922" lon="2.73842">
        <ele>143.3736572</ele>
        <time>2009-10-11T07:28:40Z</time>
      </trkpt>
      <trkpt lat="43.32916" lon="2.73817">
        <ele>140.4898682</ele>
        <time>2009-10-11T07:28:47Z</time>
      </trkpt>
      <trkpt lat="43.32917" lon="2.73788">
        <ele>139.0478516</ele>
        <time>2009-10-11T07:28:51Z</time>
      </trkpt>
      <trkpt lat="43.3292" lon="2.73771">
        <ele>137.605835</ele>
        <time>2009-10-11T07:28:53Z</time>
      </trkpt>
      <trkpt lat="43.32925" lon="2.73756">
        <ele>136.6446533</ele>
        <time>2009-10-11T07:28:55Z</time>
      </trkpt>
      <trkpt lat="43.32927" lon="2.73733">
        <ele>134.2412109</ele>
        <time>2009-10-11T07:28:59Z</time>
      </trkpt>
      <trkpt lat="43.32924" lon="2.73724">
        <ele>133.2799072</ele>
        <time>2009-10-11T07:29:01Z</time>
      </trkpt>
      <trkpt lat="43.32914" lon="2.73703">
        <ele>129.9152832</ele>
        <time>2009-10-11T07:29:09Z</time>
      </trkpt>
      <trkpt lat="43.32913" lon="2.73695">
        <ele>128.4733887</ele>
        <time>2009-10-11T07:29:13Z</time>
      </trkpt>
      <trkpt lat="43.32914" lon="2.73691">
        <ele>127.9925537</ele>
        <time>2009-10-11T07:29:16Z</time>
      </trkpt>
      <trkpt lat="43.32921" lon="2.73691">
        <ele>129.9152832</ele>
        <time>2009-10-11T07:29:21Z</time>
      </trkpt>
      <trkpt lat="43.32926" lon="2.73694">
        <ele>129.9152832</ele>
        <time>2009-10-11T07:29:24Z</time>
      </trkpt>
      <trkpt lat="43.32943" lon="2.73705">
        <ele>131.8378906</ele>
        <time>2009-10-11T07:29:34Z</time>
      </trkpt>
      <trkpt lat="43.32955" lon="2.73704">
        <ele>131.8378906</ele>
        <time>2009-10-11T07:29:40Z</time>
      </trkpt>
      <trkpt lat="43.32971" lon="2.73703">
        <ele>131.8378906</ele>
        <time>2009-10-11T07:29:48Z</time>
      </trkpt>
      <trkpt lat="43.32989" lon="2.73707">
        <ele>132.3186035</ele>
        <time>2009-10-11T07:29:57Z</time>
      </trkpt>
      <trkpt lat="43.33008" lon="2.7371">
        <ele>132.3186035</ele>
        <time>2009-10-11T07:30:07Z</time>
      </trkpt>
      <trkpt lat="43.33022" lon="2.73714">
        <ele>135.6831055</ele>
        <time>2009-10-11T07:30:16Z</time>
      </trkpt>
      <trkpt lat="43.33035" lon="2.73712">
        <ele>136.1639404</ele>
        <time>2009-10-11T07:30:25Z</time>
      </trkpt>
      <trkpt lat="43.33048" lon="2.73703">
        <ele>138.0865479</ele>
        <time>2009-10-11T07:30:34Z</time>
      </trkpt>
      <trkpt lat="43.33058" lon="2.73692">
        <ele>140.4898682</ele>
        <time>2009-10-11T07:30:43Z</time>
      </trkpt>
      <trkpt lat="43.33065" lon="2.73676">
        <ele>141.4510498</ele>
        <time>2009-10-11T07:30:51Z</time>
      </trkpt>
      <trkpt lat="43.33071" lon="2.73656">
        <ele>144.8157959</ele>
        <time>2009-10-11T07:31:00Z</time>
      </trkpt>
      <trkpt lat="43.33077" lon="2.73635">
        <ele>146.2578125</ele>
        <time>2009-10-11T07:31:10Z</time>
      </trkpt>
      <trkpt lat="43.33084" lon="2.73612">
        <ele>147.2189941</ele>
        <time>2009-10-11T07:31:19Z</time>
      </trkpt>
      <trkpt lat="43.33094" lon="2.73592">
        <ele>147.2189941</ele>
        <time>2009-10-11T07:31:27Z</time>
      </trkpt>
      <trkpt lat="43.33104" lon="2.73581">
        <ele>146.7384033</ele>
        <time>2009-10-11T07:31:31Z</time>
      </trkpt>
      <trkpt lat="43.33128" lon="2.73577">
        <ele>147.2189941</ele>
        <time>2009-10-11T07:31:38Z</time>
      </trkpt>
      <trkpt lat="43.33146" lon="2.73578">
        <ele>148.6610107</ele>
        <time>2009-10-11T07:31:45Z</time>
      </trkpt>
      <trkpt lat="43.33157" lon="2.73572">
        <ele>149.6223145</ele>
        <time>2009-10-11T07:31:51Z</time>
      </trkpt>
      <trkpt lat="43.33159" lon="2.73569">
        <ele>149.1416016</ele>
        <time>2009-10-11T07:31:53Z</time>
      </trkpt>
      <trkpt lat="43.33156" lon="2.73559">
        <ele>150.5836182</ele>
        <time>2009-10-11T07:31:58Z</time>
      </trkpt>
      <trkpt lat="43.33152" lon="2.73548">
        <ele>149.6223145</ele>
        <time>2009-10-11T07:32:05Z</time>
      </trkpt>
      <trkpt lat="43.33152" lon="2.73543">
        <ele>149.6223145</ele>
        <time>2009-10-11T07:32:08Z</time>
      </trkpt>
      <trkpt lat="43.33149" lon="2.73535">
        <ele>151.064209</ele>
        <time>2009-10-11T07:32:14Z</time>
      </trkpt>
      <trkpt lat="43.33147" lon="2.73521">
        <ele>152.0257568</ele>
        <time>2009-10-11T07:32:22Z</time>
      </trkpt>
      <trkpt lat="43.33144" lon="2.73505">
        <ele>153.4676514</ele>
        <time>2009-10-11T07:32:31Z</time>
      </trkpt>
      <trkpt lat="43.33141" lon="2.73496">
        <ele>154.9095459</ele>
        <time>2009-10-11T07:32:37Z</time>
      </trkpt>
      <trkpt lat="43.33136" lon="2.73485">
        <ele>155.3902588</ele>
        <time>2009-10-11T07:32:45Z</time>
      </trkpt>
      <trkpt lat="43.33131" lon="2.73471">
        <ele>156.8321533</ele>
        <time>2009-10-11T07:32:52Z</time>
      </trkpt>
      <trkpt lat="43.33124" lon="2.73458">
        <ele>158.2741699</ele>
        <time>2009-10-11T07:32:58Z</time>
      </trkpt>
      <trkpt lat="43.33117" lon="2.73451">
        <ele>159.2354736</ele>
        <time>2009-10-11T07:33:04Z</time>
      </trkpt>
      <trkpt lat="43.33114" lon="2.73436">
        <ele>159.7161865</ele>
        <time>2009-10-11T07:33:12Z</time>
      </trkpt>
      <trkpt lat="43.33116" lon="2.73423">
        <ele>161.1582031</ele>
        <time>2009-10-11T07:33:19Z</time>
      </trkpt>
      <trkpt lat="43.33118" lon="2.73418">
        <ele>162.1195068</ele>
        <time>2009-10-11T07:33:22Z</time>
      </trkpt>
      <trkpt lat="43.3312" lon="2.73397">
        <ele>163.0808105</ele>
        <time>2009-10-11T07:33:31Z</time>
      </trkpt>
      <trkpt lat="43.33122" lon="2.73383">
        <ele>164.0421143</ele>
        <time>2009-10-11T07:33:36Z</time>
      </trkpt>
      <trkpt lat="43.33121" lon="2.73366">
        <ele>164.5227051</ele>
        <time>2009-10-11T07:33:43Z</time>
      </trkpt>
      <trkpt lat="43.33122" lon="2.73343">
        <ele>165.003418</ele>
        <time>2009-10-11T07:33:52Z</time>
      </trkpt>
      <trkpt lat="43.33118" lon="2.73329">
        <ele>165.003418</ele>
        <time>2009-10-11T07:34:00Z</time>
      </trkpt>
      <trkpt lat="43.33118" lon="2.73327">
        <ele>165.003418</ele>
        <time>2009-10-11T07:34:01Z</time>
      </trkpt>
      <trkpt lat="43.33121" lon="2.73317">
        <ele>165.4841309</ele>
        <time>2009-10-11T07:34:07Z</time>
      </trkpt>
      <trkpt lat="43.33129" lon="2.7332">
        <ele>165.9647217</ele>
        <time>2009-10-11T07:34:14Z</time>
      </trkpt>
      <trkpt lat="43.33131" lon="2.73325">
        <ele>165.9647217</ele>
        <time>2009-10-11T07:34:16Z</time>
      </trkpt>
      <trkpt lat="43.33134" lon="2.73344">
        <ele>166.4453125</ele>
        <time>2009-10-11T07:34:24Z</time>
      </trkpt>
      <trkpt lat="43.33136" lon="2.73364">
        <ele>167.4067383</ele>
        <time>2009-10-11T07:34:32Z</time>
      </trkpt>
      <trkpt lat="43.33143" lon="2.73368">
        <ele>168.8487549</ele>
        <time>2009-10-11T07:34:38Z</time>
      </trkpt>
      <trkpt lat="43.33145" lon="2.73366">
        <ele>168.368042</ele>
        <time>2009-10-11T07:34:40Z</time>
      </trkpt>
      <trkpt lat="43.33149" lon="2.73356">
        <ele>168.8487549</ele>
        <time>2009-10-11T07:34:45Z</time>
      </trkpt>
      <trkpt lat="43.33156" lon="2.73335">
        <ele>172.6939697</ele>
        <time>2009-10-11T07:34:55Z</time>
      </trkpt>
      <trkpt lat="43.33158" lon="2.73321">
        <ele>175.09729</ele>
        <time>2009-10-11T07:35:03Z</time>
      </trkpt>
      <trkpt lat="43.33156" lon="2.73306">
        <ele>176.0585938</ele>
        <time>2009-10-11T07:35:10Z</time>
      </trkpt>
      <trkpt lat="43.33151" lon="2.73287">
        <ele>175.09729</ele>
        <time>2009-10-11T07:35:19Z</time>
      </trkpt>
      <trkpt lat="43.33149" lon="2.73271">
        <ele>176.0585938</ele>
        <time>2009-10-11T07:35:26Z</time>
      </trkpt>
      <trkpt lat="43.3315" lon="2.73252">
        <ele>176.0585938</ele>
        <time>2009-10-11T07:35:33Z</time>
      </trkpt>
      <trkpt lat="43.33151" lon="2.73226">
        <ele>175.5778809</ele>
        <time>2009-10-11T07:35:43Z</time>
      </trkpt>
      <trkpt lat="43.33152" lon="2.73199">
        <ele>176.5393066</ele>
        <time>2009-10-11T07:35:53Z</time>
      </trkpt>
      <trkpt lat="43.33157" lon="2.73178">
        <ele>179.4232178</ele>
        <time>2009-10-11T07:36:01Z</time>
      </trkpt>
      <trkpt lat="43.33161" lon="2.73163">
        <ele>183.7490234</ele>
        <time>2009-10-11T07:36:08Z</time>
      </trkpt>
      <trkpt lat="43.33164" lon="2.73145">
        <ele>185.1911621</ele>
        <time>2009-10-11T07:36:16Z</time>
      </trkpt>
      <trkpt lat="43.33165" lon="2.73128">
        <ele>185.1911621</ele>
        <time>2009-10-11T07:36:24Z</time>
      </trkpt>
      <trkpt lat="43.33157" lon="2.7312">
        <ele>184.7105713</ele>
        <time>2009-10-11T07:36:31Z</time>
      </trkpt>
      <trkpt lat="43.33147" lon="2.73115">
        <ele>184.7105713</ele>
        <time>2009-10-11T07:36:38Z</time>
      </trkpt>
      <trkpt lat="43.33145" lon="2.73114">
        <ele>184.2298584</ele>
        <time>2009-10-11T07:36:47Z</time>
      </trkpt>
      <trkpt lat="43.33143" lon="2.73112">
        <ele>182.7878418</ele>
        <time>2009-10-11T07:36:53Z</time>
      </trkpt>
      <trkpt lat="43.33141" lon="2.73112">
        <ele>179.4232178</ele>
        <time>2009-10-11T07:37:01Z</time>
      </trkpt>
      <trkpt lat="43.33142" lon="2.73114">
        <ele>173.6552734</ele>
        <time>2009-10-11T07:37:16Z</time>
      </trkpt>
      <trkpt lat="43.33143" lon="2.73113">
        <ele>178.4619141</ele>
        <time>2009-10-11T07:38:09Z</time>
      </trkpt>
      <trkpt lat="43.33145" lon="2.73111">
        <ele>181.826416</ele>
        <time>2009-10-11T07:38:21Z</time>
      </trkpt>
      <trkpt lat="43.33145" lon="2.73111">
        <ele>183.7490234</ele>
        <time>2009-10-11T07:38:43Z</time>
      </trkpt>
      <trkpt lat="43.33144" lon="2.73112">
        <ele>182.3071289</ele>
        <time>2009-10-11T07:39:09Z</time>
      </trkpt>
      <trkpt lat="43.33146" lon="2.73114">
        <ele>181.826416</ele>
        <time>2009-10-11T07:39:13Z</time>
      </trkpt>
      <trkpt lat="43.33148" lon="2.73116">
        <ele>181.3458252</ele>
        <time>2009-10-11T07:39:18Z</time>
      </trkpt>
      <trkpt lat="43.33151" lon="2.73117">
        <ele>180.3845215</ele>
        <time>2009-10-11T07:39:26Z</time>
      </trkpt>
      <trkpt lat="43.33151" lon="2.73117">
        <ele>180.3845215</ele>
        <time>2009-10-11T07:39:34Z</time>
      </trkpt>
      <trkpt lat="43.33155" lon="2.7312">
        <ele>177.9812012</ele>
        <time>2009-10-11T07:39:40Z</time>
      </trkpt>
      <trkpt lat="43.33151" lon="2.73118">
        <ele>175.5778809</ele>
        <time>2009-10-11T07:39:45Z</time>
      </trkpt>
      <trkpt lat="43.33143" lon="2.73113">
        <ele>175.5778809</ele>
        <time>2009-10-11T07:39:50Z</time>
      </trkpt>
      <trkpt lat="43.3314" lon="2.73109">
        <ele>176.5393066</ele>
        <time>2009-10-11T07:39:54Z</time>
      </trkpt>
      <trkpt lat="43.33141" lon="2.73109">
        <ele>177.5006104</ele>
        <time>2009-10-11T07:40:01Z</time>
      </trkpt>
      <trkpt lat="43.33139" lon="2.73109">
        <ele>179.9038086</ele>
        <time>2009-10-11T07:41:24Z</time>
      </trkpt>
      <trkpt lat="43.33138" lon="2.73104">
        <ele>188.0750732</ele>
        <time>2009-10-11T07:41:30Z</time>
      </trkpt>
      <trkpt lat="43.33143" lon="2.73106">
        <ele>189.036377</ele>
        <time>2009-10-11T07:41:56Z</time>
      </trkpt>
      <trkpt lat="43.33147" lon="2.73109">
        <ele>183.7490234</ele>
        <time>2009-10-11T07:42:26Z</time>
      </trkpt>
      <trkpt lat="43.33148" lon="2.73107">
        <ele>184.2298584</ele>
        <time>2009-10-11T07:42:27Z</time>
      </trkpt>
      <trkpt lat="43.33148" lon="2.73086">
        <ele>184.2298584</ele>
        <time>2009-10-11T07:42:34Z</time>
      </trkpt>
      <trkpt lat="43.3315" lon="2.7305">
        <ele>184.2298584</ele>
        <time>2009-10-11T07:42:43Z</time>
      </trkpt>
      <trkpt lat="43.33154" lon="2.73025">
        <ele>183.2684326</ele>
        <time>2009-10-11T07:42:51Z</time>
      </trkpt>
      <trkpt lat="43.33164" lon="2.73025">
        <ele>183.7490234</ele>
        <time>2009-10-11T07:42:56Z</time>
      </trkpt>
      <trkpt lat="43.33171" lon="2.73038">
        <ele>183.2684326</ele>
        <time>2009-10-11T07:43:01Z</time>
      </trkpt>
      <trkpt lat="43.33174" lon="2.73067">
        <ele>182.3071289</ele>
        <time>2009-10-11T07:43:10Z</time>
      </trkpt>
      <trkpt lat="43.33184" lon="2.73087">
        <ele>180.8652344</ele>
        <time>2009-10-11T07:43:17Z</time>
      </trkpt>
      <trkpt lat="43.33193" lon="2.731">
        <ele>182.7878418</ele>
        <time>2009-10-11T07:43:24Z</time>
      </trkpt>
      <trkpt lat="43.33196" lon="2.73118">
        <ele>183.2684326</ele>
        <time>2009-10-11T07:43:32Z</time>
      </trkpt>
      <trkpt lat="43.33199" lon="2.73131">
        <ele>184.7105713</ele>
        <time>2009-10-11T07:43:38Z</time>
      </trkpt>
      <trkpt lat="43.33205" lon="2.73143">
        <ele>187.1137695</ele>
        <time>2009-10-11T07:43:45Z</time>
      </trkpt>
      <trkpt lat="43.33214" lon="2.73159">
        <ele>189.5169678</ele>
        <time>2009-10-11T07:43:54Z</time>
      </trkpt>
      <trkpt lat="43.33224" lon="2.7318">
        <ele>190.9589844</ele>
        <time>2009-10-11T07:44:06Z</time>
      </trkpt>
      <trkpt lat="43.33229" lon="2.73195">
        <ele>192.8817139</ele>
        <time>2009-10-11T07:44:15Z</time>
      </trkpt>
      <trkpt lat="43.33234" lon="2.7321">
        <ele>194.8043213</ele>
        <time>2009-10-11T07:44:24Z</time>
      </trkpt>
      <trkpt lat="43.33242" lon="2.73222">
        <ele>196.7269287</ele>
        <time>2009-10-11T07:44:32Z</time>
      </trkpt>
      <trkpt lat="43.33251" lon="2.73228">
        <ele>197.2075195</ele>
        <time>2009-10-11T07:44:38Z</time>
      </trkpt>
      <trkpt lat="43.33264" lon="2.73227">
        <ele>199.130127</ele>
        <time>2009-10-11T07:44:47Z</time>
      </trkpt>
      <trkpt lat="43.33276" lon="2.73222">
        <ele>199.130127</ele>
        <time>2009-10-11T07:44:55Z</time>
      </trkpt>
      <trkpt lat="43.33286" lon="2.73215">
        <ele>200.0916748</ele>
        <time>2009-10-11T07:45:02Z</time>
      </trkpt>
      <trkpt lat="43.333" lon="2.73209">
        <ele>200.5722656</ele>
        <time>2009-10-11T07:45:09Z</time>
      </trkpt>
      <trkpt lat="43.33323" lon="2.73202">
        <ele>198.6495361</ele>
        <time>2009-10-11T07:45:19Z</time>
      </trkpt>
      <trkpt lat="43.33354" lon="2.73195">
        <ele>197.2075195</ele>
        <time>2009-10-11T07:45:29Z</time>
      </trkpt>
      <trkpt lat="43.33381" lon="2.73188">
        <ele>195.2849121</ele>
        <time>2009-10-11T07:45:36Z</time>
      </trkpt>
      <trkpt lat="43.33398" lon="2.73188">
        <ele>193.3623047</ele>
        <time>2009-10-11T07:45:40Z</time>
      </trkpt>
      <trkpt lat="43.33419" lon="2.73183">
        <ele>193.8430176</ele>
        <time>2009-10-11T07:45:45Z</time>
      </trkpt>
      <trkpt lat="43.33433" lon="2.73181">
        <ele>192.8817139</ele>
        <time>2009-10-11T07:45:50Z</time>
      </trkpt>
      <trkpt lat="43.33446" lon="2.73172">
        <ele>191.9202881</ele>
        <time>2009-10-11T07:45:56Z</time>
      </trkpt>
      <trkpt lat="43.3346" lon="2.73168">
        <ele>191.4395752</ele>
        <time>2009-10-11T07:46:00Z</time>
      </trkpt>
      <trkpt lat="43.33478" lon="2.73172">
        <ele>191.4395752</ele>
        <time>2009-10-11T07:46:07Z</time>
      </trkpt>
      <trkpt lat="43.33491" lon="2.7319">
        <ele>190.9589844</ele>
        <time>2009-10-11T07:46:13Z</time>
      </trkpt>
      <trkpt lat="43.33495" lon="2.73208">
        <ele>192.401123</ele>
        <time>2009-10-11T07:46:18Z</time>
      </trkpt>
      <trkpt lat="43.33503" lon="2.73222">
        <ele>193.8430176</ele>
        <time>2009-10-11T07:46:24Z</time>
      </trkpt>
      <trkpt lat="43.33513" lon="2.73222">
        <ele>194.8043213</ele>
        <time>2009-10-11T07:46:30Z</time>
      </trkpt>
      <trkpt lat="43.33526" lon="2.73218">
        <ele>195.765625</ele>
        <time>2009-10-11T07:46:37Z</time>
      </trkpt>
      <trkpt lat="43.33536" lon="2.73213">
        <ele>197.2075195</ele>
        <time>2009-10-11T07:46:44Z</time>
      </trkpt>
      <trkpt lat="43.33543" lon="2.73201">
        <ele>200.0916748</ele>
        <time>2009-10-11T07:46:52Z</time>
      </trkpt>
      <trkpt lat="43.33548" lon="2.7319">
        <ele>200.0916748</ele>
        <time>2009-10-11T07:46:59Z</time>
      </trkpt>
      <trkpt lat="43.33559" lon="2.73174">
        <ele>201.5335693</ele>
        <time>2009-10-11T07:47:09Z</time>
      </trkpt>
      <trkpt lat="43.3357" lon="2.73161">
        <ele>202.9754639</ele>
        <time>2009-10-11T07:47:18Z</time>
      </trkpt>
      <trkpt lat="43.33582" lon="2.73148">
        <ele>204.8980713</ele>
        <time>2009-10-11T07:47:26Z</time>
      </trkpt>
      <trkpt lat="43.33597" lon="2.73137">
        <ele>204.8980713</ele>
        <time>2009-10-11T07:47:33Z</time>
      </trkpt>
      <trkpt lat="43.33612" lon="2.73141">
        <ele>204.4174805</ele>
        <time>2009-10-11T07:47:39Z</time>
      </trkpt>
      <trkpt lat="43.33629" lon="2.73148">
        <ele>204.8980713</ele>
        <time>2009-10-11T07:47:47Z</time>
      </trkpt>
      <trkpt lat="43.33639" lon="2.73143">
        <ele>207.3013916</ele>
        <time>2009-10-11T07:47:54Z</time>
      </trkpt>
      <trkpt lat="43.33652" lon="2.73137">
        <ele>208.2628174</ele>
        <time>2009-10-11T07:48:00Z</time>
      </trkpt>
      <trkpt lat="43.33668" lon="2.73127">
        <ele>208.7434082</ele>
        <time>2009-10-11T07:48:08Z</time>
      </trkpt>
      <trkpt lat="43.33685" lon="2.73115">
        <ele>210.6660156</ele>
        <time>2009-10-11T07:48:18Z</time>
      </trkpt>
      <trkpt lat="43.33698" lon="2.73105">
        <ele>211.6274414</ele>
        <time>2009-10-11T07:48:28Z</time>
      </trkpt>
      <trkpt lat="43.33709" lon="2.73091">
        <ele>213.5500488</ele>
        <time>2009-10-11T07:48:36Z</time>
      </trkpt>
      <trkpt lat="43.33717" lon="2.73079">
        <ele>214.9919434</ele>
        <time>2009-10-11T07:48:43Z</time>
      </trkpt>
      <trkpt lat="43.33723" lon="2.7307">
        <ele>215.4726563</ele>
        <time>2009-10-11T07:48:49Z</time>
      </trkpt>
      <trkpt lat="43.33729" lon="2.73054">
        <ele>215.9532471</ele>
        <time>2009-10-11T07:48:56Z</time>
      </trkpt>
      <trkpt lat="43.3374" lon="2.73039">
        <ele>215.9532471</ele>
        <time>2009-10-11T07:49:04Z</time>
      </trkpt>
      <trkpt lat="43.33751" lon="2.73021">
        <ele>218.8372803</ele>
        <time>2009-10-11T07:49:13Z</time>
      </trkpt>
      <trkpt lat="43.33758" lon="2.73011">
        <ele>219.798584</ele>
        <time>2009-10-11T07:49:21Z</time>
      </trkpt>
      <trkpt lat="43.33762" lon="2.73">
        <ele>222.2017822</ele>
        <time>2009-10-11T07:49:27Z</time>
      </trkpt>
      <trkpt lat="43.33771" lon="2.72987">
        <ele>223.163208</ele>
        <time>2009-10-11T07:49:36Z</time>
      </trkpt>
      <trkpt lat="43.33782" lon="2.72974">
        <ele>226.0471191</ele>
        <time>2009-10-11T07:49:45Z</time>
      </trkpt>
      <trkpt lat="43.33789" lon="2.72971">
        <ele>227.0085449</ele>
        <time>2009-10-11T07:49:50Z</time>
      </trkpt>
      <trkpt lat="43.33798" lon="2.72978">
        <ele>227.4891357</ele>
        <time>2009-10-11T07:49:57Z</time>
      </trkpt>
      <trkpt lat="43.33807" lon="2.7298">
        <ele>228.9311523</ele>
        <time>2009-10-11T07:50:04Z</time>
      </trkpt>
      <trkpt lat="43.33816" lon="2.72977">
        <ele>230.8537598</ele>
        <time>2009-10-11T07:50:11Z</time>
      </trkpt>
      <trkpt lat="43.33827" lon="2.72983">
        <ele>231.3343506</ele>
        <time>2009-10-11T07:50:19Z</time>
      </trkpt>
      <trkpt lat="43.33833" lon="2.72987">
        <ele>230.8537598</ele>
        <time>2009-10-11T07:50:23Z</time>
      </trkpt>
      <trkpt lat="43.33842" lon="2.72981">
        <ele>231.8149414</ele>
        <time>2009-10-11T07:50:29Z</time>
      </trkpt>
      <trkpt lat="43.33853" lon="2.72971">
        <ele>229.892334</ele>
        <time>2009-10-11T07:50:34Z</time>
      </trkpt>
      <trkpt lat="43.33864" lon="2.7296">
        <ele>231.3343506</ele>
        <time>2009-10-11T07:50:38Z</time>
      </trkpt>
      <trkpt lat="43.33881" lon="2.72939">
        <ele>231.8149414</ele>
        <time>2009-10-11T07:50:43Z</time>
      </trkpt>
      <trkpt lat="43.33887" lon="2.7293">
        <ele>230.8537598</ele>
        <time>2009-10-11T07:50:45Z</time>
      </trkpt>
      <trkpt lat="43.33899" lon="2.72913">
        <ele>231.3343506</ele>
        <time>2009-10-11T07:50:49Z</time>
      </trkpt>
      <trkpt lat="43.33905" lon="2.72906">
        <ele>230.8537598</ele>
        <time>2009-10-11T07:50:51Z</time>
      </trkpt>
      <trkpt lat="43.33928" lon="2.72892">
        <ele>228.4504395</ele>
        <time>2009-10-11T07:50:59Z</time>
      </trkpt>
      <trkpt lat="43.33944" lon="2.72883">
        <ele>226.527832</ele>
        <time>2009-10-11T07:51:03Z</time>
      </trkpt>
      <trkpt lat="43.33966" lon="2.72863">
        <ele>224.6052246</ele>
        <time>2009-10-11T07:51:08Z</time>
      </trkpt>
      <trkpt lat="43.33985" lon="2.72846">
        <ele>223.163208</ele>
        <time>2009-10-11T07:51:12Z</time>
      </trkpt>
      <trkpt lat="43.34013" lon="2.72816">
        <ele>223.6437988</ele>
        <time>2009-10-11T07:51:18Z</time>
      </trkpt>
      <trkpt lat="43.34017" lon="2.72811">
        <ele>224.1245117</ele>
        <time>2009-10-11T07:51:19Z</time>
      </trkpt>
      <trkpt lat="43.34036" lon="2.72775">
        <ele>223.6437988</ele>
        <time>2009-10-11T07:51:26Z</time>
      </trkpt>
      <trkpt lat="43.34044" lon="2.72757">
        <ele>223.163208</ele>
        <time>2009-10-11T07:51:30Z</time>
      </trkpt>
      <trkpt lat="43.34052" lon="2.72748">
        <ele>222.6824951</ele>
        <time>2009-10-11T07:51:36Z</time>
      </trkpt>
      <trkpt lat="43.34071" lon="2.72745">
        <ele>221.7211914</ele>
        <time>2009-10-11T07:51:44Z</time>
      </trkpt>
      <trkpt lat="43.34092" lon="2.72745">
        <ele>220.7598877</ele>
        <time>2009-10-11T07:51:52Z</time>
      </trkpt>
      <trkpt lat="43.34112" lon="2.72745">
        <ele>219.798584</ele>
        <time>2009-10-11T07:51:59Z</time>
      </trkpt>
      <trkpt lat="43.34127" lon="2.72745">
        <ele>219.798584</ele>
        <time>2009-10-11T07:52:05Z</time>
      </trkpt>
      <trkpt lat="43.34145" lon="2.72752">
        <ele>219.3179932</ele>
        <time>2009-10-11T07:52:13Z</time>
      </trkpt>
      <trkpt lat="43.34156" lon="2.72753">
        <ele>218.3565674</ele>
        <time>2009-10-11T07:52:17Z</time>
      </trkpt>
      <trkpt lat="43.34178" lon="2.72742">
        <ele>215.4726563</ele>
        <time>2009-10-11T07:52:23Z</time>
      </trkpt>
      <trkpt lat="43.34195" lon="2.72731">
        <ele>213.5500488</ele>
        <time>2009-10-11T07:52:27Z</time>
      </trkpt>
      <trkpt lat="43.34209" lon="2.72714">
        <ele>211.1467285</ele>
        <time>2009-10-11T07:52:31Z</time>
      </trkpt>
      <trkpt lat="43.34233" lon="2.72695">
        <ele>206.8206787</ele>
        <time>2009-10-11T07:52:37Z</time>
      </trkpt>
      <trkpt lat="43.3424" lon="2.72691">
        <ele>207.3013916</ele>
        <time>2009-10-11T07:52:39Z</time>
      </trkpt>
      <trkpt lat="43.34252" lon="2.72682">
        <ele>207.7821045</ele>
        <time>2009-10-11T07:52:42Z</time>
      </trkpt>
      <trkpt lat="43.34259" lon="2.72675">
        <ele>207.3013916</ele>
        <time>2009-10-11T07:52:44Z</time>
      </trkpt>
      <trkpt lat="43.34277" lon="2.72661">
        <ele>207.3013916</ele>
        <time>2009-10-11T07:52:49Z</time>
      </trkpt>
      <trkpt lat="43.34292" lon="2.72648">
        <ele>204.8980713</ele>
        <time>2009-10-11T07:52:53Z</time>
      </trkpt>
      <trkpt lat="43.34303" lon="2.72634">
        <ele>202.494873</ele>
        <time>2009-10-11T07:52:56Z</time>
      </trkpt>
      <trkpt lat="43.3431" lon="2.72624">
        <ele>202.494873</ele>
        <time>2009-10-11T07:52:58Z</time>
      </trkpt>
      <trkpt lat="43.34319" lon="2.72615">
        <ele>202.9754639</ele>
        <time>2009-10-11T07:53:01Z</time>
      </trkpt>
      <trkpt lat="43.3433" lon="2.72602">
        <ele>202.494873</ele>
        <time>2009-10-11T07:53:08Z</time>
      </trkpt>
      <trkpt lat="43.34343" lon="2.72584">
        <ele>202.9754639</ele>
        <time>2009-10-11T07:53:18Z</time>
      </trkpt>
      <trkpt lat="43.34351" lon="2.72569">
        <ele>205.3787842</ele>
        <time>2009-10-11T07:53:27Z</time>
      </trkpt>
      <trkpt lat="43.34352" lon="2.72567">
        <ele>205.8594971</ele>
        <time>2009-10-11T07:53:29Z</time>
      </trkpt>
      <trkpt lat="43.34357" lon="2.72562">
        <ele>206.8206787</ele>
        <time>2009-10-11T07:53:37Z</time>
      </trkpt>
      <trkpt lat="43.3436" lon="2.72551">
        <ele>206.8206787</ele>
        <time>2009-10-11T07:53:43Z</time>
      </trkpt>
      <trkpt lat="43.34361" lon="2.72536">
        <ele>208.7434082</ele>
        <time>2009-10-11T07:53:50Z</time>
      </trkpt>
      <trkpt lat="43.34361" lon="2.7252">
        <ele>210.1854248</ele>
        <time>2009-10-11T07:53:58Z</time>
      </trkpt>
      <trkpt lat="43.34363" lon="2.72506">
        <ele>210.6660156</ele>
        <time>2009-10-11T07:54:05Z</time>
      </trkpt>
      <trkpt lat="43.34366" lon="2.72489">
        <ele>211.6274414</ele>
        <time>2009-10-11T07:54:13Z</time>
      </trkpt>
      <trkpt lat="43.34371" lon="2.72475">
        <ele>211.6274414</ele>
        <time>2009-10-11T07:54:19Z</time>
      </trkpt>
      <trkpt lat="43.34375" lon="2.72454">
        <ele>214.5112305</ele>
        <time>2009-10-11T07:54:28Z</time>
      </trkpt>
      <trkpt lat="43.34378" lon="2.72429">
        <ele>215.4726563</ele>
        <time>2009-10-11T07:54:38Z</time>
      </trkpt>
      <trkpt lat="43.34384" lon="2.72405">
        <ele>215.4726563</ele>
        <time>2009-10-11T07:54:48Z</time>
      </trkpt>
      <trkpt lat="43.34387" lon="2.7239">
        <ele>216.9146729</ele>
        <time>2009-10-11T07:54:56Z</time>
      </trkpt>
      <trkpt lat="43.34391" lon="2.72378">
        <ele>218.3565674</ele>
        <time>2009-10-11T07:55:02Z</time>
      </trkpt>
      <trkpt lat="43.34395" lon="2.72365">
        <ele>218.8372803</ele>
        <time>2009-10-11T07:55:09Z</time>
      </trkpt>
      <trkpt lat="43.344" lon="2.72349">
        <ele>218.8372803</ele>
        <time>2009-10-11T07:55:16Z</time>
      </trkpt>
      <trkpt lat="43.34407" lon="2.72325">
        <ele>219.798584</ele>
        <time>2009-10-11T07:55:27Z</time>
      </trkpt>
      <trkpt lat="43.34413" lon="2.72307">
        <ele>221.7211914</ele>
        <time>2009-10-11T07:55:36Z</time>
      </trkpt>
      <trkpt lat="43.34419" lon="2.72291">
        <ele>222.2017822</ele>
        <time>2009-10-11T07:55:44Z</time>
      </trkpt>
      <trkpt lat="43.34421" lon="2.72274">
        <ele>222.2017822</ele>
        <time>2009-10-11T07:55:53Z</time>
      </trkpt>
      <trkpt lat="43.34423" lon="2.72252">
        <ele>224.1245117</ele>
        <time>2009-10-11T07:56:04Z</time>
      </trkpt>
      <trkpt lat="43.34428" lon="2.72231">
        <ele>226.0471191</ele>
        <time>2009-10-11T07:56:14Z</time>
      </trkpt>
      <trkpt lat="43.34438" lon="2.72212">
        <ele>228.4504395</ele>
        <time>2009-10-11T07:56:24Z</time>
      </trkpt>
      <trkpt lat="43.34444" lon="2.72193">
        <ele>229.892334</ele>
        <time>2009-10-11T07:56:33Z</time>
      </trkpt>
      <trkpt lat="43.34445" lon="2.72166">
        <ele>231.3343506</ele>
        <time>2009-10-11T07:56:44Z</time>
      </trkpt>
      <trkpt lat="43.34447" lon="2.72145">
        <ele>232.2957764</ele>
        <time>2009-10-11T07:56:53Z</time>
      </trkpt>
      <trkpt lat="43.34448" lon="2.72126">
        <ele>233.2570801</ele>
        <time>2009-10-11T07:57:02Z</time>
      </trkpt>
      <trkpt lat="43.34448" lon="2.72105">
        <ele>234.2183838</ele>
        <time>2009-10-11T07:57:12Z</time>
      </trkpt>
      <trkpt lat="43.34447" lon="2.721">
        <ele>234.2183838</ele>
        <time>2009-10-11T07:57:15Z</time>
      </trkpt>
      <trkpt lat="43.34444" lon="2.72093">
        <ele>232.2957764</ele>
        <time>2009-10-11T07:57:23Z</time>
      </trkpt>
      <trkpt lat="43.34441" lon="2.72091">
        <ele>229.892334</ele>
        <time>2009-10-11T07:57:29Z</time>
      </trkpt>
      <trkpt lat="43.34442" lon="2.72092">
        <ele>228.4504395</ele>
        <time>2009-10-11T07:57:39Z</time>
      </trkpt>
      <trkpt lat="43.34442" lon="2.72093">
        <ele>229.4117432</ele>
        <time>2009-10-11T07:58:02Z</time>
      </trkpt>
      <trkpt lat="43.34441" lon="2.72094">
        <ele>234.6990967</ele>
        <time>2009-10-11T07:58:34Z</time>
      </trkpt>
      <trkpt lat="43.34441" lon="2.72094">
        <ele>235.1796875</ele>
        <time>2009-10-11T07:59:16Z</time>
      </trkpt>
      <trkpt lat="43.3444" lon="2.72095">
        <ele>234.2183838</ele>
        <time>2009-10-11T07:59:21Z</time>
      </trkpt>
      <trkpt lat="43.34442" lon="2.72097">
        <ele>229.4117432</ele>
        <time>2009-10-11T08:09:43Z</time>
      </trkpt>
      <trkpt lat="43.34446" lon="2.72097">
        <ele>230.8537598</ele>
        <time>2009-10-11T08:10:00Z</time>
      </trkpt>
      <trkpt lat="43.34449" lon="2.72094">
        <ele>230.3730469</ele>
        <time>2009-10-11T08:10:10Z</time>
      </trkpt>
      <trkpt lat="43.34452" lon="2.72088">
        <ele>231.8149414</ele>
        <time>2009-10-11T08:10:16Z</time>
      </trkpt>
      <trkpt lat="43.34452" lon="2.72082">
        <ele>232.2957764</ele>
        <time>2009-10-11T08:10:19Z</time>
      </trkpt>
      <trkpt lat="43.34457" lon="2.72064">
        <ele>233.7376709</ele>
        <time>2009-10-11T08:10:27Z</time>
      </trkpt>
      <trkpt lat="43.34467" lon="2.72044">
        <ele>233.7376709</ele>
        <time>2009-10-11T08:10:35Z</time>
      </trkpt>
      <trkpt lat="43.34477" lon="2.72019">
        <ele>234.2183838</ele>
        <time>2009-10-11T08:10:44Z</time>
      </trkpt>
      <trkpt lat="43.34489" lon="2.72005">
        <ele>234.2183838</ele>
        <time>2009-10-11T08:10:51Z</time>
      </trkpt>
      <trkpt lat="43.34505" lon="2.71991">
        <ele>234.2183838</ele>
        <time>2009-10-11T08:10:59Z</time>
      </trkpt>
      <trkpt lat="43.3452" lon="2.71989">
        <ele>234.2183838</ele>
        <time>2009-10-11T08:11:05Z</time>
      </trkpt>
      <trkpt lat="43.34544" lon="2.71985">
        <ele>234.6990967</ele>
        <time>2009-10-11T08:11:12Z</time>
      </trkpt>
      <trkpt lat="43.34564" lon="2.71975">
        <ele>234.6990967</ele>
        <time>2009-10-11T08:11:18Z</time>
      </trkpt>
      <trkpt lat="43.34568" lon="2.71967">
        <ele>234.6990967</ele>
        <time>2009-10-11T08:11:20Z</time>
      </trkpt>
      <trkpt lat="43.34569" lon="2.71942">
        <ele>235.1796875</ele>
        <time>2009-10-11T08:11:27Z</time>
      </trkpt>
      <trkpt lat="43.34571" lon="2.71917">
        <ele>236.1409912</ele>
        <time>2009-10-11T08:11:34Z</time>
      </trkpt>
      <trkpt lat="43.34571" lon="2.71893">
        <ele>238.0635986</ele>
        <time>2009-10-11T08:11:42Z</time>
      </trkpt>
      <trkpt lat="43.34567" lon="2.71882">
        <ele>238.0635986</ele>
        <time>2009-10-11T08:11:47Z</time>
      </trkpt>
      <trkpt lat="43.34558" lon="2.71871">
        <ele>238.0635986</ele>
        <time>2009-10-11T08:11:54Z</time>
      </trkpt>
      <trkpt lat="43.34547" lon="2.71865">
        <ele>237.1022949</ele>
        <time>2009-10-11T08:12:00Z</time>
      </trkpt>
      <trkpt lat="43.34523" lon="2.71863">
        <ele>236.6217041</ele>
        <time>2009-10-11T08:12:10Z</time>
      </trkpt>
      <trkpt lat="43.34499" lon="2.7186">
        <ele>236.1409912</ele>
        <time>2009-10-11T08:12:20Z</time>
      </trkpt>
      <trkpt lat="43.34477" lon="2.71858">
        <ele>236.1409912</ele>
        <time>2009-10-11T08:12:30Z</time>
      </trkpt>
      <trkpt lat="43.34461" lon="2.71854">
        <ele>236.6217041</ele>
        <time>2009-10-11T08:12:38Z</time>
      </trkpt>
      <trkpt lat="43.34448" lon="2.71844">
        <ele>238.5443115</ele>
        <time>2009-10-11T08:12:46Z</time>
      </trkpt>
      <trkpt lat="43.34432" lon="2.71831">
        <ele>241.4282227</ele>
        <time>2009-10-11T08:12:56Z</time>
      </trkpt>
      <trkpt lat="43.34415" lon="2.71817">
        <ele>244.7928467</ele>
        <time>2009-10-11T08:13:07Z</time>
      </trkpt>
      <trkpt lat="43.344" lon="2.71804">
        <ele>246.7154541</ele>
        <time>2009-10-11T08:13:17Z</time>
      </trkpt>
      <trkpt lat="43.34375" lon="2.71786">
        <ele>247.6767578</ele>
        <time>2009-10-11T08:13:30Z</time>
      </trkpt>
      <trkpt lat="43.34359" lon="2.71767">
        <ele>246.7154541</ele>
        <time>2009-10-11T08:13:39Z</time>
      </trkpt>
      <trkpt lat="43.34343" lon="2.71748">
        <ele>245.7541504</ele>
        <time>2009-10-11T08:13:47Z</time>
      </trkpt>
      <trkpt lat="43.34321" lon="2.71741">
        <ele>242.8702393</ele>
        <time>2009-10-11T08:13:53Z</time>
      </trkpt>
      <trkpt lat="43.34303" lon="2.71732">
        <ele>242.3896484</ele>
        <time>2009-10-11T08:13:59Z</time>
      </trkpt>
      <trkpt lat="43.3429" lon="2.71719">
        <ele>243.3508301</ele>
        <time>2009-10-11T08:14:05Z</time>
      </trkpt>
      <trkpt lat="43.34273" lon="2.71701">
        <ele>245.2734375</ele>
        <time>2009-10-11T08:14:12Z</time>
      </trkpt>
      <trkpt lat="43.34251" lon="2.71685">
        <ele>248.6381836</ele>
        <time>2009-10-11T08:14:19Z</time>
      </trkpt>
      <trkpt lat="43.34234" lon="2.71669">
        <ele>250.0802002</ele>
        <time>2009-10-11T08:14:26Z</time>
      </trkpt>
      <trkpt lat="43.3423" lon="2.7165">
        <ele>249.5994873</ele>
        <time>2009-10-11T08:14:32Z</time>
      </trkpt>
      <trkpt lat="43.34235" lon="2.71633">
        <ele>249.5994873</ele>
        <time>2009-10-11T08:14:38Z</time>
      </trkpt>
      <trkpt lat="43.34245" lon="2.71616">
        <ele>250.0802002</ele>
        <time>2009-10-11T08:14:46Z</time>
      </trkpt>
      <trkpt lat="43.34247" lon="2.71608">
        <ele>250.0802002</ele>
        <time>2009-10-11T08:14:49Z</time>
      </trkpt>
      <trkpt lat="43.34239" lon="2.71602">
        <ele>251.0413818</ele>
        <time>2009-10-11T08:14:54Z</time>
      </trkpt>
      <trkpt lat="43.34227" lon="2.71606">
        <ele>251.5220947</ele>
        <time>2009-10-11T08:15:01Z</time>
      </trkpt>
      <trkpt lat="43.34218" lon="2.71608">
        <ele>252.9639893</ele>
        <time>2009-10-11T08:15:06Z</time>
      </trkpt>
      <trkpt lat="43.34203" lon="2.71603">
        <ele>253.925415</ele>
        <time>2009-10-11T08:15:15Z</time>
      </trkpt>
      <trkpt lat="43.3419" lon="2.71594">
        <ele>253.4447021</ele>
        <time>2009-10-11T08:15:23Z</time>
      </trkpt>
      <trkpt lat="43.34176" lon="2.71584">
        <ele>253.4447021</ele>
        <time>2009-10-11T08:15:31Z</time>
      </trkpt>
      <trkpt lat="43.34162" lon="2.71572">
        <ele>254.8865967</ele>
        <time>2009-10-11T08:15:39Z</time>
      </trkpt>
      <trkpt lat="43.34146" lon="2.71561">
        <ele>257.2900391</ele>
        <time>2009-10-11T08:15:48Z</time>
      </trkpt>
      <trkpt lat="43.34131" lon="2.71552">
        <ele>256.3287354</ele>
        <time>2009-10-11T08:15:56Z</time>
      </trkpt>
      <trkpt lat="43.34118" lon="2.71544">
        <ele>254.8865967</ele>
        <time>2009-10-11T08:16:03Z</time>
      </trkpt>
      <trkpt lat="43.34117" lon="2.71534">
        <ele>254.8865967</ele>
        <time>2009-10-11T08:16:07Z</time>
      </trkpt>
      <trkpt lat="43.34125" lon="2.71501">
        <ele>258.2513428</ele>
        <time>2009-10-11T08:16:18Z</time>
      </trkpt>
      <trkpt lat="43.34131" lon="2.71474">
        <ele>259.6933594</ele>
        <time>2009-10-11T08:16:27Z</time>
      </trkpt>
      <trkpt lat="43.3414" lon="2.71435">
        <ele>261.1352539</ele>
        <time>2009-10-11T08:16:39Z</time>
      </trkpt>
      <trkpt lat="43.34148" lon="2.71411">
        <ele>261.6159668</ele>
        <time>2009-10-11T08:16:48Z</time>
      </trkpt>
      <trkpt lat="43.34159" lon="2.71379">
        <ele>262.0965576</ele>
        <time>2009-10-11T08:17:00Z</time>
      </trkpt>
      <trkpt lat="43.34166" lon="2.71355">
        <ele>262.5771484</ele>
        <time>2009-10-11T08:17:09Z</time>
      </trkpt>
      <trkpt lat="43.34166" lon="2.71331">
        <ele>262.5771484</ele>
        <time>2009-10-11T08:17:18Z</time>
      </trkpt>
      <trkpt lat="43.34166" lon="2.71318">
        <ele>262.5771484</ele>
        <time>2009-10-11T08:17:25Z</time>
      </trkpt>
      <trkpt lat="43.34166" lon="2.71315">
        <ele>262.0965576</ele>
        <time>2009-10-11T08:17:27Z</time>
      </trkpt>
      <trkpt lat="43.3417" lon="2.71309">
        <ele>263.0578613</ele>
        <time>2009-10-11T08:17:31Z</time>
      </trkpt>
      <trkpt lat="43.34172" lon="2.71308">
        <ele>263.5385742</ele>
        <time>2009-10-11T08:17:33Z</time>
      </trkpt>
      <trkpt lat="43.34179" lon="2.71308">
        <ele>264.9805908</ele>
        <time>2009-10-11T08:17:39Z</time>
      </trkpt>
      <trkpt lat="43.34184" lon="2.71309">
        <ele>265.4613037</ele>
        <time>2009-10-11T08:17:43Z</time>
      </trkpt>
      <trkpt lat="43.34196" lon="2.7131">
        <ele>266.4224854</ele>
        <time>2009-10-11T08:17:52Z</time>
      </trkpt>
      <trkpt lat="43.34207" lon="2.7131">
        <ele>268.3450928</ele>
        <time>2009-10-11T08:18:00Z</time>
      </trkpt>
      <trkpt lat="43.34217" lon="2.71312">
        <ele>270.2677002</ele>
        <time>2009-10-11T08:18:08Z</time>
      </trkpt>
      <trkpt lat="43.34224" lon="2.71317">
        <ele>272.1904297</ele>
        <time>2009-10-11T08:18:15Z</time>
      </trkpt>
      <trkpt lat="43.34231" lon="2.71323">
        <ele>273.6324463</ele>
        <time>2009-10-11T08:18:22Z</time>
      </trkpt>
      <trkpt lat="43.34242" lon="2.71328">
        <ele>274.1130371</ele>
        <time>2009-10-11T08:18:30Z</time>
      </trkpt>
      <trkpt lat="43.34257" lon="2.71334">
        <ele>275.0744629</ele>
        <time>2009-10-11T08:18:39Z</time>
      </trkpt>
      <trkpt lat="43.34269" lon="2.71338">
        <ele>275.0744629</ele>
        <time>2009-10-11T08:18:47Z</time>
      </trkpt>
      <trkpt lat="43.34277" lon="2.7133">
        <ele>274.59375</ele>
        <time>2009-10-11T08:18:54Z</time>
      </trkpt>
      <trkpt lat="43.34284" lon="2.71315">
        <ele>274.59375</ele>
        <time>2009-10-11T08:19:02Z</time>
      </trkpt>
      <trkpt lat="43.34287" lon="2.71294">
        <ele>276.5163574</ele>
        <time>2009-10-11T08:19:11Z</time>
      </trkpt>
      <trkpt lat="43.34288" lon="2.71292">
        <ele>276.5163574</ele>
        <time>2009-10-11T08:19:12Z</time>
      </trkpt>
      <trkpt lat="43.34295" lon="2.71286">
        <ele>276.9970703</ele>
        <time>2009-10-11T08:19:16Z</time>
      </trkpt>
      <trkpt lat="43.34312" lon="2.71277">
        <ele>275.0744629</ele>
        <time>2009-10-11T08:19:26Z</time>
      </trkpt>
      <trkpt lat="43.34327" lon="2.7126">
        <ele>274.59375</ele>
        <time>2009-10-11T08:19:36Z</time>
      </trkpt>
      <trkpt lat="43.34339" lon="2.7125">
        <ele>276.5163574</ele>
        <time>2009-10-11T08:19:44Z</time>
      </trkpt>
      <trkpt lat="43.34352" lon="2.71239">
        <ele>277.958252</ele>
        <time>2009-10-11T08:19:52Z</time>
      </trkpt>
      <trkpt lat="43.34366" lon="2.71227">
        <ele>278.9196777</ele>
        <time>2009-10-11T08:20:01Z</time>
      </trkpt>
      <trkpt lat="43.34379" lon="2.71214">
        <ele>280.3616943</ele>
        <time>2009-10-11T08:20:10Z</time>
      </trkpt>
      <trkpt lat="43.34388" lon="2.71203">
        <ele>281.322998</ele>
        <time>2009-10-11T08:20:18Z</time>
      </trkpt>
      <trkpt lat="43.34398" lon="2.71198">
        <ele>280.3616943</ele>
        <time>2009-10-11T08:20:23Z</time>
      </trkpt>
      <trkpt lat="43.34418" lon="2.71194">
        <ele>279.4002686</ele>
        <time>2009-10-11T08:20:30Z</time>
      </trkpt>
      <trkpt lat="43.34428" lon="2.71193">
        <ele>277.958252</ele>
        <time>2009-10-11T08:20:35Z</time>
      </trkpt>
      <trkpt lat="43.34435" lon="2.71186">
        <ele>275.0744629</ele>
        <time>2009-10-11T08:20:40Z</time>
      </trkpt>
      <trkpt lat="43.34438" lon="2.71168">
        <ele>273.6324463</ele>
        <time>2009-10-11T08:20:44Z</time>
      </trkpt>
      <trkpt lat="43.34437" lon="2.71151">
        <ele>273.1518555</ele>
        <time>2009-10-11T08:20:50Z</time>
      </trkpt>
      <trkpt lat="43.34434" lon="2.71126">
        <ele>272.1904297</ele>
        <time>2009-10-11T08:21:00Z</time>
      </trkpt>
      <trkpt lat="43.34436" lon="2.71109">
        <ele>273.1518555</ele>
        <time>2009-10-11T08:21:06Z</time>
      </trkpt>
      <trkpt lat="43.3444" lon="2.711">
        <ele>273.1518555</ele>
        <time>2009-10-11T08:21:10Z</time>
      </trkpt>
      <trkpt lat="43.34444" lon="2.71091">
        <ele>272.6711426</ele>
        <time>2009-10-11T08:21:15Z</time>
      </trkpt>
      <trkpt lat="43.34456" lon="2.71068">
        <ele>272.1904297</ele>
        <time>2009-10-11T08:21:22Z</time>
      </trkpt>
      <trkpt lat="43.34466" lon="2.71046">
        <ele>272.1904297</ele>
        <time>2009-10-11T08:21:29Z</time>
      </trkpt>
      <trkpt lat="43.34478" lon="2.71011">
        <ele>271.229126</ele>
        <time>2009-10-11T08:21:38Z</time>
      </trkpt>
      <trkpt lat="43.34485" lon="2.70994">
        <ele>271.7097168</ele>
        <time>2009-10-11T08:21:44Z</time>
      </trkpt>
      <trkpt lat="43.34486" lon="2.70979">
        <ele>273.6324463</ele>
        <time>2009-10-11T08:21:50Z</time>
      </trkpt>
      <trkpt lat="43.34477" lon="2.70968">
        <ele>276.5163574</ele>
        <time>2009-10-11T08:21:57Z</time>
      </trkpt>
      <trkpt lat="43.34464" lon="2.70956">
        <ele>277.958252</ele>
        <time>2009-10-11T08:22:04Z</time>
      </trkpt>
      <trkpt lat="43.3445" lon="2.70944">
        <ele>277.958252</ele>
        <time>2009-10-11T08:22:11Z</time>
      </trkpt>
      <trkpt lat="43.34428" lon="2.70926">
        <ele>276.9970703</ele>
        <time>2009-10-11T08:22:20Z</time>
      </trkpt>
      <trkpt lat="43.34417" lon="2.70917">
        <ele>275.5550537</ele>
        <time>2009-10-11T08:22:24Z</time>
      </trkpt>
      <trkpt lat="43.34416" lon="2.70893">
        <ele>273.1518555</ele>
        <time>2009-10-11T08:22:29Z</time>
      </trkpt>
      <trkpt lat="43.34423" lon="2.70871">
        <ele>272.1904297</ele>
        <time>2009-10-11T08:22:34Z</time>
      </trkpt>
      <trkpt lat="43.34422" lon="2.70849">
        <ele>270.7484131</ele>
        <time>2009-10-11T08:22:39Z</time>
      </trkpt>
      <trkpt lat="43.34416" lon="2.70824">
        <ele>267.3839111</ele>
        <time>2009-10-11T08:22:44Z</time>
      </trkpt>
      <trkpt lat="43.34399" lon="2.70796">
        <ele>263.0578613</ele>
        <time>2009-10-11T08:22:49Z</time>
      </trkpt>
      <trkpt lat="43.34375" lon="2.70764">
        <ele>261.1352539</ele>
        <time>2009-10-11T08:22:55Z</time>
      </trkpt>
      <trkpt lat="43.34367" lon="2.7074">
        <ele>259.2126465</ele>
        <time>2009-10-11T08:23:00Z</time>
      </trkpt>
      <trkpt lat="43.34366" lon="2.70734">
        <ele>258.7319336</ele>
        <time>2009-10-11T08:23:08Z</time>
      </trkpt>
      <trkpt lat="43.34367" lon="2.70735">
        <ele>259.2126465</ele>
        <time>2009-10-11T08:23:16Z</time>
      </trkpt>
      <trkpt lat="43.34368" lon="2.70735">
        <ele>256.8093262</ele>
        <time>2009-10-11T08:24:10Z</time>
      </trkpt>
      <trkpt lat="43.3437" lon="2.7073">
        <ele>257.2900391</ele>
        <time>2009-10-11T08:24:14Z</time>
      </trkpt>
      <trkpt lat="43.34376" lon="2.70723">
        <ele>258.2513428</ele>
        <time>2009-10-11T08:24:18Z</time>
      </trkpt>
      <trkpt lat="43.3439" lon="2.70708">
        <ele>260.654541</ele>
        <time>2009-10-11T08:24:27Z</time>
      </trkpt>
      <trkpt lat="43.34402" lon="2.70691">
        <ele>263.5385742</ele>
        <time>2009-10-11T08:24:36Z</time>
      </trkpt>
      <trkpt lat="43.34407" lon="2.70681">
        <ele>265.9418945</ele>
        <time>2009-10-11T08:24:42Z</time>
      </trkpt>
      <trkpt lat="43.34419" lon="2.70664">
        <ele>267.3839111</ele>
        <time>2009-10-11T08:24:51Z</time>
      </trkpt>
      <trkpt lat="43.34431" lon="2.7064">
        <ele>264.4998779</ele>
        <time>2009-10-11T08:25:00Z</time>
      </trkpt>
      <trkpt lat="43.34438" lon="2.70616">
        <ele>263.0578613</ele>
        <time>2009-10-11T08:25:06Z</time>
      </trkpt>
      <trkpt lat="43.34438" lon="2.70595">
        <ele>262.5771484</ele>
        <time>2009-10-11T08:25:10Z</time>
      </trkpt>
      <trkpt lat="43.34442" lon="2.7058">
        <ele>262.0965576</ele>
        <time>2009-10-11T08:25:15Z</time>
      </trkpt>
      <trkpt lat="43.34443" lon="2.70579">
        <ele>262.0965576</ele>
        <time>2009-10-11T08:25:16Z</time>
      </trkpt>
      <trkpt lat="43.34454" lon="2.70571">
        <ele>262.0965576</ele>
        <time>2009-10-11T08:25:23Z</time>
      </trkpt>
      <trkpt lat="43.34469" lon="2.70562">
        <ele>264.0192871</ele>
        <time>2009-10-11T08:25:32Z</time>
      </trkpt>
      <trkpt lat="43.3448" lon="2.70548">
        <ele>265.4613037</ele>
        <time>2009-10-11T08:25:40Z</time>
      </trkpt>
      <trkpt lat="43.34493" lon="2.70524">
        <ele>267.3839111</ele>
        <time>2009-10-11T08:25:52Z</time>
      </trkpt>
      <trkpt lat="43.34496" lon="2.70507">
        <ele>268.8258057</ele>
        <time>2009-10-11T08:26:00Z</time>
      </trkpt>
      <trkpt lat="43.34495" lon="2.70492">
        <ele>271.229126</ele>
        <time>2009-10-11T08:26:07Z</time>
      </trkpt>
      <trkpt lat="43.34495" lon="2.70473">
        <ele>274.1130371</ele>
        <time>2009-10-11T08:26:16Z</time>
      </trkpt>
      <trkpt lat="43.34495" lon="2.70454">
        <ele>277.4776611</ele>
        <time>2009-10-11T08:26:25Z</time>
      </trkpt>
      <trkpt lat="43.34495" lon="2.70432">
        <ele>278.9196777</ele>
        <time>2009-10-11T08:26:35Z</time>
      </trkpt>
      <trkpt lat="43.34501" lon="2.70414">
        <ele>279.4002686</ele>
        <time>2009-10-11T08:26:44Z</time>
      </trkpt>
      <trkpt lat="43.34509" lon="2.70394">
        <ele>279.8808594</ele>
        <time>2009-10-11T08:26:54Z</time>
      </trkpt>
      <trkpt lat="43.34512" lon="2.70384">
        <ele>279.8808594</ele>
        <time>2009-10-11T08:26:59Z</time>
      </trkpt>
      <trkpt lat="43.34516" lon="2.70382">
        <ele>280.8424072</ele>
        <time>2009-10-11T08:27:03Z</time>
      </trkpt>
      <trkpt lat="43.34535" lon="2.7038">
        <ele>279.8808594</ele>
        <time>2009-10-11T08:27:12Z</time>
      </trkpt>
      <trkpt lat="43.34556" lon="2.70379">
        <ele>279.4002686</ele>
        <time>2009-10-11T08:27:20Z</time>
      </trkpt>
      <trkpt lat="43.34571" lon="2.70377">
        <ele>279.4002686</ele>
        <time>2009-10-11T08:27:26Z</time>
      </trkpt>
      <trkpt lat="43.34595" lon="2.70372">
        <ele>278.4389648</ele>
        <time>2009-10-11T08:27:35Z</time>
      </trkpt>
      <trkpt lat="43.34618" lon="2.70359">
        <ele>278.9196777</ele>
        <time>2009-10-11T08:27:44Z</time>
      </trkpt>
      <trkpt lat="43.3464" lon="2.70345">
        <ele>278.9196777</ele>
        <time>2009-10-11T08:27:54Z</time>
      </trkpt>
      <trkpt lat="43.34661" lon="2.70338">
        <ele>278.9196777</ele>
        <time>2009-10-11T08:28:03Z</time>
      </trkpt>
      <trkpt lat="43.34688" lon="2.70328">
        <ele>278.9196777</ele>
        <time>2009-10-11T08:28:13Z</time>
      </trkpt>
      <trkpt lat="43.34702" lon="2.70325">
        <ele>279.4002686</ele>
        <time>2009-10-11T08:28:19Z</time>
      </trkpt>
      <trkpt lat="43.34725" lon="2.70323">
        <ele>280.3616943</ele>
        <time>2009-10-11T08:28:26Z</time>
      </trkpt>
      <trkpt lat="43.34752" lon="2.70317">
        <ele>279.8808594</ele>
        <time>2009-10-11T08:28:34Z</time>
      </trkpt>
      <trkpt lat="43.34776" lon="2.70302">
        <ele>279.8808594</ele>
        <time>2009-10-11T08:28:42Z</time>
      </trkpt>
      <trkpt lat="43.34798" lon="2.70297">
        <ele>279.8808594</ele>
        <time>2009-10-11T08:28:49Z</time>
      </trkpt>
      <trkpt lat="43.34811" lon="2.70297">
        <ele>281.322998</ele>
        <time>2009-10-11T08:28:55Z</time>
      </trkpt>
      <trkpt lat="43.34827" lon="2.70297">
        <ele>281.8035889</ele>
        <time>2009-10-11T08:29:03Z</time>
      </trkpt>
      <trkpt lat="43.34841" lon="2.70296">
        <ele>283.2456055</ele>
        <time>2009-10-11T08:29:11Z</time>
      </trkpt>
      <trkpt lat="43.34848" lon="2.70286">
        <ele>284.6876221</ele>
        <time>2009-10-11T08:29:19Z</time>
      </trkpt>
      <trkpt lat="43.34853" lon="2.70273">
        <ele>287.0908203</ele>
        <time>2009-10-11T08:29:28Z</time>
      </trkpt>
      <trkpt lat="43.34858" lon="2.70261">
        <ele>290.9361572</ele>
        <time>2009-10-11T08:29:37Z</time>
      </trkpt>
      <trkpt lat="43.34859" lon="2.7026">
        <ele>291.416748</ele>
        <time>2009-10-11T08:29:38Z</time>
      </trkpt>
      <trkpt lat="43.34864" lon="2.70244">
        <ele>292.8587646</ele>
        <time>2009-10-11T08:29:49Z</time>
      </trkpt>
      <trkpt lat="43.34868" lon="2.70232">
        <ele>295.2619629</ele>
        <time>2009-10-11T08:29:58Z</time>
      </trkpt>
      <trkpt lat="43.34873" lon="2.70221">
        <ele>297.1846924</ele>
        <time>2009-10-11T08:30:06Z</time>
      </trkpt>
      <trkpt lat="43.34876" lon="2.70209">
        <ele>299.1072998</ele>
        <time>2009-10-11T08:30:16Z</time>
      </trkpt>
      <trkpt lat="43.34877" lon="2.70199">
        <ele>300.0687256</ele>
        <time>2009-10-11T08:30:23Z</time>
      </trkpt>
      <trkpt lat="43.34879" lon="2.70186">
        <ele>301.5106201</ele>
        <time>2009-10-11T08:30:32Z</time>
      </trkpt>
      <trkpt lat="43.34882" lon="2.70171">
        <ele>301.991333</ele>
        <time>2009-10-11T08:30:42Z</time>
      </trkpt>
      <trkpt lat="43.34886" lon="2.70155">
        <ele>301.991333</ele>
        <time>2009-10-11T08:30:53Z</time>
      </trkpt>
      <trkpt lat="43.3489" lon="2.7014">
        <ele>301.991333</ele>
        <time>2009-10-11T08:31:02Z</time>
      </trkpt>
      <trkpt lat="43.34891" lon="2.70124">
        <ele>302.4719238</ele>
        <time>2009-10-11T08:31:12Z</time>
      </trkpt>
      <trkpt lat="43.3489" lon="2.70116">
        <ele>302.4719238</ele>
        <time>2009-10-11T08:31:19Z</time>
      </trkpt>
      <trkpt lat="43.3489" lon="2.70114">
        <ele>302.4719238</ele>
        <time>2009-10-11T08:31:26Z</time>
      </trkpt>
      <trkpt lat="43.34888" lon="2.70113">
        <ele>300.0687256</ele>
        <time>2009-10-11T08:32:20Z</time>
      </trkpt>
      <trkpt lat="43.34887" lon="2.70109">
        <ele>300.5493164</ele>
        <time>2009-10-11T08:32:36Z</time>
      </trkpt>
      <trkpt lat="43.34887" lon="2.70108">
        <ele>299.1072998</ele>
        <time>2009-10-11T08:32:59Z</time>
      </trkpt>
      <trkpt lat="43.34885" lon="2.70104">
        <ele>298.1461182</ele>
        <time>2009-10-11T08:33:38Z</time>
      </trkpt>
      <trkpt lat="43.3488" lon="2.70094">
        <ele>297.6654053</ele>
        <time>2009-10-11T08:33:43Z</time>
      </trkpt>
      <trkpt lat="43.3487" lon="2.70067">
        <ele>296.7041016</ele>
        <time>2009-10-11T08:33:54Z</time>
      </trkpt>
      <trkpt lat="43.34857" lon="2.70036">
        <ele>296.2235107</ele>
        <time>2009-10-11T08:34:04Z</time>
      </trkpt>
      <trkpt lat="43.34852" lon="2.70018">
        <ele>295.7426758</ele>
        <time>2009-10-11T08:34:10Z</time>
      </trkpt>
      <trkpt lat="43.34853" lon="2.69996">
        <ele>295.7426758</ele>
        <time>2009-10-11T08:34:17Z</time>
      </trkpt>
      <trkpt lat="43.34849" lon="2.69978">
        <ele>296.2235107</ele>
        <time>2009-10-11T08:34:23Z</time>
      </trkpt>
      <trkpt lat="43.34845" lon="2.69956">
        <ele>298.626709</ele>
        <time>2009-10-11T08:34:32Z</time>
      </trkpt>
      <trkpt lat="43.34845" lon="2.69932">
        <ele>299.5880127</ele>
        <time>2009-10-11T08:34:41Z</time>
      </trkpt>
      <trkpt lat="43.34845" lon="2.69913">
        <ele>301.0299072</ele>
        <time>2009-10-11T08:34:49Z</time>
      </trkpt>
      <trkpt lat="43.34847" lon="2.69894">
        <ele>302.4719238</ele>
        <time>2009-10-11T08:34:57Z</time>
      </trkpt>
      <trkpt lat="43.34848" lon="2.69875">
        <ele>304.3946533</ele>
        <time>2009-10-11T08:35:05Z</time>
      </trkpt>
      <trkpt lat="43.34848" lon="2.6985">
        <ele>304.8752441</ele>
        <time>2009-10-11T08:35:14Z</time>
      </trkpt>
      <trkpt lat="43.34845" lon="2.69828">
        <ele>305.355957</ele>
        <time>2009-10-11T08:35:23Z</time>
      </trkpt>
      <trkpt lat="43.34845" lon="2.69806">
        <ele>305.8366699</ele>
        <time>2009-10-11T08:35:32Z</time>
      </trkpt>
      <trkpt lat="43.34846" lon="2.69787">
        <ele>307.2785645</ele>
        <time>2009-10-11T08:35:41Z</time>
      </trkpt>
      <trkpt lat="43.34851" lon="2.69773">
        <ele>308.2398682</ele>
        <time>2009-10-11T08:35:47Z</time>
      </trkpt>
      <trkpt lat="43.34859" lon="2.69758">
        <ele>310.1624756</ele>
        <time>2009-10-11T08:35:56Z</time>
      </trkpt>
      <trkpt lat="43.34868" lon="2.69743">
        <ele>312.5657959</ele>
        <time>2009-10-11T08:36:05Z</time>
      </trkpt>
      <trkpt lat="43.34874" lon="2.69726">
        <ele>313.0465088</ele>
        <time>2009-10-11T08:36:13Z</time>
      </trkpt>
      <trkpt lat="43.3487" lon="2.69709">
        <ele>313.0465088</ele>
        <time>2009-10-11T08:36:20Z</time>
      </trkpt>
      <trkpt lat="43.34864" lon="2.69692">
        <ele>312.5657959</ele>
        <time>2009-10-11T08:36:28Z</time>
      </trkpt>
      <trkpt lat="43.34867" lon="2.69682">
        <ele>313.0465088</ele>
        <time>2009-10-11T08:36:35Z</time>
      </trkpt>
      <trkpt lat="43.34878" lon="2.69665">
        <ele>314.4884033</ele>
        <time>2009-10-11T08:36:45Z</time>
      </trkpt>
      <trkpt lat="43.34887" lon="2.6965">
        <ele>316.4110107</ele>
        <time>2009-10-11T08:36:55Z</time>
      </trkpt>
      <trkpt lat="43.34893" lon="2.6964">
        <ele>317.3724365</ele>
        <time>2009-10-11T08:37:02Z</time>
      </trkpt>
      <trkpt lat="43.34901" lon="2.69628">
        <ele>318.3336182</ele>
        <time>2009-10-11T08:37:10Z</time>
      </trkpt>
      <trkpt lat="43.3491" lon="2.69613">
        <ele>320.2563477</ele>
        <time>2009-10-11T08:37:21Z</time>
      </trkpt>
      <trkpt lat="43.34918" lon="2.696">
        <ele>321.6983643</ele>
        <time>2009-10-11T08:37:30Z</time>
      </trkpt>
      <trkpt lat="43.34925" lon="2.69589">
        <ele>322.659668</ele>
        <time>2009-10-11T08:37:38Z</time>
      </trkpt>
      <trkpt lat="43.34933" lon="2.69577">
        <ele>323.1403809</ele>
        <time>2009-10-11T08:37:47Z</time>
      </trkpt>
      <trkpt lat="43.34941" lon="2.69564">
        <ele>324.1015625</ele>
        <time>2009-10-11T08:37:57Z</time>
      </trkpt>
      <trkpt lat="43.34948" lon="2.69553">
        <ele>325.0629883</ele>
        <time>2009-10-11T08:38:06Z</time>
      </trkpt>
      <trkpt lat="43.34954" lon="2.69542">
        <ele>326.0241699</ele>
        <time>2009-10-11T08:38:14Z</time>
      </trkpt>
      <trkpt lat="43.34961" lon="2.6953">
        <ele>327.4661865</ele>
        <time>2009-10-11T08:38:22Z</time>
      </trkpt>
      <trkpt lat="43.34968" lon="2.69519">
        <ele>328.9083252</ele>
        <time>2009-10-11T08:38:30Z</time>
      </trkpt>
      <trkpt lat="43.34975" lon="2.69509">
        <ele>329.8695068</ele>
        <time>2009-10-11T08:38:38Z</time>
      </trkpt>
      <trkpt lat="43.34982" lon="2.69497">
        <ele>331.7921143</ele>
        <time>2009-10-11T08:38:46Z</time>
      </trkpt>
      <trkpt lat="43.3499" lon="2.69485">
        <ele>332.75354</ele>
        <time>2009-10-11T08:38:55Z</time>
      </trkpt>
      <trkpt lat="43.34998" lon="2.69471">
        <ele>333.7147217</ele>
        <time>2009-10-11T08:39:05Z</time>
      </trkpt>
      <trkpt lat="43.35" lon="2.69465">
        <ele>334.1954346</ele>
        <time>2009-10-11T08:39:11Z</time>
      </trkpt>
      <trkpt lat="43.35" lon="2.69463">
        <ele>332.75354</ele>
        <time>2009-10-11T08:39:18Z</time>
      </trkpt>
      <trkpt lat="43.34999" lon="2.69463">
        <ele>331.3115234</ele>
        <time>2009-10-11T08:39:28Z</time>
      </trkpt>
      <trkpt lat="43.34997" lon="2.6946">
        <ele>331.3115234</ele>
        <time>2009-10-11T08:39:46Z</time>
      </trkpt>
      <trkpt lat="43.34994" lon="2.69457">
        <ele>331.3115234</ele>
        <time>2009-10-11T08:39:48Z</time>
      </trkpt>
      <trkpt lat="43.34989" lon="2.69452">
        <ele>331.7921143</ele>
        <time>2009-10-11T08:39:54Z</time>
      </trkpt>
      <trkpt lat="43.34986" lon="2.69453">
        <ele>332.2728271</ele>
        <time>2009-10-11T08:40:00Z</time>
      </trkpt>
      <trkpt lat="43.34983" lon="2.69449">
        <ele>332.2728271</ele>
        <time>2009-10-11T08:40:07Z</time>
      </trkpt>
      <trkpt lat="43.34981" lon="2.69445">
        <ele>331.7921143</ele>
        <time>2009-10-11T08:40:13Z</time>
      </trkpt>
      <trkpt lat="43.34979" lon="2.69438">
        <ele>333.2341309</ele>
        <time>2009-10-11T08:40:19Z</time>
      </trkpt>
      <trkpt lat="43.34981" lon="2.69432">
        <ele>334.6761475</ele>
        <time>2009-10-11T08:40:23Z</time>
      </trkpt>
      <trkpt lat="43.34988" lon="2.69422">
        <ele>336.598877</ele>
        <time>2009-10-11T08:40:31Z</time>
      </trkpt>
      <trkpt lat="43.34995" lon="2.69409">
        <ele>338.5214844</ele>
        <time>2009-10-11T08:40:40Z</time>
      </trkpt>
      <trkpt lat="43.35003" lon="2.69397">
        <ele>340.4440918</ele>
        <time>2009-10-11T08:40:49Z</time>
      </trkpt>
      <trkpt lat="43.35013" lon="2.69382">
        <ele>342.3666992</ele>
        <time>2009-10-11T08:41:00Z</time>
      </trkpt>
      <trkpt lat="43.35022" lon="2.69369">
        <ele>344.2894287</ele>
        <time>2009-10-11T08:41:10Z</time>
      </trkpt>
      <trkpt lat="43.35032" lon="2.69357">
        <ele>346.2120361</ele>
        <time>2009-10-11T08:41:20Z</time>
      </trkpt>
      <trkpt lat="43.3504" lon="2.69346">
        <ele>347.1732178</ele>
        <time>2009-10-11T08:41:29Z</time>
      </trkpt>
      <trkpt lat="43.35045" lon="2.69337">
        <ele>348.1346436</ele>
        <time>2009-10-11T08:41:36Z</time>
      </trkpt>
      <trkpt lat="43.35057" lon="2.69322">
        <ele>349.0958252</ele>
        <time>2009-10-11T08:41:48Z</time>
      </trkpt>
      <trkpt lat="43.35064" lon="2.69313">
        <ele>350.057251</ele>
        <time>2009-10-11T08:41:56Z</time>
      </trkpt>
      <trkpt lat="43.35071" lon="2.69305">
        <ele>351.4991455</ele>
        <time>2009-10-11T08:42:05Z</time>
      </trkpt>
      <trkpt lat="43.35078" lon="2.69297">
        <ele>353.421875</ele>
        <time>2009-10-11T08:42:13Z</time>
      </trkpt>
      <trkpt lat="43.35087" lon="2.69286">
        <ele>353.9025879</ele>
        <time>2009-10-11T08:42:22Z</time>
      </trkpt>
      <trkpt lat="43.35096" lon="2.69274">
        <ele>354.3831787</ele>
        <time>2009-10-11T08:42:31Z</time>
      </trkpt>
      <trkpt lat="43.35106" lon="2.69261">
        <ele>355.3444824</ele>
        <time>2009-10-11T08:42:41Z</time>
      </trkpt>
      <trkpt lat="43.35113" lon="2.69249">
        <ele>356.3057861</ele>
        <time>2009-10-11T08:42:49Z</time>
      </trkpt>
      <trkpt lat="43.35125" lon="2.69236">
        <ele>358.2283936</ele>
        <time>2009-10-11T08:43:00Z</time>
      </trkpt>
      <trkpt lat="43.35135" lon="2.69227">
        <ele>360.6317139</ele>
        <time>2009-10-11T08:43:09Z</time>
      </trkpt>
      <trkpt lat="43.35145" lon="2.69226">
        <ele>360.6317139</ele>
        <time>2009-10-11T08:43:17Z</time>
      </trkpt>
      <trkpt lat="43.35158" lon="2.69232">
        <ele>360.6317139</ele>
        <time>2009-10-11T08:43:23Z</time>
      </trkpt>
      <trkpt lat="43.35174" lon="2.69239">
        <ele>361.1124268</ele>
        <time>2009-10-11T08:43:31Z</time>
      </trkpt>
      <trkpt lat="43.3519" lon="2.69237">
        <ele>360.151123</ele>
        <time>2009-10-11T08:43:37Z</time>
      </trkpt>
      <trkpt lat="43.35202" lon="2.69228">
        <ele>360.151123</ele>
        <time>2009-10-11T08:43:43Z</time>
      </trkpt>
      <trkpt lat="43.35214" lon="2.69213">
        <ele>360.6317139</ele>
        <time>2009-10-11T08:43:52Z</time>
      </trkpt>
      <trkpt lat="43.35226" lon="2.69205">
        <ele>362.0737305</ele>
        <time>2009-10-11T08:44:00Z</time>
      </trkpt>
      <trkpt lat="43.35238" lon="2.69204">
        <ele>363.0350342</ele>
        <time>2009-10-11T08:44:07Z</time>
      </trkpt>
      <trkpt lat="43.3525" lon="2.69199">
        <ele>363.5157471</ele>
        <time>2009-10-11T08:44:15Z</time>
      </trkpt>
      <trkpt lat="43.35256" lon="2.6919">
        <ele>364.4769287</ele>
        <time>2009-10-11T08:44:21Z</time>
      </trkpt>
      <trkpt lat="43.35262" lon="2.69171">
        <ele>365.4383545</ele>
        <time>2009-10-11T08:44:31Z</time>
      </trkpt>
      <trkpt lat="43.35266" lon="2.69151">
        <ele>366.880249</ele>
        <time>2009-10-11T08:44:41Z</time>
      </trkpt>
      <trkpt lat="43.35268" lon="2.69135">
        <ele>367.8415527</ele>
        <time>2009-10-11T08:44:49Z</time>
      </trkpt>
      <trkpt lat="43.3527" lon="2.69121">
        <ele>368.3222656</ele>
        <time>2009-10-11T08:44:56Z</time>
      </trkpt>
      <trkpt lat="43.35273" lon="2.69102">
        <ele>369.7642822</ele>
        <time>2009-10-11T08:45:05Z</time>
      </trkpt>
      <trkpt lat="43.35274" lon="2.6908">
        <ele>369.7642822</ele>
        <time>2009-10-11T08:45:14Z</time>
      </trkpt>
      <trkpt lat="43.35273" lon="2.69065">
        <ele>369.2836914</ele>
        <time>2009-10-11T08:45:20Z</time>
      </trkpt>
      <trkpt lat="43.35272" lon="2.69048">
        <ele>370.244873</ele>
        <time>2009-10-11T08:45:26Z</time>
      </trkpt>
      <trkpt lat="43.35271" lon="2.69027">
        <ele>370.7255859</ele>
        <time>2009-10-11T08:45:35Z</time>
      </trkpt>
      <trkpt lat="43.35263" lon="2.69008">
        <ele>369.7642822</ele>
        <time>2009-10-11T08:45:43Z</time>
      </trkpt>
      <trkpt lat="43.35252" lon="2.68985">
        <ele>369.2836914</ele>
        <time>2009-10-11T08:45:53Z</time>
      </trkpt>
      <trkpt lat="43.35243" lon="2.68964">
        <ele>369.2836914</ele>
        <time>2009-10-11T08:46:03Z</time>
      </trkpt>
      <trkpt lat="43.35238" lon="2.68957">
        <ele>368.8029785</ele>
        <time>2009-10-11T08:46:12Z</time>
      </trkpt>
      <trkpt lat="43.35237" lon="2.68957">
        <ele>368.3222656</ele>
        <time>2009-10-11T08:46:18Z</time>
      </trkpt>
      <trkpt lat="43.35237" lon="2.68958">
        <ele>368.8029785</ele>
        <time>2009-10-11T08:46:31Z</time>
      </trkpt>
      <trkpt lat="43.35237" lon="2.68958">
        <ele>371.2062988</ele>
        <time>2009-10-11T08:47:20Z</time>
      </trkpt>
      <trkpt lat="43.35237" lon="2.68958">
        <ele>371.2062988</ele>
        <time>2009-10-11T08:47:37Z</time>
      </trkpt>
      <trkpt lat="43.35237" lon="2.68958">
        <ele>369.7642822</ele>
        <time>2009-10-11T08:47:49Z</time>
      </trkpt>
      <trkpt lat="43.35236" lon="2.68958">
        <ele>370.7255859</ele>
        <time>2009-10-11T08:48:22Z</time>
      </trkpt>
      <trkpt lat="43.35236" lon="2.68958">
        <ele>370.244873</ele>
        <time>2009-10-11T08:48:25Z</time>
      </trkpt>
      <trkpt lat="43.35238" lon="2.68957">
        <ele>369.2836914</ele>
        <time>2009-10-11T08:48:44Z</time>
      </trkpt>
      <trkpt lat="43.35233" lon="2.68953">
        <ele>369.2836914</ele>
        <time>2009-10-11T08:48:53Z</time>
      </trkpt>
      <trkpt lat="43.35219" lon="2.68938">
        <ele>370.244873</ele>
        <time>2009-10-11T08:49:02Z</time>
      </trkpt>
      <trkpt lat="43.35208" lon="2.68921">
        <ele>370.244873</ele>
        <time>2009-10-11T08:49:10Z</time>
      </trkpt>
      <trkpt lat="43.35202" lon="2.68905">
        <ele>371.2062988</ele>
        <time>2009-10-11T08:49:17Z</time>
      </trkpt>
      <trkpt lat="43.35201" lon="2.68881">
        <ele>371.2062988</ele>
        <time>2009-10-11T08:49:25Z</time>
      </trkpt>
      <trkpt lat="43.352" lon="2.68851">
        <ele>371.2062988</ele>
        <time>2009-10-11T08:49:33Z</time>
      </trkpt>
      <trkpt lat="43.35193" lon="2.68818">
        <ele>371.2062988</ele>
        <time>2009-10-11T08:49:41Z</time>
      </trkpt>
      <trkpt lat="43.35189" lon="2.68796">
        <ele>370.7255859</ele>
        <time>2009-10-11T08:49:49Z</time>
      </trkpt>
      <trkpt lat="43.35188" lon="2.68793">
        <ele>369.7642822</ele>
        <time>2009-10-11T08:49:53Z</time>
      </trkpt>
      <trkpt lat="43.35188" lon="2.68791">
        <ele>369.7642822</ele>
        <time>2009-10-11T08:50:13Z</time>
      </trkpt>
      <trkpt lat="43.35181" lon="2.68775">
        <ele>369.2836914</ele>
        <time>2009-10-11T08:50:18Z</time>
      </trkpt>
      <trkpt lat="43.35165" lon="2.68753">
        <ele>367.3609619</ele>
        <time>2009-10-11T08:50:24Z</time>
      </trkpt>
      <trkpt lat="43.35144" lon="2.6875">
        <ele>367.3609619</ele>
        <time>2009-10-11T08:50:29Z</time>
      </trkpt>
      <trkpt lat="43.35113" lon="2.6877">
        <ele>368.8029785</ele>
        <time>2009-10-11T08:50:37Z</time>
      </trkpt>
      <trkpt lat="43.35087" lon="2.68788">
        <ele>368.8029785</ele>
        <time>2009-10-11T08:50:45Z</time>
      </trkpt>
      <trkpt lat="43.35072" lon="2.68793">
        <ele>367.8415527</ele>
        <time>2009-10-11T08:50:49Z</time>
      </trkpt>
      <trkpt lat="43.35067" lon="2.68792">
        <ele>367.8415527</ele>
        <time>2009-10-11T08:50:51Z</time>
      </trkpt>
      <trkpt lat="43.35057" lon="2.68778">
        <ele>366.880249</ele>
        <time>2009-10-11T08:50:57Z</time>
      </trkpt>
      <trkpt lat="43.3504" lon="2.68766">
        <ele>365.9189453</ele>
        <time>2009-10-11T08:51:03Z</time>
      </trkpt>
      <trkpt lat="43.35017" lon="2.68759">
        <ele>364.9576416</ele>
        <time>2009-10-11T08:51:09Z</time>
      </trkpt>
      <trkpt lat="43.34999" lon="2.68766">
        <ele>364.4769287</ele>
        <time>2009-10-11T08:51:13Z</time>
      </trkpt>
      <trkpt lat="43.34973" lon="2.68772">
        <ele>365.4383545</ele>
        <time>2009-10-11T08:51:18Z</time>
      </trkpt>
      <trkpt lat="43.3496" lon="2.68772">
        <ele>365.9189453</ele>
        <time>2009-10-11T08:51:22Z</time>
      </trkpt>
      <trkpt lat="43.34935" lon="2.68763">
        <ele>364.9576416</ele>
        <time>2009-10-11T08:51:29Z</time>
      </trkpt>
      <trkpt lat="43.34917" lon="2.68759">
        <ele>363.9963379</ele>
        <time>2009-10-11T08:51:34Z</time>
      </trkpt>
      <trkpt lat="43.34897" lon="2.68759">
        <ele>364.4769287</ele>
        <time>2009-10-11T08:51:40Z</time>
      </trkpt>
      <trkpt lat="43.34892" lon="2.68761">
        <ele>364.4769287</ele>
        <time>2009-10-11T08:51:42Z</time>
      </trkpt>
      <trkpt lat="43.3489" lon="2.68763">
        <ele>364.4769287</ele>
        <time>2009-10-11T08:51:49Z</time>
      </trkpt>
      <trkpt lat="43.34888" lon="2.68765">
        <ele>360.6317139</ele>
        <time>2009-10-11T08:52:04Z</time>
      </trkpt>
      <trkpt lat="43.34887" lon="2.68765">
        <ele>360.151123</ele>
        <time>2009-10-11T08:52:05Z</time>
      </trkpt>
      <trkpt lat="43.34875" lon="2.68764">
        <ele>359.1896973</ele>
        <time>2009-10-11T08:52:12Z</time>
      </trkpt>
      <trkpt lat="43.34875" lon="2.68762">
        <ele>358.7089844</ele>
        <time>2009-10-11T08:52:18Z</time>
      </trkpt>
      <trkpt lat="43.34873" lon="2.6876">
        <ele>359.1896973</ele>
        <time>2009-10-11T08:52:27Z</time>
      </trkpt>
      <trkpt lat="43.34861" lon="2.68765">
        <ele>359.6704102</ele>
        <time>2009-10-11T08:52:35Z</time>
      </trkpt>
      <trkpt lat="43.34858" lon="2.68765">
        <ele>359.1896973</ele>
        <time>2009-10-11T08:52:41Z</time>
      </trkpt>
      <trkpt lat="43.34852" lon="2.68764">
        <ele>358.7089844</ele>
        <time>2009-10-11T08:52:46Z</time>
      </trkpt>
      <trkpt lat="43.34833" lon="2.68764">
        <ele>357.7478027</ele>
        <time>2009-10-11T08:52:53Z</time>
      </trkpt>
      <trkpt lat="43.34812" lon="2.68766">
        <ele>358.2283936</ele>
        <time>2009-10-11T08:53:00Z</time>
      </trkpt>
      <trkpt lat="43.34803" lon="2.6877">
        <ele>357.7478027</ele>
        <time>2009-10-11T08:53:05Z</time>
      </trkpt>
      <trkpt lat="43.34797" lon="2.68774">
        <ele>356.3057861</ele>
        <time>2009-10-11T08:53:10Z</time>
      </trkpt>
      <trkpt lat="43.34789" lon="2.68769">
        <ele>357.2670898</ele>
        <time>2009-10-11T08:53:18Z</time>
      </trkpt>
      <trkpt lat="43.3478" lon="2.68767">
        <ele>356.786377</ele>
        <time>2009-10-11T08:53:21Z</time>
      </trkpt>
      <trkpt lat="43.34761" lon="2.68771">
        <ele>356.3057861</ele>
        <time>2009-10-11T08:53:27Z</time>
      </trkpt>
      <trkpt lat="43.34741" lon="2.68769">
        <ele>353.9025879</ele>
        <time>2009-10-11T08:53:34Z</time>
      </trkpt>
      <trkpt lat="43.34729" lon="2.68768">
        <ele>351.4991455</ele>
        <time>2009-10-11T08:53:39Z</time>
      </trkpt>
      <trkpt lat="43.34714" lon="2.68766">
        <ele>349.5765381</ele>
        <time>2009-10-11T08:53:45Z</time>
      </trkpt>
      <trkpt lat="43.34709" lon="2.68764">
        <ele>349.0958252</ele>
        <time>2009-10-11T08:53:49Z</time>
      </trkpt>
      <trkpt lat="43.34699" lon="2.68757">
        <ele>347.6539307</ele>
        <time>2009-10-11T08:53:53Z</time>
      </trkpt>
      <trkpt lat="43.34691" lon="2.68736">
        <ele>345.7313232</ele>
        <time>2009-10-11T08:53:58Z</time>
      </trkpt>
      <trkpt lat="43.34688" lon="2.68726">
        <ele>344.7700195</ele>
        <time>2009-10-11T08:54:01Z</time>
      </trkpt>
      <trkpt lat="43.34681" lon="2.68724">
        <ele>344.2894287</ele>
        <time>2009-10-11T08:54:05Z</time>
      </trkpt>
      <trkpt lat="43.34667" lon="2.68726">
        <ele>343.3278809</ele>
        <time>2009-10-11T08:54:11Z</time>
      </trkpt>
      <trkpt lat="43.34655" lon="2.68726">
        <ele>341.4052734</ele>
        <time>2009-10-11T08:54:17Z</time>
      </trkpt>
      <trkpt lat="43.34645" lon="2.68722">
        <ele>340.4440918</ele>
        <time>2009-10-11T08:54:23Z</time>
      </trkpt>
      <trkpt lat="43.34635" lon="2.68713">
        <ele>339.0020752</ele>
        <time>2009-10-11T08:54:29Z</time>
      </trkpt>
      <trkpt lat="43.34625" lon="2.68719">
        <ele>339.482666</ele>
        <time>2009-10-11T08:54:33Z</time>
      </trkpt>
      <trkpt lat="43.34619" lon="2.68723">
        <ele>339.0020752</ele>
        <time>2009-10-11T08:54:38Z</time>
      </trkpt>
      <trkpt lat="43.34617" lon="2.68724">
        <ele>339.0020752</ele>
        <time>2009-10-11T08:54:40Z</time>
      </trkpt>
      <trkpt lat="43.34615" lon="2.68725">
        <ele>338.5214844</ele>
        <time>2009-10-11T08:54:47Z</time>
      </trkpt>
      <trkpt lat="43.34614" lon="2.68724">
        <ele>338.0407715</ele>
        <time>2009-10-11T08:54:56Z</time>
      </trkpt>
      <trkpt lat="43.34609" lon="2.68726">
        <ele>337.0794678</ele>
        <time>2009-10-11T08:55:03Z</time>
      </trkpt>
      <trkpt lat="43.34608" lon="2.68726">
        <ele>336.598877</ele>
        <time>2009-10-11T08:55:10Z</time>
      </trkpt>
      <trkpt lat="43.34604" lon="2.68728">
        <ele>336.598877</ele>
        <time>2009-10-11T08:55:17Z</time>
      </trkpt>
      <trkpt lat="43.34598" lon="2.68731">
        <ele>336.598877</ele>
        <time>2009-10-11T08:55:24Z</time>
      </trkpt>
      <trkpt lat="43.34594" lon="2.68732">
        <ele>336.1181641</ele>
        <time>2009-10-11T08:55:27Z</time>
      </trkpt>
      <trkpt lat="43.34586" lon="2.68736">
        <ele>335.1567383</ele>
        <time>2009-10-11T08:55:33Z</time>
      </trkpt>
      <trkpt lat="43.34578" lon="2.68742">
        <ele>334.6761475</ele>
        <time>2009-10-11T08:55:40Z</time>
      </trkpt>
      <trkpt lat="43.34575" lon="2.68744">
        <ele>334.6761475</ele>
        <time>2009-10-11T08:55:43Z</time>
      </trkpt>
      <trkpt lat="43.34567" lon="2.68752">
        <ele>333.2341309</ele>
        <time>2009-10-11T08:55:49Z</time>
      </trkpt>
      <trkpt lat="43.34565" lon="2.68755">
        <ele>333.2341309</ele>
        <time>2009-10-11T08:55:50Z</time>
      </trkpt>
      <trkpt lat="43.34556" lon="2.68767">
        <ele>332.75354</ele>
        <time>2009-10-11T08:55:55Z</time>
      </trkpt>
      <trkpt lat="43.34552" lon="2.68777">
        <ele>332.2728271</ele>
        <time>2009-10-11T08:56:00Z</time>
      </trkpt>
      <trkpt lat="43.34544" lon="2.68792">
        <ele>330.3502197</ele>
        <time>2009-10-11T08:56:06Z</time>
      </trkpt>
      <trkpt lat="43.3453" lon="2.68799">
        <ele>328.9083252</ele>
        <time>2009-10-11T08:56:10Z</time>
      </trkpt>
      <trkpt lat="43.34521" lon="2.68795">
        <ele>328.4276123</ele>
        <time>2009-10-11T08:56:14Z</time>
      </trkpt>
      <trkpt lat="43.34524" lon="2.6878">
        <ele>327.9467773</ele>
        <time>2009-10-11T08:56:18Z</time>
      </trkpt>
      <trkpt lat="43.34526" lon="2.68777">
        <ele>327.9467773</ele>
        <time>2009-10-11T08:56:19Z</time>
      </trkpt>
      <trkpt lat="43.34533" lon="2.6875">
        <ele>326.9855957</ele>
        <time>2009-10-11T08:56:25Z</time>
      </trkpt>
      <trkpt lat="43.34526" lon="2.68733">
        <ele>327.4661865</ele>
        <time>2009-10-11T08:56:30Z</time>
      </trkpt>
      <trkpt lat="43.34524" lon="2.68723">
        <ele>326.9855957</ele>
        <time>2009-10-11T08:56:34Z</time>
      </trkpt>
      <trkpt lat="43.34516" lon="2.68719">
        <ele>328.4276123</ele>
        <time>2009-10-11T08:56:39Z</time>
      </trkpt>
      <trkpt lat="43.34505" lon="2.68718">
        <ele>330.8309326</ele>
        <time>2009-10-11T08:56:47Z</time>
      </trkpt>
      <trkpt lat="43.34496" lon="2.68717">
        <ele>331.7921143</ele>
        <time>2009-10-11T08:56:54Z</time>
      </trkpt>
      <trkpt lat="43.34482" lon="2.68712">
        <ele>332.75354</ele>
        <time>2009-10-11T08:57:03Z</time>
      </trkpt>
      <trkpt lat="43.34468" lon="2.68699">
        <ele>333.7147217</ele>
        <time>2009-10-11T08:57:12Z</time>
      </trkpt>
      <trkpt lat="43.3447" lon="2.68692">
        <ele>334.1954346</ele>
        <time>2009-10-11T08:57:17Z</time>
      </trkpt>
      <trkpt lat="43.34476" lon="2.68696">
        <ele>336.1181641</ele>
        <time>2009-10-11T08:57:23Z</time>
      </trkpt>
      <trkpt lat="43.34479" lon="2.68696">
        <ele>336.1181641</ele>
        <time>2009-10-11T08:57:25Z</time>
      </trkpt>
      <trkpt lat="43.34493" lon="2.68693">
        <ele>337.0794678</ele>
        <time>2009-10-11T08:57:35Z</time>
      </trkpt>
      <trkpt lat="43.34503" lon="2.68683">
        <ele>338.5214844</ele>
        <time>2009-10-11T08:57:43Z</time>
      </trkpt>
      <trkpt lat="43.34509" lon="2.68671">
        <ele>340.4440918</ele>
        <time>2009-10-11T08:57:50Z</time>
      </trkpt>
      <trkpt lat="43.3451" lon="2.68662">
        <ele>342.3666992</ele>
        <time>2009-10-11T08:57:56Z</time>
      </trkpt>
      <trkpt lat="43.34508" lon="2.68645">
        <ele>343.8085938</ele>
        <time>2009-10-11T08:58:05Z</time>
      </trkpt>
      <trkpt lat="43.34507" lon="2.68621">
        <ele>344.7700195</ele>
        <time>2009-10-11T08:58:16Z</time>
      </trkpt>
      <trkpt lat="43.34508" lon="2.686">
        <ele>345.7313232</ele>
        <time>2009-10-11T08:58:24Z</time>
      </trkpt>
      <trkpt lat="43.34509" lon="2.68583">
        <ele>346.692627</ele>
        <time>2009-10-11T08:58:31Z</time>
      </trkpt>
      <trkpt lat="43.3451" lon="2.68554">
        <ele>345.7313232</ele>
        <time>2009-10-11T08:58:41Z</time>
      </trkpt>
      <trkpt lat="43.34509" lon="2.68523">
        <ele>344.2894287</ele>
        <time>2009-10-11T08:58:50Z</time>
      </trkpt>
      <trkpt lat="43.34507" lon="2.68492">
        <ele>345.2506104</ele>
        <time>2009-10-11T08:58:59Z</time>
      </trkpt>
      <trkpt lat="43.34507" lon="2.68485">
        <ele>345.2506104</ele>
        <time>2009-10-11T08:59:05Z</time>
      </trkpt>
      <trkpt lat="43.34506" lon="2.68484">
        <ele>345.2506104</ele>
        <time>2009-10-11T08:59:06Z</time>
      </trkpt>
      <trkpt lat="43.34501" lon="2.68479">
        <ele>343.8085938</ele>
        <time>2009-10-11T08:59:10Z</time>
      </trkpt>
      <trkpt lat="43.34476" lon="2.68477">
        <ele>340.9246826</ele>
        <time>2009-10-11T08:59:18Z</time>
      </trkpt>
      <trkpt lat="43.34456" lon="2.68473">
        <ele>339.0020752</ele>
        <time>2009-10-11T08:59:24Z</time>
      </trkpt>
      <trkpt lat="43.34454" lon="2.68456">
        <ele>338.5214844</ele>
        <time>2009-10-11T08:59:29Z</time>
      </trkpt>
      <trkpt lat="43.34455" lon="2.68454">
        <ele>338.5214844</ele>
        <time>2009-10-11T08:59:30Z</time>
      </trkpt>
      <trkpt lat="43.34462" lon="2.68426">
        <ele>338.5214844</ele>
        <time>2009-10-11T08:59:38Z</time>
      </trkpt>
      <trkpt lat="43.34471" lon="2.68409">
        <ele>339.9633789</ele>
        <time>2009-10-11T08:59:44Z</time>
      </trkpt>
      <trkpt lat="43.34486" lon="2.68393">
        <ele>341.8859863</ele>
        <time>2009-10-11T08:59:53Z</time>
      </trkpt>
      <trkpt lat="43.34501" lon="2.68376">
        <ele>344.2894287</ele>
        <time>2009-10-11T09:00:02Z</time>
      </trkpt>
      <trkpt lat="43.34505" lon="2.68359">
        <ele>344.7700195</ele>
        <time>2009-10-11T09:00:07Z</time>
      </trkpt>
      <trkpt lat="43.34503" lon="2.68327">
        <ele>344.2894287</ele>
        <time>2009-10-11T09:00:15Z</time>
      </trkpt>
      <trkpt lat="43.34497" lon="2.68305">
        <ele>343.3278809</ele>
        <time>2009-10-11T09:00:20Z</time>
      </trkpt>
      <trkpt lat="43.34493" lon="2.68277">
        <ele>341.4052734</ele>
        <time>2009-10-11T09:00:24Z</time>
      </trkpt>
      <trkpt lat="43.3449" lon="2.68251">
        <ele>340.4440918</ele>
        <time>2009-10-11T09:00:27Z</time>
      </trkpt>
      <trkpt lat="43.34479" lon="2.68215">
        <ele>337.0794678</ele>
        <time>2009-10-11T09:00:32Z</time>
      </trkpt>
      <trkpt lat="43.34477" lon="2.68209">
        <ele>336.598877</ele>
        <time>2009-10-11T09:00:33Z</time>
      </trkpt>
      <trkpt lat="43.34461" lon="2.68188">
        <ele>334.6761475</ele>
        <time>2009-10-11T09:00:38Z</time>
      </trkpt>
      <trkpt lat="43.34458" lon="2.68183">
        <ele>334.1954346</ele>
        <time>2009-10-11T09:00:39Z</time>
      </trkpt>
      <trkpt lat="43.34441" lon="2.68158">
        <ele>331.3115234</ele>
        <time>2009-10-11T09:00:47Z</time>
      </trkpt>
      <trkpt lat="43.34436" lon="2.68155">
        <ele>330.8309326</ele>
        <time>2009-10-11T09:00:49Z</time>
      </trkpt>
      <trkpt lat="43.34423" lon="2.68158">
        <ele>329.388916</ele>
        <time>2009-10-11T09:00:54Z</time>
      </trkpt>
      <trkpt lat="43.34408" lon="2.68176">
        <ele>328.4276123</ele>
        <time>2009-10-11T09:01:02Z</time>
      </trkpt>
      <trkpt lat="43.34408" lon="2.68189">
        <ele>326.9855957</ele>
        <time>2009-10-11T09:01:07Z</time>
      </trkpt>
      <trkpt lat="43.34412" lon="2.68197">
        <ele>326.9855957</ele>
        <time>2009-10-11T09:01:12Z</time>
      </trkpt>
      <trkpt lat="43.34413" lon="2.68201">
        <ele>325.5435791</ele>
        <time>2009-10-11T09:01:19Z</time>
      </trkpt>
      <trkpt lat="43.34408" lon="2.68201">
        <ele>324.1015625</ele>
        <time>2009-10-11T09:01:25Z</time>
      </trkpt>
      <trkpt lat="43.34391" lon="2.6819">
        <ele>320.2563477</ele>
        <time>2009-10-11T09:01:31Z</time>
      </trkpt>
      <trkpt lat="43.34377" lon="2.68174">
        <ele>315.4498291</ele>
        <time>2009-10-11T09:01:36Z</time>
      </trkpt>
      <trkpt lat="43.34364" lon="2.68162">
        <ele>312.5657959</ele>
        <time>2009-10-11T09:01:41Z</time>
      </trkpt>
      <trkpt lat="43.34348" lon="2.68159">
        <ele>311.6044922</ele>
        <time>2009-10-11T09:01:46Z</time>
      </trkpt>
      <trkpt lat="43.34341" lon="2.68163">
        <ele>311.1237793</ele>
        <time>2009-10-11T09:01:51Z</time>
      </trkpt>
      <trkpt lat="43.34332" lon="2.6817">
        <ele>305.8366699</ele>
        <time>2009-10-11T09:01:58Z</time>
      </trkpt>
      <trkpt lat="43.34328" lon="2.68175">
        <ele>303.4332275</ele>
        <time>2009-10-11T09:02:01Z</time>
      </trkpt>
      <trkpt lat="43.34325" lon="2.68185">
        <ele>300.5493164</ele>
        <time>2009-10-11T09:02:06Z</time>
      </trkpt>
      <trkpt lat="43.34318" lon="2.68186">
        <ele>299.5880127</ele>
        <time>2009-10-11T09:02:12Z</time>
      </trkpt>
      <trkpt lat="43.34315" lon="2.6818">
        <ele>301.991333</ele>
        <time>2009-10-11T09:02:34Z</time>
      </trkpt>
      <trkpt lat="43.34309" lon="2.68173">
        <ele>301.5106201</ele>
        <time>2009-10-11T09:02:38Z</time>
      </trkpt>
      <trkpt lat="43.34297" lon="2.68159">
        <ele>299.5880127</ele>
        <time>2009-10-11T09:02:43Z</time>
      </trkpt>
      <trkpt lat="43.34288" lon="2.68147">
        <ele>295.7426758</ele>
        <time>2009-10-11T09:02:49Z</time>
      </trkpt>
      <trkpt lat="43.34281" lon="2.68136">
        <ele>292.3781738</ele>
        <time>2009-10-11T09:02:54Z</time>
      </trkpt>
      <trkpt lat="43.34273" lon="2.68133">
        <ele>291.8974609</ele>
        <time>2009-10-11T09:02:58Z</time>
      </trkpt>
      <trkpt lat="43.3426" lon="2.68144">
        <ele>291.416748</ele>
        <time>2009-10-11T09:03:03Z</time>
      </trkpt>
      <trkpt lat="43.34251" lon="2.68142">
        <ele>291.8974609</ele>
        <time>2009-10-11T09:03:05Z</time>
      </trkpt>
      <trkpt lat="43.34229" lon="2.68134">
        <ele>289.9748535</ele>
        <time>2009-10-11T09:03:10Z</time>
      </trkpt>
      <trkpt lat="43.34195" lon="2.68126">
        <ele>286.6102295</ele>
        <time>2009-10-11T09:03:16Z</time>
      </trkpt>
      <trkpt lat="43.34161" lon="2.68119">
        <ele>286.1295166</ele>
        <time>2009-10-11T09:03:21Z</time>
      </trkpt>
      <trkpt lat="43.34134" lon="2.68111">
        <ele>287.5714111</ele>
        <time>2009-10-11T09:03:25Z</time>
      </trkpt>
      <trkpt lat="43.34109" lon="2.68107">
        <ele>285.6488037</ele>
        <time>2009-10-11T09:03:29Z</time>
      </trkpt>
      <trkpt lat="43.34085" lon="2.68112">
        <ele>283.7261963</ele>
        <time>2009-10-11T09:03:33Z</time>
      </trkpt>
      <trkpt lat="43.34057" lon="2.68109">
        <ele>283.2456055</ele>
        <time>2009-10-11T09:03:38Z</time>
      </trkpt>
      <trkpt lat="43.34045" lon="2.68105">
        <ele>283.2456055</ele>
        <time>2009-10-11T09:03:42Z</time>
      </trkpt>
      <trkpt lat="43.34045" lon="2.68101">
        <ele>282.7650146</ele>
        <time>2009-10-11T09:03:44Z</time>
      </trkpt>
      <trkpt lat="43.3405" lon="2.68093">
        <ele>280.3616943</ele>
        <time>2009-10-11T09:03:49Z</time>
      </trkpt>
      <trkpt lat="43.34062" lon="2.68093">
        <ele>277.958252</ele>
        <time>2009-10-11T09:03:54Z</time>
      </trkpt>
      <trkpt lat="43.34081" lon="2.68091">
        <ele>276.0356445</ele>
        <time>2009-10-11T09:04:00Z</time>
      </trkpt>
      <trkpt lat="43.34098" lon="2.68078">
        <ele>275.0744629</ele>
        <time>2009-10-11T09:04:07Z</time>
      </trkpt>
      <trkpt lat="43.34109" lon="2.68072">
        <ele>273.6324463</ele>
        <time>2009-10-11T09:04:12Z</time>
      </trkpt>
      <trkpt lat="43.34124" lon="2.68059">
        <ele>272.1904297</ele>
        <time>2009-10-11T09:04:17Z</time>
      </trkpt>
      <trkpt lat="43.34129" lon="2.68041">
        <ele>272.1904297</ele>
        <time>2009-10-11T09:04:21Z</time>
      </trkpt>
      <trkpt lat="43.34135" lon="2.68029">
        <ele>272.1904297</ele>
        <time>2009-10-11T09:04:25Z</time>
      </trkpt>
      <trkpt lat="43.34146" lon="2.68008">
        <ele>271.229126</ele>
        <time>2009-10-11T09:04:30Z</time>
      </trkpt>
      <trkpt lat="43.34153" lon="2.6798">
        <ele>271.7097168</ele>
        <time>2009-10-11T09:04:36Z</time>
      </trkpt>
      <trkpt lat="43.34162" lon="2.67955">
        <ele>271.7097168</ele>
        <time>2009-10-11T09:04:42Z</time>
      </trkpt>
      <trkpt lat="43.34169" lon="2.67912">
        <ele>269.3065186</ele>
        <time>2009-10-11T09:04:49Z</time>
      </trkpt>
      <trkpt lat="43.3417" lon="2.67895">
        <ele>268.8258057</ele>
        <time>2009-10-11T09:04:52Z</time>
      </trkpt>
      <trkpt lat="43.3418" lon="2.67875">
        <ele>267.864502</ele>
        <time>2009-10-11T09:04:56Z</time>
      </trkpt>
      <trkpt lat="43.34183" lon="2.6786">
        <ele>266.9031982</ele>
        <time>2009-10-11T09:04:59Z</time>
      </trkpt>
      <trkpt lat="43.34183" lon="2.67844">
        <ele>266.4224854</ele>
        <time>2009-10-11T09:05:02Z</time>
      </trkpt>
      <trkpt lat="43.3419" lon="2.67822">
        <ele>264.9805908</ele>
        <time>2009-10-11T09:05:07Z</time>
      </trkpt>
      <trkpt lat="43.34202" lon="2.67808">
        <ele>263.5385742</ele>
        <time>2009-10-11T09:05:12Z</time>
      </trkpt>
      <trkpt lat="43.34221" lon="2.67802">
        <ele>260.654541</ele>
        <time>2009-10-11T09:05:16Z</time>
      </trkpt>
      <trkpt lat="43.34226" lon="2.67798">
        <ele>260.1739502</ele>
        <time>2009-10-11T09:05:17Z</time>
      </trkpt>
      <trkpt lat="43.34238" lon="2.67771">
        <ele>259.6933594</ele>
        <time>2009-10-11T09:05:22Z</time>
      </trkpt>
      <trkpt lat="43.34251" lon="2.67743">
        <ele>258.2513428</ele>
        <time>2009-10-11T09:05:29Z</time>
      </trkpt>
      <trkpt lat="43.34262" lon="2.67726">
        <ele>255.3673096</ele>
        <time>2009-10-11T09:05:34Z</time>
      </trkpt>
      <trkpt lat="43.34263" lon="2.67725">
        <ele>253.925415</ele>
        <time>2009-10-11T09:05:45Z</time>
      </trkpt>
      <trkpt lat="43.34263" lon="2.67725">
        <ele>255.3673096</ele>
        <time>2009-10-11T09:06:15Z</time>
      </trkpt>
      <trkpt lat="43.34262" lon="2.67723">
        <ele>256.3287354</ele>
        <time>2009-10-11T09:06:28Z</time>
      </trkpt>
      <trkpt lat="43.3426" lon="2.67711">
        <ele>257.2900391</ele>
        <time>2009-10-11T09:06:34Z</time>
      </trkpt>
      <trkpt lat="43.34259" lon="2.67712">
        <ele>256.8093262</ele>
        <time>2009-10-11T09:06:35Z</time>
      </trkpt>
      <trkpt lat="43.34239" lon="2.67716">
        <ele>255.8480225</ele>
        <time>2009-10-11T09:06:43Z</time>
      </trkpt>
      <trkpt lat="43.34219" lon="2.67709">
        <ele>253.925415</ele>
        <time>2009-10-11T09:06:50Z</time>
      </trkpt>
      <trkpt lat="43.34208" lon="2.677">
        <ele>250.560791</ele>
        <time>2009-10-11T09:06:56Z</time>
      </trkpt>
      <trkpt lat="43.34199" lon="2.67696">
        <ele>248.1575928</ele>
        <time>2009-10-11T09:07:01Z</time>
      </trkpt>
      <trkpt lat="43.34196" lon="2.67696">
        <ele>249.1187744</ele>
        <time>2009-10-11T09:07:09Z</time>
      </trkpt>
      <trkpt lat="43.34192" lon="2.67697">
        <ele>248.1575928</ele>
        <time>2009-10-11T09:07:16Z</time>
      </trkpt>
      <trkpt lat="43.34187" lon="2.67695">
        <ele>247.6767578</ele>
        <time>2009-10-11T09:07:22Z</time>
      </trkpt>
      <trkpt lat="43.34175" lon="2.67694">
        <ele>246.7154541</ele>
        <time>2009-10-11T09:07:27Z</time>
      </trkpt>
      <trkpt lat="43.34153" lon="2.67688">
        <ele>244.7928467</ele>
        <time>2009-10-11T09:07:34Z</time>
      </trkpt>
      <trkpt lat="43.34132" lon="2.67691">
        <ele>244.3122559</ele>
        <time>2009-10-11T09:07:39Z</time>
      </trkpt>
      <trkpt lat="43.34109" lon="2.67694">
        <ele>242.8702393</ele>
        <time>2009-10-11T09:07:45Z</time>
      </trkpt>
      <trkpt lat="43.34095" lon="2.67707">
        <ele>240.467041</ele>
        <time>2009-10-11T09:07:50Z</time>
      </trkpt>
      <trkpt lat="43.34082" lon="2.6772">
        <ele>237.1022949</ele>
        <time>2009-10-11T09:07:55Z</time>
      </trkpt>
      <trkpt lat="43.34065" lon="2.67738">
        <ele>233.7376709</ele>
        <time>2009-10-11T09:08:02Z</time>
      </trkpt>
      <trkpt lat="43.34054" lon="2.67745">
        <ele>233.2570801</ele>
        <time>2009-10-11T09:08:06Z</time>
      </trkpt>
      <trkpt lat="43.34036" lon="2.67748">
        <ele>231.3343506</ele>
        <time>2009-10-11T09:08:12Z</time>
      </trkpt>
      <trkpt lat="43.34015" lon="2.67751">
        <ele>227.9697266</ele>
        <time>2009-10-11T09:08:19Z</time>
      </trkpt>
      <trkpt lat="43.33994" lon="2.67753">
        <ele>226.527832</ele>
        <time>2009-10-11T09:08:24Z</time>
      </trkpt>
      <trkpt lat="43.3398" lon="2.67757">
        <ele>225.5665283</ele>
        <time>2009-10-11T09:08:28Z</time>
      </trkpt>
      <trkpt lat="43.33966" lon="2.67764">
        <ele>224.6052246</ele>
        <time>2009-10-11T09:08:34Z</time>
      </trkpt>
      <trkpt lat="43.33954" lon="2.67771">
        <ele>222.6824951</ele>
        <time>2009-10-11T09:08:39Z</time>
      </trkpt>
      <trkpt lat="43.33942" lon="2.67779">
        <ele>221.2406006</ele>
        <time>2009-10-11T09:08:44Z</time>
      </trkpt>
      <trkpt lat="43.33931" lon="2.67777">
        <ele>220.2791748</ele>
        <time>2009-10-11T09:08:49Z</time>
      </trkpt>
      <trkpt lat="43.33922" lon="2.67774">
        <ele>218.8372803</ele>
        <time>2009-10-11T09:08:54Z</time>
      </trkpt>
      <trkpt lat="43.33911" lon="2.6777">
        <ele>217.3953857</ele>
        <time>2009-10-11T09:08:59Z</time>
      </trkpt>
      <trkpt lat="43.33899" lon="2.67767">
        <ele>216.9146729</ele>
        <time>2009-10-11T09:09:03Z</time>
      </trkpt>
      <trkpt lat="43.33881" lon="2.6776">
        <ele>214.9919434</ele>
        <time>2009-10-11T09:09:10Z</time>
      </trkpt>
      <trkpt lat="43.33864" lon="2.67757">
        <ele>216.43396</ele>
        <time>2009-10-11T09:09:16Z</time>
      </trkpt>
      <trkpt lat="43.3385" lon="2.67754">
        <ele>215.9532471</ele>
        <time>2009-10-11T09:09:21Z</time>
      </trkpt>
      <trkpt lat="43.33835" lon="2.67747">
        <ele>211.1467285</ele>
        <time>2009-10-11T09:09:28Z</time>
      </trkpt>
      <trkpt lat="43.3382" lon="2.67742">
        <ele>210.1854248</ele>
        <time>2009-10-11T09:09:33Z</time>
      </trkpt>
      <trkpt lat="43.33803" lon="2.67728">
        <ele>207.7821045</ele>
        <time>2009-10-11T09:09:39Z</time>
      </trkpt>
      <trkpt lat="43.33787" lon="2.67726">
        <ele>212.588623</ele>
        <time>2009-10-11T09:09:44Z</time>
      </trkpt>
      <trkpt lat="43.33779" lon="2.6773">
        <ele>214.9919434</ele>
        <time>2009-10-11T09:09:49Z</time>
      </trkpt>
      <trkpt lat="43.33768" lon="2.67731">
        <ele>210.1854248</ele>
        <time>2009-10-11T09:09:55Z</time>
      </trkpt>
      <trkpt lat="43.33743" lon="2.6773">
        <ele>206.8206787</ele>
        <time>2009-10-11T09:10:02Z</time>
      </trkpt>
      <trkpt lat="43.33715" lon="2.67727">
        <ele>204.8980713</ele>
        <time>2009-10-11T09:10:09Z</time>
      </trkpt>
      <trkpt lat="43.33699" lon="2.67725">
        <ele>205.3787842</ele>
        <time>2009-10-11T09:10:14Z</time>
      </trkpt>
      <trkpt lat="43.33691" lon="2.67726">
        <ele>204.4174805</ele>
        <time>2009-10-11T09:10:19Z</time>
      </trkpt>
      <trkpt lat="43.33683" lon="2.6773">
        <ele>204.4174805</ele>
        <time>2009-10-11T09:10:25Z</time>
      </trkpt>
      <trkpt lat="43.33682" lon="2.67731">
        <ele>205.8594971</ele>
        <time>2009-10-11T09:10:31Z</time>
      </trkpt>
      <trkpt lat="43.33683" lon="2.67735">
        <ele>203.9368896</ele>
        <time>2009-10-11T09:10:49Z</time>
      </trkpt>
      <trkpt lat="43.33678" lon="2.67741">
        <ele>204.4174805</ele>
        <time>2009-10-11T09:10:54Z</time>
      </trkpt>
      <trkpt lat="43.33664" lon="2.67752">
        <ele>203.4561768</ele>
        <time>2009-10-11T09:11:01Z</time>
      </trkpt>
      <trkpt lat="43.33648" lon="2.6777">
        <ele>200.5722656</ele>
        <time>2009-10-11T09:11:09Z</time>
      </trkpt>
      <trkpt lat="43.33639" lon="2.67782">
        <ele>200.5722656</ele>
        <time>2009-10-11T09:11:16Z</time>
      </trkpt>
      <trkpt lat="43.33624" lon="2.67796">
        <ele>202.494873</ele>
        <time>2009-10-11T09:11:23Z</time>
      </trkpt>
      <trkpt lat="43.33607" lon="2.67815">
        <ele>203.4561768</ele>
        <time>2009-10-11T09:11:32Z</time>
      </trkpt>
      <trkpt lat="43.33598" lon="2.67835">
        <ele>203.9368896</ele>
        <time>2009-10-11T09:11:39Z</time>
      </trkpt>
      <trkpt lat="43.33593" lon="2.67845">
        <ele>203.4561768</ele>
        <time>2009-10-11T09:11:44Z</time>
      </trkpt>
      <trkpt lat="43.33593" lon="2.67845">
        <ele>202.494873</ele>
        <time>2009-10-11T09:12:01Z</time>
      </trkpt>
      <trkpt lat="43.33592" lon="2.67843">
        <ele>202.0142822</ele>
        <time>2009-10-11T09:12:40Z</time>
      </trkpt>
      <trkpt lat="43.33586" lon="2.67855">
        <ele>201.0528564</ele>
        <time>2009-10-11T09:12:47Z</time>
      </trkpt>
      <trkpt lat="43.33574" lon="2.67868">
        <ele>199.6108398</ele>
        <time>2009-10-11T09:12:53Z</time>
      </trkpt>
      <trkpt lat="43.33554" lon="2.67878">
        <ele>199.6108398</ele>
        <time>2009-10-11T09:12:58Z</time>
      </trkpt>
      <trkpt lat="43.33539" lon="2.6788">
        <ele>198.6495361</ele>
        <time>2009-10-11T09:13:01Z</time>
      </trkpt>
      <trkpt lat="43.33519" lon="2.67871">
        <ele>200.5722656</ele>
        <time>2009-10-11T09:13:06Z</time>
      </trkpt>
      <trkpt lat="43.33495" lon="2.67865">
        <ele>201.5335693</ele>
        <time>2009-10-11T09:13:13Z</time>
      </trkpt>
      <trkpt lat="43.33471" lon="2.67856">
        <ele>202.0142822</ele>
        <time>2009-10-11T09:13:20Z</time>
      </trkpt>
      <trkpt lat="43.33459" lon="2.67846">
        <ele>201.5335693</ele>
        <time>2009-10-11T09:13:25Z</time>
      </trkpt>
      <trkpt lat="43.33452" lon="2.67829">
        <ele>198.1689453</ele>
        <time>2009-10-11T09:13:30Z</time>
      </trkpt>
      <trkpt lat="43.33446" lon="2.67816">
        <ele>194.3237305</ele>
        <time>2009-10-11T09:13:36Z</time>
      </trkpt>
      <trkpt lat="43.3344" lon="2.67802">
        <ele>191.9202881</ele>
        <time>2009-10-11T09:13:42Z</time>
      </trkpt>
      <trkpt lat="43.33432" lon="2.6779">
        <ele>190.9589844</ele>
        <time>2009-10-11T09:13:49Z</time>
      </trkpt>
      <trkpt lat="43.33426" lon="2.67781">
        <ele>190.4783936</ele>
        <time>2009-10-11T09:13:55Z</time>
      </trkpt>
      <trkpt lat="43.33419" lon="2.67773">
        <ele>189.036377</ele>
        <time>2009-10-11T09:14:00Z</time>
      </trkpt>
      <trkpt lat="43.33409" lon="2.6777">
        <ele>190.4783936</ele>
        <time>2009-10-11T09:14:06Z</time>
      </trkpt>
      <trkpt lat="43.33393" lon="2.67763">
        <ele>189.9976807</ele>
        <time>2009-10-11T09:14:10Z</time>
      </trkpt>
      <trkpt lat="43.33371" lon="2.67758">
        <ele>189.9976807</ele>
        <time>2009-10-11T09:14:15Z</time>
      </trkpt>
      <trkpt lat="43.33367" lon="2.67762">
        <ele>189.9976807</ele>
        <time>2009-10-11T09:14:16Z</time>
      </trkpt>
      <trkpt lat="43.3336" lon="2.67777">
        <ele>187.5943604</ele>
        <time>2009-10-11T09:14:19Z</time>
      </trkpt>
      <trkpt lat="43.33345" lon="2.67786">
        <ele>185.6717529</ele>
        <time>2009-10-11T09:14:23Z</time>
      </trkpt>
      <trkpt lat="43.3334" lon="2.67784">
        <ele>185.1911621</ele>
        <time>2009-10-11T09:14:24Z</time>
      </trkpt>
      <trkpt lat="43.33329" lon="2.67782">
        <ele>184.2298584</ele>
        <time>2009-10-11T09:14:26Z</time>
      </trkpt>
      <trkpt lat="43.33304" lon="2.67789">
        <ele>182.3071289</ele>
        <time>2009-10-11T09:14:31Z</time>
      </trkpt>
      <trkpt lat="43.33267" lon="2.67813">
        <ele>179.9038086</ele>
        <time>2009-10-11T09:14:37Z</time>
      </trkpt>
      <trkpt lat="43.33245" lon="2.67825">
        <ele>179.9038086</ele>
        <time>2009-10-11T09:14:41Z</time>
      </trkpt>
      <trkpt lat="43.33234" lon="2.67829">
        <ele>179.4232178</ele>
        <time>2009-10-11T09:14:43Z</time>
      </trkpt>
      <trkpt lat="43.33219" lon="2.67832">
        <ele>178.942627</ele>
        <time>2009-10-11T09:14:46Z</time>
      </trkpt>
      <trkpt lat="43.33197" lon="2.67828">
        <ele>176.0585938</ele>
        <time>2009-10-11T09:14:50Z</time>
      </trkpt>
      <trkpt lat="43.33151" lon="2.67804">
        <ele>167.8873291</ele>
        <time>2009-10-11T09:14:58Z</time>
      </trkpt>
      <trkpt lat="43.33144" lon="2.67802">
        <ele>166.9260254</ele>
        <time>2009-10-11T09:14:59Z</time>
      </trkpt>
      <trkpt lat="43.33108" lon="2.67805">
        <ele>164.0421143</ele>
        <time>2009-10-11T09:15:04Z</time>
      </trkpt>
      <trkpt lat="43.33095" lon="2.67811">
        <ele>163.5615234</ele>
        <time>2009-10-11T09:15:06Z</time>
      </trkpt>
      <trkpt lat="43.33076" lon="2.67822">
        <ele>163.5615234</ele>
        <time>2009-10-11T09:15:09Z</time>
      </trkpt>
      <trkpt lat="43.33042" lon="2.67822">
        <ele>162.1195068</ele>
        <time>2009-10-11T09:15:14Z</time>
      </trkpt>
      <trkpt lat="43.33026" lon="2.67807">
        <ele>161.1582031</ele>
        <time>2009-10-11T09:15:17Z</time>
      </trkpt>
      <trkpt lat="43.33015" lon="2.67774">
        <ele>158.2741699</ele>
        <time>2009-10-11T09:15:21Z</time>
      </trkpt>
      <trkpt lat="43.33008" lon="2.67714">
        <ele>155.3902588</ele>
        <time>2009-10-11T09:15:28Z</time>
      </trkpt>
      <trkpt lat="43.32992" lon="2.67679">
        <ele>154.9095459</ele>
        <time>2009-10-11T09:15:33Z</time>
      </trkpt>
      <trkpt lat="43.32954" lon="2.67639">
        <ele>152.9869385</ele>
        <time>2009-10-11T09:15:41Z</time>
      </trkpt>
      <trkpt lat="43.32925" lon="2.67605">
        <ele>151.064209</ele>
        <time>2009-10-11T09:15:47Z</time>
      </trkpt>
      <trkpt lat="43.32896" lon="2.67562">
        <ele>147.2189941</ele>
        <time>2009-10-11T09:15:54Z</time>
      </trkpt>
      <trkpt lat="43.32885" lon="2.67543">
        <ele>146.7384033</ele>
        <time>2009-10-11T09:15:57Z</time>
      </trkpt>
      <trkpt lat="43.32866" lon="2.67527">
        <ele>146.2578125</ele>
        <time>2009-10-11T09:16:01Z</time>
      </trkpt>
      <trkpt lat="43.32849" lon="2.67527">
        <ele>147.2189941</ele>
        <time>2009-10-11T09:16:04Z</time>
      </trkpt>
      <trkpt lat="43.32829" lon="2.67531">
        <ele>147.2189941</ele>
        <time>2009-10-11T09:16:07Z</time>
      </trkpt>
      <trkpt lat="43.32787" lon="2.67546">
        <ele>146.2578125</ele>
        <time>2009-10-11T09:16:13Z</time>
      </trkpt>
      <trkpt lat="43.32782" lon="2.67548">
        <ele>146.2578125</ele>
        <time>2009-10-11T09:16:14Z</time>
      </trkpt>
      <trkpt lat="43.32773" lon="2.67555">
        <ele>146.2578125</ele>
        <time>2009-10-11T09:16:18Z</time>
      </trkpt>
      <trkpt lat="43.32773" lon="2.67559">
        <ele>145.7770996</ele>
        <time>2009-10-11T09:16:19Z</time>
      </trkpt>
      <trkpt lat="43.32781" lon="2.676">
        <ele>142.8930664</ele>
        <time>2009-10-11T09:16:26Z</time>
      </trkpt>
      <trkpt lat="43.32785" lon="2.67617">
        <ele>142.4124756</ele>
        <time>2009-10-11T09:16:29Z</time>
      </trkpt>
      <trkpt lat="43.32783" lon="2.6765">
        <ele>141.9317627</ele>
        <time>2009-10-11T09:16:36Z</time>
      </trkpt>
      <trkpt lat="43.32786" lon="2.67667">
        <ele>142.4124756</ele>
        <time>2009-10-11T09:16:41Z</time>
      </trkpt>
      <trkpt lat="43.32797" lon="2.67692">
        <ele>144.3352051</ele>
        <time>2009-10-11T09:16:48Z</time>
      </trkpt>
      <trkpt lat="43.32803" lon="2.67711">
        <ele>143.3736572</ele>
        <time>2009-10-11T09:16:52Z</time>
      </trkpt>
      <trkpt lat="43.32804" lon="2.67738">
        <ele>140.970459</ele>
        <time>2009-10-11T09:16:57Z</time>
      </trkpt>
      <trkpt lat="43.32803" lon="2.67743">
        <ele>140.4898682</ele>
        <time>2009-10-11T09:16:58Z</time>
      </trkpt>
      <trkpt lat="43.32812" lon="2.67763">
        <ele>140.0091553</ele>
        <time>2009-10-11T09:17:03Z</time>
      </trkpt>
      <trkpt lat="43.32817" lon="2.67781">
        <ele>141.4510498</ele>
        <time>2009-10-11T09:17:07Z</time>
      </trkpt>
      <trkpt lat="43.32819" lon="2.67804">
        <ele>141.4510498</ele>
        <time>2009-10-11T09:17:12Z</time>
      </trkpt>
      <trkpt lat="43.32824" lon="2.67828">
        <ele>143.8543701</ele>
        <time>2009-10-11T09:17:18Z</time>
      </trkpt>
      <trkpt lat="43.32825" lon="2.67847">
        <ele>143.8543701</ele>
        <time>2009-10-11T09:17:23Z</time>
      </trkpt>
      <trkpt lat="43.32833" lon="2.6787">
        <ele>145.2963867</ele>
        <time>2009-10-11T09:17:29Z</time>
      </trkpt>
      <trkpt lat="43.32841" lon="2.67896">
        <ele>147.2189941</ele>
        <time>2009-10-11T09:17:37Z</time>
      </trkpt>
      <trkpt lat="43.32845" lon="2.67919">
        <ele>147.699707</ele>
        <time>2009-10-11T09:17:44Z</time>
      </trkpt>
      <trkpt lat="43.32848" lon="2.67944">
        <ele>144.8157959</ele>
        <time>2009-10-11T09:17:50Z</time>
      </trkpt>
      <trkpt lat="43.32849" lon="2.67969">
        <ele>142.4124756</ele>
        <time>2009-10-11T09:17:56Z</time>
      </trkpt>
      <trkpt lat="43.32849" lon="2.67989">
        <ele>138.5672607</ele>
        <time>2009-10-11T09:18:02Z</time>
      </trkpt>
      <trkpt lat="43.32861" lon="2.67994">
        <ele>138.5672607</ele>
        <time>2009-10-11T09:18:07Z</time>
      </trkpt>
      <trkpt lat="43.32881" lon="2.67996">
        <ele>138.0865479</ele>
        <time>2009-10-11T09:18:14Z</time>
      </trkpt>
      <trkpt lat="43.32897" lon="2.68">
        <ele>140.4898682</ele>
        <time>2009-10-11T09:18:22Z</time>
      </trkpt>
      <trkpt lat="43.3291" lon="2.68004">
        <ele>140.4898682</ele>
        <time>2009-10-11T09:18:29Z</time>
      </trkpt>
      <trkpt lat="43.32924" lon="2.68012">
        <ele>141.4510498</ele>
        <time>2009-10-11T09:18:36Z</time>
      </trkpt>
      <trkpt lat="43.32939" lon="2.68026">
        <ele>141.9317627</ele>
        <time>2009-10-11T09:18:43Z</time>
      </trkpt>
      <trkpt lat="43.32945" lon="2.68042">
        <ele>141.4510498</ele>
        <time>2009-10-11T09:18:47Z</time>
      </trkpt>
      <trkpt lat="43.32951" lon="2.68077">
        <ele>139.5284424</ele>
        <time>2009-10-11T09:18:55Z</time>
      </trkpt>
      <trkpt lat="43.32955" lon="2.68103">
        <ele>138.5672607</ele>
        <time>2009-10-11T09:19:02Z</time>
      </trkpt>
      <trkpt lat="43.32963" lon="2.68119">
        <ele>138.5672607</ele>
        <time>2009-10-11T09:19:07Z</time>
      </trkpt>
      <trkpt lat="43.32974" lon="2.68134">
        <ele>138.5672607</ele>
        <time>2009-10-11T09:19:12Z</time>
      </trkpt>
      <trkpt lat="43.32988" lon="2.68156">
        <ele>136.6446533</ele>
        <time>2009-10-11T09:19:18Z</time>
      </trkpt>
      <trkpt lat="43.32985" lon="2.68182">
        <ele>136.6446533</ele>
        <time>2009-10-11T09:19:25Z</time>
      </trkpt>
      <trkpt lat="43.32987" lon="2.68202">
        <ele>138.5672607</ele>
        <time>2009-10-11T09:19:32Z</time>
      </trkpt>
      <trkpt lat="43.32988" lon="2.68216">
        <ele>140.970459</ele>
        <time>2009-10-11T09:19:37Z</time>
      </trkpt>
      <trkpt lat="43.3299" lon="2.68222">
        <ele>143.8543701</ele>
        <time>2009-10-11T09:19:42Z</time>
      </trkpt>
      <trkpt lat="43.3299" lon="2.68223">
        <ele>144.3352051</ele>
        <time>2009-10-11T09:19:51Z</time>
      </trkpt>
      <trkpt lat="43.32988" lon="2.68218">
        <ele>146.7384033</ele>
        <time>2009-10-11T09:21:10Z</time>
      </trkpt>
      <trkpt lat="43.32989" lon="2.68221">
        <ele>146.7384033</ele>
        <time>2009-10-11T09:21:13Z</time>
      </trkpt>
      <trkpt lat="43.32991" lon="2.68236">
        <ele>147.2189941</ele>
        <time>2009-10-11T09:21:21Z</time>
      </trkpt>
      <trkpt lat="43.32996" lon="2.68252">
        <ele>148.1804199</ele>
        <time>2009-10-11T09:21:28Z</time>
      </trkpt>
      <trkpt lat="43.32999" lon="2.68265">
        <ele>147.2189941</ele>
        <time>2009-10-11T09:21:35Z</time>
      </trkpt>
      <trkpt lat="43.32999" lon="2.68267">
        <ele>146.7384033</ele>
        <time>2009-10-11T09:21:36Z</time>
      </trkpt>
      <trkpt lat="43.32999" lon="2.68274">
        <ele>146.2578125</ele>
        <time>2009-10-11T09:21:41Z</time>
      </trkpt>
      <trkpt lat="43.33003" lon="2.68291">
        <ele>147.699707</ele>
        <time>2009-10-11T09:21:49Z</time>
      </trkpt>
      <trkpt lat="43.33003" lon="2.68294">
        <ele>146.2578125</ele>
        <time>2009-10-11T09:21:51Z</time>
      </trkpt>
      <trkpt lat="43.33003" lon="2.683">
        <ele>144.8157959</ele>
        <time>2009-10-11T09:21:59Z</time>
      </trkpt>
      <trkpt lat="43.33004" lon="2.68317">
        <ele>144.3352051</ele>
        <time>2009-10-11T09:22:05Z</time>
      </trkpt>
      <trkpt lat="43.33011" lon="2.68329">
        <ele>144.3352051</ele>
        <time>2009-10-11T09:22:09Z</time>
      </trkpt>
      <trkpt lat="43.33018" lon="2.68343">
        <ele>142.8930664</ele>
        <time>2009-10-11T09:22:12Z</time>
      </trkpt>
      <trkpt lat="43.33019" lon="2.68354">
        <ele>141.4510498</ele>
        <time>2009-10-11T09:22:14Z</time>
      </trkpt>
      <trkpt lat="43.33021" lon="2.68376">
        <ele>140.4898682</ele>
        <time>2009-10-11T09:22:20Z</time>
      </trkpt>
      <trkpt lat="43.33029" lon="2.68407">
        <ele>138.5672607</ele>
        <time>2009-10-11T09:22:28Z</time>
      </trkpt>
      <trkpt lat="43.33034" lon="2.68419">
        <ele>138.0865479</ele>
        <time>2009-10-11T09:22:32Z</time>
      </trkpt>
      <trkpt lat="43.33042" lon="2.68429">
        <ele>137.1252441</ele>
        <time>2009-10-11T09:22:36Z</time>
      </trkpt>
      <trkpt lat="43.33051" lon="2.68447">
        <ele>137.1252441</ele>
        <time>2009-10-11T09:22:42Z</time>
      </trkpt>
      <trkpt lat="43.33059" lon="2.68461">
        <ele>139.0478516</ele>
        <time>2009-10-11T09:22:48Z</time>
      </trkpt>
      <trkpt lat="43.3307" lon="2.68471">
        <ele>142.4124756</ele>
        <time>2009-10-11T09:22:54Z</time>
      </trkpt>
      <trkpt lat="43.33079" lon="2.68483">
        <ele>141.9317627</ele>
        <time>2009-10-11T09:22:59Z</time>
      </trkpt>
      <trkpt lat="43.33088" lon="2.68492">
        <ele>142.4124756</ele>
        <time>2009-10-11T09:23:03Z</time>
      </trkpt>
      <trkpt lat="43.33098" lon="2.68501">
        <ele>140.970459</ele>
        <time>2009-10-11T09:23:09Z</time>
      </trkpt>
      <trkpt lat="43.33109" lon="2.68505">
        <ele>140.970459</ele>
        <time>2009-10-11T09:23:14Z</time>
      </trkpt>
      <trkpt lat="43.33118" lon="2.68505">
        <ele>141.4510498</ele>
        <time>2009-10-11T09:23:19Z</time>
      </trkpt>
      <trkpt lat="43.33124" lon="2.68502">
        <ele>140.970459</ele>
        <time>2009-10-11T09:23:23Z</time>
      </trkpt>
      <trkpt lat="43.33135" lon="2.68498">
        <ele>142.4124756</ele>
        <time>2009-10-11T09:23:30Z</time>
      </trkpt>
      <trkpt lat="43.33146" lon="2.68494">
        <ele>142.8930664</ele>
        <time>2009-10-11T09:23:36Z</time>
      </trkpt>
      <trkpt lat="43.33148" lon="2.68493">
        <ele>142.4124756</ele>
        <time>2009-10-11T09:23:37Z</time>
      </trkpt>
      <trkpt lat="43.33161" lon="2.68485">
        <ele>142.8930664</ele>
        <time>2009-10-11T09:23:44Z</time>
      </trkpt>
      <trkpt lat="43.33168" lon="2.68477">
        <ele>144.3352051</ele>
        <time>2009-10-11T09:23:50Z</time>
      </trkpt>
      <trkpt lat="43.33174" lon="2.6847">
        <ele>145.2963867</ele>
        <time>2009-10-11T09:23:55Z</time>
      </trkpt>
      <trkpt lat="43.33181" lon="2.68467">
        <ele>144.3352051</ele>
        <time>2009-10-11T09:24:00Z</time>
      </trkpt>
      <trkpt lat="43.33189" lon="2.68465">
        <ele>144.3352051</ele>
        <time>2009-10-11T09:24:07Z</time>
      </trkpt>
      <trkpt lat="43.33198" lon="2.68463">
        <ele>145.2963867</ele>
        <time>2009-10-11T09:24:14Z</time>
      </trkpt>
      <trkpt lat="43.33207" lon="2.68461">
        <ele>145.7770996</ele>
        <time>2009-10-11T09:24:20Z</time>
      </trkpt>
      <trkpt lat="43.33214" lon="2.6846">
        <ele>145.7770996</ele>
        <time>2009-10-11T09:24:24Z</time>
      </trkpt>
      <trkpt lat="43.33222" lon="2.68459">
        <ele>145.7770996</ele>
        <time>2009-10-11T09:24:31Z</time>
      </trkpt>
      <trkpt lat="43.33234" lon="2.68462">
        <ele>147.2189941</ele>
        <time>2009-10-11T09:24:39Z</time>
      </trkpt>
      <trkpt lat="43.33236" lon="2.68463">
        <ele>147.2189941</ele>
        <time>2009-10-11T09:24:40Z</time>
      </trkpt>
      <trkpt lat="43.33237" lon="2.68476">
        <ele>147.2189941</ele>
        <time>2009-10-11T09:24:44Z</time>
      </trkpt>
      <trkpt lat="43.33236" lon="2.68484">
        <ele>146.7384033</ele>
        <time>2009-10-11T09:24:46Z</time>
      </trkpt>
      <trkpt lat="43.33231" lon="2.68506">
        <ele>148.1804199</ele>
        <time>2009-10-11T09:24:53Z</time>
      </trkpt>
      <trkpt lat="43.33227" lon="2.6851">
        <ele>150.1030273</ele>
        <time>2009-10-11T09:24:58Z</time>
      </trkpt>
      <trkpt lat="43.33224" lon="2.6851">
        <ele>151.064209</ele>
        <time>2009-10-11T09:25:01Z</time>
      </trkpt>
      <trkpt lat="43.33224" lon="2.68511">
        <ele>149.6223145</ele>
        <time>2009-10-11T09:25:09Z</time>
      </trkpt>
      <trkpt lat="43.33224" lon="2.68508">
        <ele>144.3352051</ele>
        <time>2009-10-11T09:25:38Z</time>
      </trkpt>
      <trkpt lat="43.33226" lon="2.68512">
        <ele>151.064209</ele>
        <time>2009-10-11T09:25:52Z</time>
      </trkpt>
      <trkpt lat="43.33225" lon="2.6851">
        <ele>150.5836182</ele>
        <time>2009-10-11T09:26:05Z</time>
      </trkpt>
      <trkpt lat="43.33228" lon="2.68507">
        <ele>129.4346924</ele>
        <time>2009-10-11T09:26:30Z</time>
      </trkpt>
      <trkpt lat="43.33228" lon="2.68509">
        <ele>133.2799072</ele>
        <time>2009-10-11T09:26:41Z</time>
      </trkpt>
      <trkpt lat="43.33226" lon="2.68513">
        <ele>138.0865479</ele>
        <time>2009-10-11T09:27:03Z</time>
      </trkpt>
      <trkpt lat="43.33228" lon="2.68516">
        <ele>140.4898682</ele>
        <time>2009-10-11T09:27:21Z</time>
      </trkpt>
      <trkpt lat="43.33227" lon="2.68516">
        <ele>142.8930664</ele>
        <time>2009-10-11T09:27:26Z</time>
      </trkpt>
      <trkpt lat="43.33215" lon="2.68517">
        <ele>148.6610107</ele>
        <time>2009-10-11T09:27:32Z</time>
      </trkpt>
      <trkpt lat="43.332" lon="2.68517">
        <ele>153.9483643</ele>
        <time>2009-10-11T09:27:38Z</time>
      </trkpt>
      <trkpt lat="43.33191" lon="2.6852">
        <ele>153.9483643</ele>
        <time>2009-10-11T09:27:41Z</time>
      </trkpt>
      <trkpt lat="43.33189" lon="2.68539">
        <ele>150.5836182</ele>
        <time>2009-10-11T09:27:47Z</time>
      </trkpt>
      <trkpt lat="43.33189" lon="2.68541">
        <ele>151.064209</ele>
        <time>2009-10-11T09:27:48Z</time>
      </trkpt>
      <trkpt lat="43.33189" lon="2.68554">
        <ele>153.4676514</ele>
        <time>2009-10-11T09:27:53Z</time>
      </trkpt>
      <trkpt lat="43.3318" lon="2.68561">
        <ele>155.3902588</ele>
        <time>2009-10-11T09:27:58Z</time>
      </trkpt>
      <trkpt lat="43.33165" lon="2.6857">
        <ele>159.7161865</ele>
        <time>2009-10-11T09:28:02Z</time>
      </trkpt>
      <trkpt lat="43.33152" lon="2.68577">
        <ele>160.1968994</ele>
        <time>2009-10-11T09:28:07Z</time>
      </trkpt>
      <trkpt lat="43.33146" lon="2.68594">
        <ele>157.3128662</ele>
        <time>2009-10-11T09:28:12Z</time>
      </trkpt>
      <trkpt lat="43.33133" lon="2.68609">
        <ele>157.7935791</ele>
        <time>2009-10-11T09:28:18Z</time>
      </trkpt>
      <trkpt lat="43.33129" lon="2.68624">
        <ele>157.7935791</ele>
        <time>2009-10-11T09:28:23Z</time>
      </trkpt>
      <trkpt lat="43.33129" lon="2.68635">
        <ele>158.7547607</ele>
        <time>2009-10-11T09:28:28Z</time>
      </trkpt>
      <trkpt lat="43.33128" lon="2.68649">
        <ele>158.7547607</ele>
        <time>2009-10-11T09:28:34Z</time>
      </trkpt>
      <trkpt lat="43.3313" lon="2.68669">
        <ele>157.3128662</ele>
        <time>2009-10-11T09:28:40Z</time>
      </trkpt>
      <trkpt lat="43.33131" lon="2.6869">
        <ele>155.3902588</ele>
        <time>2009-10-11T09:28:47Z</time>
      </trkpt>
      <trkpt lat="43.33132" lon="2.68713">
        <ele>154.4289551</ele>
        <time>2009-10-11T09:28:55Z</time>
      </trkpt>
      <trkpt lat="43.33139" lon="2.68731">
        <ele>158.2741699</ele>
        <time>2009-10-11T09:29:03Z</time>
      </trkpt>
      <trkpt lat="43.33148" lon="2.68738">
        <ele>160.1968994</ele>
        <time>2009-10-11T09:29:09Z</time>
      </trkpt>
      <trkpt lat="43.33156" lon="2.68744">
        <ele>160.6774902</ele>
        <time>2009-10-11T09:29:15Z</time>
      </trkpt>
      <trkpt lat="43.33172" lon="2.6876">
        <ele>161.1582031</ele>
        <time>2009-10-11T09:29:22Z</time>
      </trkpt>
      <trkpt lat="43.33185" lon="2.68768">
        <ele>160.6774902</ele>
        <time>2009-10-11T09:29:28Z</time>
      </trkpt>
      <trkpt lat="43.33186" lon="2.68779">
        <ele>161.1582031</ele>
        <time>2009-10-11T09:29:33Z</time>
      </trkpt>
      <trkpt lat="43.33185" lon="2.68799">
        <ele>161.1582031</ele>
        <time>2009-10-11T09:29:40Z</time>
      </trkpt>
      <trkpt lat="43.33183" lon="2.68815">
        <ele>160.6774902</ele>
        <time>2009-10-11T09:29:46Z</time>
      </trkpt>
      <trkpt lat="43.3318" lon="2.68824">
        <ele>160.6774902</ele>
        <time>2009-10-11T09:29:49Z</time>
      </trkpt>
      <trkpt lat="43.33187" lon="2.68843">
        <ele>159.2354736</ele>
        <time>2009-10-11T09:29:54Z</time>
      </trkpt>
      <trkpt lat="43.33211" lon="2.68863">
        <ele>157.3128662</ele>
        <time>2009-10-11T09:30:00Z</time>
      </trkpt>
      <trkpt lat="43.33217" lon="2.68866">
        <ele>156.8321533</ele>
        <time>2009-10-11T09:30:01Z</time>
      </trkpt>
      <trkpt lat="43.33231" lon="2.68887">
        <ele>156.3515625</ele>
        <time>2009-10-11T09:30:05Z</time>
      </trkpt>
      <trkpt lat="43.33233" lon="2.68895">
        <ele>156.3515625</ele>
        <time>2009-10-11T09:30:06Z</time>
      </trkpt>
      <trkpt lat="43.3324" lon="2.68951">
        <ele>154.9095459</ele>
        <time>2009-10-11T09:30:14Z</time>
      </trkpt>
      <trkpt lat="43.33244" lon="2.68971">
        <ele>154.4289551</ele>
        <time>2009-10-11T09:30:17Z</time>
      </trkpt>
      <trkpt lat="43.33246" lon="2.68999">
        <ele>153.4676514</ele>
        <time>2009-10-11T09:30:21Z</time>
      </trkpt>
      <trkpt lat="43.33245" lon="2.69012">
        <ele>153.4676514</ele>
        <time>2009-10-11T09:30:23Z</time>
      </trkpt>
      <trkpt lat="43.33233" lon="2.69034">
        <ele>151.064209</ele>
        <time>2009-10-11T09:30:27Z</time>
      </trkpt>
      <trkpt lat="43.3322" lon="2.69033">
        <ele>151.064209</ele>
        <time>2009-10-11T09:30:30Z</time>
      </trkpt>
      <trkpt lat="43.33196" lon="2.69031">
        <ele>153.4676514</ele>
        <time>2009-10-11T09:30:37Z</time>
      </trkpt>
      <trkpt lat="43.3319" lon="2.69045">
        <ele>152.5063477</ele>
        <time>2009-10-11T09:30:40Z</time>
      </trkpt>
      <trkpt lat="43.33191" lon="2.69066">
        <ele>152.0257568</ele>
        <time>2009-10-11T09:30:43Z</time>
      </trkpt>
      <trkpt lat="43.33185" lon="2.69103">
        <ele>150.5836182</ele>
        <time>2009-10-11T09:30:49Z</time>
      </trkpt>
      <trkpt lat="43.33183" lon="2.69108">
        <ele>150.1030273</ele>
        <time>2009-10-11T09:30:50Z</time>
      </trkpt>
      <trkpt lat="43.33163" lon="2.69132">
        <ele>150.1030273</ele>
        <time>2009-10-11T09:30:55Z</time>
      </trkpt>
      <trkpt lat="43.33152" lon="2.69156">
        <ele>147.699707</ele>
        <time>2009-10-11T09:30:59Z</time>
      </trkpt>
      <trkpt lat="43.33147" lon="2.6917">
        <ele>146.2578125</ele>
        <time>2009-10-11T09:31:01Z</time>
      </trkpt>
      <trkpt lat="43.33129" lon="2.69186">
        <ele>144.8157959</ele>
        <time>2009-10-11T09:31:05Z</time>
      </trkpt>
      <trkpt lat="43.3311" lon="2.69191">
        <ele>147.2189941</ele>
        <time>2009-10-11T09:31:08Z</time>
      </trkpt>
      <trkpt lat="43.33083" lon="2.69215">
        <ele>146.7384033</ele>
        <time>2009-10-11T09:31:13Z</time>
      </trkpt>
      <trkpt lat="43.33065" lon="2.69244">
        <ele>145.2963867</ele>
        <time>2009-10-11T09:31:17Z</time>
      </trkpt>
      <trkpt lat="43.33045" lon="2.69285">
        <ele>140.970459</ele>
        <time>2009-10-11T09:31:22Z</time>
      </trkpt>
      <trkpt lat="43.33033" lon="2.6931">
        <ele>139.0478516</ele>
        <time>2009-10-11T09:31:25Z</time>
      </trkpt>
      <trkpt lat="43.33011" lon="2.69336">
        <ele>136.1639404</ele>
        <time>2009-10-11T09:31:29Z</time>
      </trkpt>
      <trkpt lat="43.33003" lon="2.6934">
        <ele>135.6831055</ele>
        <time>2009-10-11T09:31:30Z</time>
      </trkpt>
      <trkpt lat="43.32967" lon="2.69363">
        <ele>133.760498</ele>
        <time>2009-10-11T09:31:35Z</time>
      </trkpt>
      <trkpt lat="43.32949" lon="2.69394">
        <ele>132.7993164</ele>
        <time>2009-10-11T09:31:39Z</time>
      </trkpt>
      <trkpt lat="43.32947" lon="2.69403">
        <ele>132.7993164</ele>
        <time>2009-10-11T09:31:40Z</time>
      </trkpt>
      <trkpt lat="43.32937" lon="2.69441">
        <ele>131.3572998</ele>
        <time>2009-10-11T09:31:45Z</time>
      </trkpt>
      <trkpt lat="43.32916" lon="2.69462">
        <ele>129.9152832</ele>
        <time>2009-10-11T09:31:49Z</time>
      </trkpt>
      <trkpt lat="43.3291" lon="2.69484">
        <ele>128.9541016</ele>
        <time>2009-10-11T09:31:52Z</time>
      </trkpt>
      <trkpt lat="43.32912" lon="2.69503">
        <ele>129.9152832</ele>
        <time>2009-10-11T09:31:54Z</time>
      </trkpt>
      <trkpt lat="43.32912" lon="2.6955">
        <ele>130.3959961</ele>
        <time>2009-10-11T09:31:59Z</time>
      </trkpt>
      <trkpt lat="43.32904" lon="2.69584">
        <ele>129.9152832</ele>
        <time>2009-10-11T09:32:03Z</time>
      </trkpt>
      <trkpt lat="43.32885" lon="2.69598">
        <ele>127.9925537</ele>
        <time>2009-10-11T09:32:07Z</time>
      </trkpt>
      <trkpt lat="43.32879" lon="2.69598">
        <ele>127.9925537</ele>
        <time>2009-10-11T09:32:08Z</time>
      </trkpt>
      <trkpt lat="43.32836" lon="2.6959">
        <ele>128.4733887</ele>
        <time>2009-10-11T09:32:15Z</time>
      </trkpt>
      <trkpt lat="43.32815" lon="2.69586">
        <ele>129.4346924</ele>
        <time>2009-10-11T09:32:19Z</time>
      </trkpt>
      <trkpt lat="43.32806" lon="2.69594">
        <ele>129.9152832</ele>
        <time>2009-10-11T09:32:23Z</time>
      </trkpt>
      <trkpt lat="43.32807" lon="2.69603">
        <ele>129.9152832</ele>
        <time>2009-10-11T09:32:25Z</time>
      </trkpt>
      <trkpt lat="43.32806" lon="2.6964">
        <ele>129.9152832</ele>
        <time>2009-10-11T09:32:33Z</time>
      </trkpt>
      <trkpt lat="43.32804" lon="2.69684">
        <ele>129.4346924</ele>
        <time>2009-10-11T09:32:41Z</time>
      </trkpt>
      <trkpt lat="43.32794" lon="2.69721">
        <ele>128.4733887</ele>
        <time>2009-10-11T09:32:47Z</time>
      </trkpt>
      <trkpt lat="43.32784" lon="2.69752">
        <ele>127.9925537</ele>
        <time>2009-10-11T09:32:52Z</time>
      </trkpt>
      <trkpt lat="43.32787" lon="2.69772">
        <ele>127.0313721</ele>
        <time>2009-10-11T09:32:56Z</time>
      </trkpt>
      <trkpt lat="43.32794" lon="2.69792">
        <ele>127.0313721</ele>
        <time>2009-10-11T09:33:00Z</time>
      </trkpt>
      <trkpt lat="43.32794" lon="2.69798">
        <ele>127.0313721</ele>
        <time>2009-10-11T09:33:01Z</time>
      </trkpt>
      <trkpt lat="43.32785" lon="2.69855">
        <ele>124.6280518</ele>
        <time>2009-10-11T09:33:11Z</time>
      </trkpt>
      <trkpt lat="43.32781" lon="2.69888">
        <ele>123.1861572</ele>
        <time>2009-10-11T09:33:18Z</time>
      </trkpt>
      <trkpt lat="43.32777" lon="2.69919">
        <ele>122.7054443</ele>
        <time>2009-10-11T09:33:24Z</time>
      </trkpt>
      <trkpt lat="43.32772" lon="2.69979">
        <ele>119.8214111</ele>
        <time>2009-10-11T09:33:36Z</time>
      </trkpt>
      <trkpt lat="43.32773" lon="2.70013">
        <ele>118.8601074</ele>
        <time>2009-10-11T09:33:43Z</time>
      </trkpt>
      <trkpt lat="43.32771" lon="2.70063">
        <ele>117.4182129</ele>
        <time>2009-10-11T09:33:53Z</time>
      </trkpt>
      <trkpt lat="43.32767" lon="2.70097">
        <ele>115.9761963</ele>
        <time>2009-10-11T09:34:00Z</time>
      </trkpt>
      <trkpt lat="43.32757" lon="2.70132">
        <ele>115.9761963</ele>
        <time>2009-10-11T09:34:07Z</time>
      </trkpt>
      <trkpt lat="43.32745" lon="2.7017">
        <ele>115.9761963</ele>
        <time>2009-10-11T09:34:15Z</time>
      </trkpt>
      <trkpt lat="43.32737" lon="2.70203">
        <ele>115.4956055</ele>
        <time>2009-10-11T09:34:21Z</time>
      </trkpt>
      <trkpt lat="43.32734" lon="2.70248">
        <ele>114.5341797</ele>
        <time>2009-10-11T09:34:27Z</time>
      </trkpt>
      <trkpt lat="43.32733" lon="2.70284">
        <ele>114.5341797</ele>
        <time>2009-10-11T09:34:32Z</time>
      </trkpt>
      <trkpt lat="43.32724" lon="2.70298">
        <ele>115.9761963</ele>
        <time>2009-10-11T09:34:36Z</time>
      </trkpt>
      <trkpt lat="43.32716" lon="2.70299">
        <ele>116.9375</ele>
        <time>2009-10-11T09:34:38Z</time>
      </trkpt>
      <trkpt lat="43.32682" lon="2.70303">
        <ele>118.8601074</ele>
        <time>2009-10-11T09:34:47Z</time>
      </trkpt>
      <trkpt lat="43.3266" lon="2.70304">
        <ele>119.8214111</ele>
        <time>2009-10-11T09:34:52Z</time>
      </trkpt>
      <trkpt lat="43.32642" lon="2.70302">
        <ele>119.3408203</ele>
        <time>2009-10-11T09:34:56Z</time>
      </trkpt>
      <trkpt lat="43.32618" lon="2.70289">
        <ele>115.9761963</ele>
        <time>2009-10-11T09:35:02Z</time>
      </trkpt>
      <trkpt lat="43.32591" lon="2.70268">
        <ele>114.0535889</ele>
        <time>2009-10-11T09:35:09Z</time>
      </trkpt>
      <trkpt lat="43.3258" lon="2.70258">
        <ele>115.0148926</ele>
        <time>2009-10-11T09:35:12Z</time>
      </trkpt>
      <trkpt lat="43.32554" lon="2.70247">
        <ele>115.4956055</ele>
        <time>2009-10-11T09:35:18Z</time>
      </trkpt>
      <trkpt lat="43.32533" lon="2.7025">
        <ele>115.4956055</ele>
        <time>2009-10-11T09:35:24Z</time>
      </trkpt>
      <trkpt lat="43.32522" lon="2.7025">
        <ele>112.6115723</ele>
        <time>2009-10-11T09:35:28Z</time>
      </trkpt>
      <trkpt lat="43.32517" lon="2.70251">
        <ele>110.6888428</ele>
        <time>2009-10-11T09:35:30Z</time>
      </trkpt>
      <trkpt lat="43.32511" lon="2.70263">
        <ele>109.7276611</ele>
        <time>2009-10-11T09:35:35Z</time>
      </trkpt>
      <trkpt lat="43.32512" lon="2.70267">
        <ele>110.208252</ele>
        <time>2009-10-11T09:35:36Z</time>
      </trkpt>
      <trkpt lat="43.3251" lon="2.70295">
        <ele>109.2469482</ele>
        <time>2009-10-11T09:35:43Z</time>
      </trkpt>
      <trkpt lat="43.32504" lon="2.7032">
        <ele>107.8050537</ele>
        <time>2009-10-11T09:35:48Z</time>
      </trkpt>
      <trkpt lat="43.32492" lon="2.70359">
        <ele>106.3630371</ele>
        <time>2009-10-11T09:35:55Z</time>
      </trkpt>
      <trkpt lat="43.32487" lon="2.70399">
        <ele>105.4017334</ele>
        <time>2009-10-11T09:36:01Z</time>
      </trkpt>
      <trkpt lat="43.32487" lon="2.7042">
        <ele>105.4017334</ele>
        <time>2009-10-11T09:36:04Z</time>
      </trkpt>
      <trkpt lat="43.32481" lon="2.70464">
        <ele>104.4404297</ele>
        <time>2009-10-11T09:36:11Z</time>
      </trkpt>
      <trkpt lat="43.32479" lon="2.70475">
        <ele>103.9597168</ele>
        <time>2009-10-11T09:36:13Z</time>
      </trkpt>
      <trkpt lat="43.32471" lon="2.70499">
        <ele>104.4404297</ele>
        <time>2009-10-11T09:36:18Z</time>
      </trkpt>
      <trkpt lat="43.32463" lon="2.7053">
        <ele>105.4017334</ele>
        <time>2009-10-11T09:36:24Z</time>
      </trkpt>
      <trkpt lat="43.32458" lon="2.70557">
        <ele>106.8436279</ele>
        <time>2009-10-11T09:36:29Z</time>
      </trkpt>
      <trkpt lat="43.32465" lon="2.70585">
        <ele>105.4017334</ele>
        <time>2009-10-11T09:36:33Z</time>
      </trkpt>
      <trkpt lat="43.32469" lon="2.70603">
        <ele>104.9210205</ele>
        <time>2009-10-11T09:36:35Z</time>
      </trkpt>
      <trkpt lat="43.32469" lon="2.70659">
        <ele>102.5177002</ele>
        <time>2009-10-11T09:36:40Z</time>
      </trkpt>
      <trkpt lat="43.32464" lon="2.7068">
        <ele>102.0371094</ele>
        <time>2009-10-11T09:36:42Z</time>
      </trkpt>
      <trkpt lat="43.32458" lon="2.707">
        <ele>101.0756836</ele>
        <time>2009-10-11T09:36:44Z</time>
      </trkpt>
      <trkpt lat="43.32432" lon="2.70737">
        <ele>98.6724854</ele>
        <time>2009-10-11T09:36:49Z</time>
      </trkpt>
      <trkpt lat="43.32419" lon="2.70759">
        <ele>98.6724854</ele>
        <time>2009-10-11T09:36:52Z</time>
      </trkpt>
      <trkpt lat="43.3241" lon="2.70792">
        <ele>97.7111816</ele>
        <time>2009-10-11T09:36:57Z</time>
      </trkpt>
      <trkpt lat="43.3241" lon="2.70798">
        <ele>98.1918945</ele>
        <time>2009-10-11T09:36:58Z</time>
      </trkpt>
      <trkpt lat="43.32412" lon="2.70844">
        <ele>98.6724854</ele>
        <time>2009-10-11T09:37:06Z</time>
      </trkpt>
      <trkpt lat="43.32412" lon="2.7088">
        <ele>98.1918945</ele>
        <time>2009-10-11T09:37:12Z</time>
      </trkpt>
      <trkpt lat="43.32419" lon="2.70912">
        <ele>100.5950928</ele>
        <time>2009-10-11T09:37:19Z</time>
      </trkpt>
      <trkpt lat="43.32424" lon="2.70937">
        <ele>101.5563965</ele>
        <time>2009-10-11T09:37:25Z</time>
      </trkpt>
      <trkpt lat="43.32426" lon="2.70961">
        <ele>101.0756836</ele>
        <time>2009-10-11T09:37:30Z</time>
      </trkpt>
      <trkpt lat="43.32429" lon="2.70995">
        <ele>99.6337891</ele>
        <time>2009-10-11T09:37:36Z</time>
      </trkpt>
      <trkpt lat="43.32432" lon="2.71017">
        <ele>98.1918945</ele>
        <time>2009-10-11T09:37:40Z</time>
      </trkpt>
      <trkpt lat="43.32436" lon="2.71059">
        <ele>99.1530762</ele>
        <time>2009-10-11T09:37:48Z</time>
      </trkpt>
      <trkpt lat="43.32427" lon="2.71101">
        <ele>99.1530762</ele>
        <time>2009-10-11T09:37:55Z</time>
      </trkpt>
      <trkpt lat="43.32422" lon="2.71137">
        <ele>98.6724854</ele>
        <time>2009-10-11T09:38:01Z</time>
      </trkpt>
      <trkpt lat="43.32419" lon="2.71163">
        <ele>98.1918945</ele>
        <time>2009-10-11T09:38:07Z</time>
      </trkpt>
      <trkpt lat="43.32413" lon="2.7117">
        <ele>96.7498779</ele>
        <time>2009-10-11T09:38:09Z</time>
      </trkpt>
      <trkpt lat="43.32389" lon="2.71196">
        <ele>96.2692871</ele>
        <time>2009-10-11T09:38:16Z</time>
      </trkpt>
      <trkpt lat="43.32385" lon="2.71226">
        <ele>94.3465576</ele>
        <time>2009-10-11T09:38:21Z</time>
      </trkpt>
      <trkpt lat="43.32379" lon="2.71259">
        <ele>93.3851318</ele>
        <time>2009-10-11T09:38:25Z</time>
      </trkpt>
      <trkpt lat="43.32378" lon="2.71267">
        <ele>92.904541</ele>
        <time>2009-10-11T09:38:26Z</time>
      </trkpt>
      <trkpt lat="43.32373" lon="2.71311">
        <ele>92.4239502</ele>
        <time>2009-10-11T09:38:31Z</time>
      </trkpt>
      <trkpt lat="43.32373" lon="2.71319">
        <ele>92.904541</ele>
        <time>2009-10-11T09:38:32Z</time>
      </trkpt>
      <trkpt lat="43.32371" lon="2.71345">
        <ele>90.9819336</ele>
        <time>2009-10-11T09:38:36Z</time>
      </trkpt>
      <trkpt lat="43.32369" lon="2.71388">
        <ele>90.5013428</ele>
        <time>2009-10-11T09:38:43Z</time>
      </trkpt>
      <trkpt lat="43.32369" lon="2.71394">
        <ele>90.0206299</ele>
        <time>2009-10-11T09:38:44Z</time>
      </trkpt>
      <trkpt lat="43.32374" lon="2.71423">
        <ele>90.0206299</ele>
        <time>2009-10-11T09:38:49Z</time>
      </trkpt>
      <trkpt lat="43.32375" lon="2.71433">
        <ele>90.0206299</ele>
        <time>2009-10-11T09:38:51Z</time>
      </trkpt>
      <trkpt lat="43.32376" lon="2.71445">
        <ele>90.9819336</ele>
        <time>2009-10-11T09:38:56Z</time>
      </trkpt>
      <trkpt lat="43.32376" lon="2.71447">
        <ele>92.904541</ele>
        <time>2009-10-11T09:39:04Z</time>
      </trkpt>
      <trkpt lat="43.32376" lon="2.7145">
        <ele>95.3077393</ele>
        <time>2009-10-11T09:39:41Z</time>
      </trkpt>
      <trkpt lat="43.3238" lon="2.71453">
        <ele>92.904541</ele>
        <time>2009-10-11T09:39:51Z</time>
      </trkpt>
      <trkpt lat="43.32385" lon="2.71479">
        <ele>91.9432373</ele>
        <time>2009-10-11T09:39:58Z</time>
      </trkpt>
      <trkpt lat="43.32386" lon="2.715">
        <ele>91.4625244</ele>
        <time>2009-10-11T09:40:03Z</time>
      </trkpt>
      <trkpt lat="43.32376" lon="2.7151">
        <ele>90.5013428</ele>
        <time>2009-10-11T09:40:06Z</time>
      </trkpt>
      <trkpt lat="43.32349" lon="2.71523">
        <ele>89.539917</ele>
        <time>2009-10-11T09:40:11Z</time>
      </trkpt>
      <trkpt lat="43.32311" lon="2.71548">
        <ele>90.0206299</ele>
        <time>2009-10-11T09:40:18Z</time>
      </trkpt>
      <trkpt lat="43.3227" lon="2.7159">
        <ele>89.539917</ele>
        <time>2009-10-11T09:40:26Z</time>
      </trkpt>
      <trkpt lat="43.32212" lon="2.71659">
        <ele>87.6171875</ele>
        <time>2009-10-11T09:40:38Z</time>
      </trkpt>
      <trkpt lat="43.32175" lon="2.7172">
        <ele>84.7333984</ele>
        <time>2009-10-11T09:40:46Z</time>
      </trkpt>
      <trkpt lat="43.32148" lon="2.71793">
        <ele>82.3300781</ele>
        <time>2009-10-11T09:40:54Z</time>
      </trkpt>
      <trkpt lat="43.32135" lon="2.71829">
        <ele>80.4074707</ele>
        <time>2009-10-11T09:40:58Z</time>
      </trkpt>
      <trkpt lat="43.3211" lon="2.71866">
        <ele>78.9654541</ele>
        <time>2009-10-11T09:41:03Z</time>
      </trkpt>
      <trkpt lat="43.32084" lon="2.71883">
        <ele>77.5234375</ele>
        <time>2009-10-11T09:41:07Z</time>
      </trkpt>
      <trkpt lat="43.32016" lon="2.71908">
        <ele>77.0428467</ele>
        <time>2009-10-11T09:41:17Z</time>
      </trkpt>
      <trkpt lat="43.3195" lon="2.71929">
        <ele>76.0814209</ele>
        <time>2009-10-11T09:41:27Z</time>
      </trkpt>
      <trkpt lat="43.31876" lon="2.71954">
        <ele>74.6395264</ele>
        <time>2009-10-11T09:41:39Z</time>
      </trkpt>
      <trkpt lat="43.31822" lon="2.71969">
        <ele>74.1588135</ele>
        <time>2009-10-11T09:41:47Z</time>
      </trkpt>
      <trkpt lat="43.31756" lon="2.71982">
        <ele>74.6395264</ele>
        <time>2009-10-11T09:41:57Z</time>
      </trkpt>
      <trkpt lat="43.31697" lon="2.71993">
        <ele>74.1588135</ele>
        <time>2009-10-11T09:42:06Z</time>
      </trkpt>
      <trkpt lat="43.31667" lon="2.72013">
        <ele>73.1976318</ele>
        <time>2009-10-11T09:42:11Z</time>
      </trkpt>
      <trkpt lat="43.31637" lon="2.72052">
        <ele>72.2362061</ele>
        <time>2009-10-11T09:42:17Z</time>
      </trkpt>
      <trkpt lat="43.31605" lon="2.72104">
        <ele>71.2749023</ele>
        <time>2009-10-11T09:42:25Z</time>
      </trkpt>
      <trkpt lat="43.31563" lon="2.72175">
        <ele>69.8328857</ele>
        <time>2009-10-11T09:42:36Z</time>
      </trkpt>
      <trkpt lat="43.31521" lon="2.72244">
        <ele>68.3908691</ele>
        <time>2009-10-11T09:42:47Z</time>
      </trkpt>
      <trkpt lat="43.31484" lon="2.72308">
        <ele>67.4296875</ele>
        <time>2009-10-11T09:42:57Z</time>
      </trkpt>
      <trkpt lat="43.31452" lon="2.7234">
        <ele>67.9102783</ele>
        <time>2009-10-11T09:43:04Z</time>
      </trkpt>
      <trkpt lat="43.31404" lon="2.72372">
        <ele>68.871582</ele>
        <time>2009-10-11T09:43:14Z</time>
      </trkpt>
      <trkpt lat="43.31371" lon="2.72388">
        <ele>68.871582</ele>
        <time>2009-10-11T09:43:20Z</time>
      </trkpt>
      <trkpt lat="43.31328" lon="2.72391">
        <ele>68.3908691</ele>
        <time>2009-10-11T09:43:27Z</time>
      </trkpt>
      <trkpt lat="43.31284" lon="2.72378">
        <ele>67.9102783</ele>
        <time>2009-10-11T09:43:34Z</time>
      </trkpt>
      <trkpt lat="43.31221" lon="2.72357">
        <ele>68.3908691</ele>
        <time>2009-10-11T09:43:44Z</time>
      </trkpt>
      <trkpt lat="43.3116" lon="2.72338">
        <ele>68.3908691</ele>
        <time>2009-10-11T09:43:54Z</time>
      </trkpt>
      <trkpt lat="43.31097" lon="2.72317">
        <ele>67.9102783</ele>
        <time>2009-10-11T09:44:05Z</time>
      </trkpt>
      <trkpt lat="43.31028" lon="2.72294">
        <ele>67.4296875</ele>
        <time>2009-10-11T09:44:17Z</time>
      </trkpt>
      <trkpt lat="43.30981" lon="2.72281">
        <ele>67.9102783</ele>
        <time>2009-10-11T09:44:25Z</time>
      </trkpt>
      <trkpt lat="43.30918" lon="2.72268">
        <ele>73.1976318</ele>
        <time>2009-10-11T09:44:36Z</time>
      </trkpt>
      <trkpt lat="43.30863" lon="2.72266">
        <ele>75.1202393</ele>
        <time>2009-10-11T09:44:46Z</time>
      </trkpt>
      <trkpt lat="43.30805" lon="2.72266">
        <ele>69.8328857</ele>
        <time>2009-10-11T09:44:56Z</time>
      </trkpt>
      <trkpt lat="43.30745" lon="2.72271">
        <ele>69.8328857</ele>
        <time>2009-10-11T09:45:07Z</time>
      </trkpt>
      <trkpt lat="43.30685" lon="2.72283">
        <ele>76.5621338</ele>
        <time>2009-10-11T09:45:19Z</time>
      </trkpt>
      <trkpt lat="43.30627" lon="2.72298">
        <ele>73.6782227</ele>
        <time>2009-10-11T09:45:30Z</time>
      </trkpt>
      <trkpt lat="43.30587" lon="2.72296">
        <ele>72.7169189</ele>
        <time>2009-10-11T09:45:37Z</time>
      </trkpt>
      <trkpt lat="43.30534" lon="2.72283">
        <ele>72.7169189</ele>
        <time>2009-10-11T09:45:47Z</time>
      </trkpt>
      <trkpt lat="43.30481" lon="2.72268">
        <ele>74.6395264</ele>
        <time>2009-10-11T09:45:58Z</time>
      </trkpt>
      <trkpt lat="43.30431" lon="2.72256">
        <ele>76.0814209</ele>
        <time>2009-10-11T09:46:08Z</time>
      </trkpt>
      <trkpt lat="43.30371" lon="2.72241">
        <ele>80.4074707</ele>
        <time>2009-10-11T09:46:20Z</time>
      </trkpt>
      <trkpt lat="43.30332" lon="2.72231">
        <ele>84.2526855</ele>
        <time>2009-10-11T09:46:29Z</time>
      </trkpt>
      <trkpt lat="43.30295" lon="2.72225">
        <ele>89.0593262</ele>
        <time>2009-10-11T09:46:38Z</time>
      </trkpt>
      <trkpt lat="43.30265" lon="2.72232">
        <ele>91.4625244</ele>
        <time>2009-10-11T09:46:46Z</time>
      </trkpt>
      <trkpt lat="43.30238" lon="2.7225">
        <ele>93.3851318</ele>
        <time>2009-10-11T09:46:53Z</time>
      </trkpt>
      <trkpt lat="43.30206" lon="2.72281">
        <ele>81.3687744</ele>
        <time>2009-10-11T09:47:01Z</time>
      </trkpt>
      <trkpt lat="43.30186" lon="2.72319">
        <ele>76.5621338</ele>
        <time>2009-10-11T09:47:07Z</time>
      </trkpt>
      <trkpt lat="43.30159" lon="2.72376">
        <ele>71.7554932</ele>
        <time>2009-10-11T09:47:14Z</time>
      </trkpt>
      <trkpt lat="43.30111" lon="2.72481">
        <ele>66.4682617</ele>
        <time>2009-10-11T09:47:26Z</time>
      </trkpt>
      <trkpt lat="43.30098" lon="2.72507">
        <ele>65.9876709</ele>
        <time>2009-10-11T09:47:29Z</time>
      </trkpt>
      <trkpt lat="43.30077" lon="2.72566">
        <ele>64.0650635</ele>
        <time>2009-10-11T09:47:36Z</time>
      </trkpt>
      <trkpt lat="43.30062" lon="2.72633">
        <ele>62.142334</ele>
        <time>2009-10-11T09:47:44Z</time>
      </trkpt>
      <trkpt lat="43.30058" lon="2.72658">
        <ele>61.6617432</ele>
        <time>2009-10-11T09:47:47Z</time>
      </trkpt>
      <trkpt lat="43.30047" lon="2.72702">
        <ele>60.7003174</ele>
        <time>2009-10-11T09:47:52Z</time>
      </trkpt>
      <trkpt lat="43.30025" lon="2.72739">
        <ele>59.7391357</ele>
        <time>2009-10-11T09:47:57Z</time>
      </trkpt>
      <trkpt lat="43.30004" lon="2.72749">
        <ele>59.2584229</ele>
        <time>2009-10-11T09:48:00Z</time>
      </trkpt>
      <trkpt lat="43.29988" lon="2.72749">
        <ele>59.2584229</ele>
        <time>2009-10-11T09:48:02Z</time>
      </trkpt>
      <trkpt lat="43.29918" lon="2.72734">
        <ele>62.142334</ele>
        <time>2009-10-11T09:48:11Z</time>
      </trkpt>
      <trkpt lat="43.29868" lon="2.7272">
        <ele>64.5456543</ele>
        <time>2009-10-11T09:48:18Z</time>
      </trkpt>
      <trkpt lat="43.2982" lon="2.72702">
        <ele>65.9876709</ele>
        <time>2009-10-11T09:48:26Z</time>
      </trkpt>
      <trkpt lat="43.29765" lon="2.7268">
        <ele>67.9102783</ele>
        <time>2009-10-11T09:48:35Z</time>
      </trkpt>
      <trkpt lat="43.29704" lon="2.72657">
        <ele>70.7941895</ele>
        <time>2009-10-11T09:48:46Z</time>
      </trkpt>
      <trkpt lat="43.29675" lon="2.72647">
        <ele>74.1588135</ele>
        <time>2009-10-11T09:48:52Z</time>
      </trkpt>
      <trkpt lat="43.29659" lon="2.72644">
        <ele>73.6782227</ele>
        <time>2009-10-11T09:48:56Z</time>
      </trkpt>
      <trkpt lat="43.29622" lon="2.72648">
        <ele>75.1202393</ele>
        <time>2009-10-11T09:49:03Z</time>
      </trkpt>
      <trkpt lat="43.29569" lon="2.72664">
        <ele>71.7554932</ele>
        <time>2009-10-11T09:49:12Z</time>
      </trkpt>
      <trkpt lat="43.29496" lon="2.72691">
        <ele>68.871582</ele>
        <time>2009-10-11T09:49:24Z</time>
      </trkpt>
      <trkpt lat="43.29439" lon="2.72713">
        <ele>66.4682617</ele>
        <time>2009-10-11T09:49:33Z</time>
      </trkpt>
      <trkpt lat="43.29393" lon="2.72723">
        <ele>61.1810303</ele>
        <time>2009-10-11T09:49:40Z</time>
      </trkpt>
      <trkpt lat="43.29338" lon="2.72727">
        <ele>59.2584229</ele>
        <time>2009-10-11T09:49:48Z</time>
      </trkpt>
      <trkpt lat="43.29332" lon="2.72728">
        <ele>59.2584229</ele>
        <time>2009-10-11T09:49:49Z</time>
      </trkpt>
      <trkpt lat="43.29263" lon="2.7273">
        <ele>58.2971191</ele>
        <time>2009-10-11T09:49:59Z</time>
      </trkpt>
      <trkpt lat="43.29202" lon="2.72732">
        <ele>55.4130859</ele>
        <time>2009-10-11T09:50:08Z</time>
      </trkpt>
      <trkpt lat="43.29168" lon="2.72727">
        <ele>55.4130859</ele>
        <time>2009-10-11T09:50:14Z</time>
      </trkpt>
      <trkpt lat="43.29119" lon="2.72715">
        <ele>55.8937988</ele>
        <time>2009-10-11T09:50:24Z</time>
      </trkpt>
      <trkpt lat="43.29105" lon="2.72712">
        <ele>55.8937988</ele>
        <time>2009-10-11T09:50:27Z</time>
      </trkpt>
      <trkpt lat="43.29067" lon="2.72704">
        <ele>56.8551025</ele>
        <time>2009-10-11T09:50:35Z</time>
      </trkpt>
      <trkpt lat="43.29041" lon="2.72698">
        <ele>57.8165283</ele>
        <time>2009-10-11T09:50:40Z</time>
      </trkpt>
      <trkpt lat="43.29009" lon="2.72692">
        <ele>57.3358154</ele>
        <time>2009-10-11T09:50:46Z</time>
      </trkpt>
      <trkpt lat="43.29002" lon="2.72691">
        <ele>57.3358154</ele>
        <time>2009-10-11T09:50:47Z</time>
      </trkpt>
      <trkpt lat="43.28964" lon="2.72703">
        <ele>56.8551025</ele>
        <time>2009-10-11T09:50:52Z</time>
      </trkpt>
      <trkpt lat="43.28936" lon="2.72733">
        <ele>55.4130859</ele>
        <time>2009-10-11T09:50:56Z</time>
      </trkpt>
      <trkpt lat="43.2893" lon="2.72743">
        <ele>54.932373</ele>
        <time>2009-10-11T09:50:57Z</time>
      </trkpt>
      <trkpt lat="43.28888" lon="2.72836">
        <ele>53.9711914</ele>
        <time>2009-10-11T09:51:05Z</time>
      </trkpt>
      <trkpt lat="43.28866" lon="2.72889">
        <ele>54.4517822</ele>
        <time>2009-10-11T09:51:10Z</time>
      </trkpt>
      <trkpt lat="43.28838" lon="2.7296">
        <ele>53.9711914</ele>
        <time>2009-10-11T09:51:17Z</time>
      </trkpt>
      <trkpt lat="43.28822" lon="2.72981">
        <ele>53.9711914</ele>
        <time>2009-10-11T09:51:20Z</time>
      </trkpt>
      <trkpt lat="43.28806" lon="2.7297">
        <ele>54.4517822</ele>
        <time>2009-10-11T09:51:23Z</time>
      </trkpt>
      <trkpt lat="43.28785" lon="2.72966">
        <ele>55.8937988</ele>
        <time>2009-10-11T09:51:26Z</time>
      </trkpt>
      <trkpt lat="43.28761" lon="2.72971">
        <ele>54.4517822</ele>
        <time>2009-10-11T09:51:29Z</time>
      </trkpt>
      <trkpt lat="43.28717" lon="2.72994">
        <ele>53.4904785</ele>
        <time>2009-10-11T09:51:36Z</time>
      </trkpt>
      <trkpt lat="43.28709" lon="2.72998">
        <ele>54.4517822</ele>
        <time>2009-10-11T09:51:38Z</time>
      </trkpt>
      <trkpt lat="43.28702" lon="2.73002">
        <ele>53.9711914</ele>
        <time>2009-10-11T09:51:43Z</time>
      </trkpt>
      <trkpt lat="43.28707" lon="2.73005">
        <ele>54.932373</ele>
        <time>2009-10-11T09:51:49Z</time>
      </trkpt>
      <trkpt lat="43.28711" lon="2.73003">
        <ele>54.4517822</ele>
        <time>2009-10-11T09:51:52Z</time>
      </trkpt>
      <trkpt lat="43.28714" lon="2.73001">
        <ele>54.932373</ele>
        <time>2009-10-11T09:51:54Z</time>
      </trkpt>
      <trkpt lat="43.28715" lon="2.72997">
        <ele>55.8937988</ele>
        <time>2009-10-11T09:52:00Z</time>
      </trkpt>
      <trkpt lat="43.2871" lon="2.72999">
        <ele>56.8551025</ele>
        <time>2009-10-11T09:52:06Z</time>
      </trkpt>
      <trkpt lat="43.28712" lon="2.72995">
        <ele>58.77771</ele>
        <time>2009-10-11T09:52:10Z</time>
      </trkpt>
      <trkpt lat="43.28715" lon="2.72997">
        <ele>58.2971191</ele>
        <time>2009-10-11T09:52:16Z</time>
      </trkpt>
      <trkpt lat="43.28713" lon="2.72999">
        <ele>57.8165283</ele>
        <time>2009-10-11T09:52:18Z</time>
      </trkpt>
      <trkpt lat="43.28702" lon="2.72989">
        <ele>59.2584229</ele>
        <time>2009-10-11T09:52:22Z</time>
      </trkpt>
      <trkpt lat="43.28691" lon="2.72977">
        <ele>58.77771</ele>
        <time>2009-10-11T09:52:25Z</time>
      </trkpt>
      <trkpt lat="43.28652" lon="2.72947">
        <ele>62.142334</ele>
        <time>2009-10-11T09:52:35Z</time>
      </trkpt>
      <trkpt lat="43.28638" lon="2.72934">
        <ele>58.2971191</ele>
        <time>2009-10-11T09:52:39Z</time>
      </trkpt>
      <trkpt lat="43.28617" lon="2.72916">
        <ele>53.9711914</ele>
        <time>2009-10-11T09:52:45Z</time>
      </trkpt>
      <trkpt lat="43.2861" lon="2.7291">
        <ele>51.5678711</ele>
        <time>2009-10-11T09:52:47Z</time>
      </trkpt>
      <trkpt lat="43.28593" lon="2.72895">
        <ele>50.1259766</ele>
        <time>2009-10-11T09:52:52Z</time>
      </trkpt>
      <trkpt lat="43.2858" lon="2.72882">
        <ele>49.6452637</ele>
        <time>2009-10-11T09:52:56Z</time>
      </trkpt>
      <trkpt lat="43.28558" lon="2.72865">
        <ele>49.6452637</ele>
        <time>2009-10-11T09:53:03Z</time>
      </trkpt>
      <trkpt lat="43.28549" lon="2.72858">
        <ele>48.2033691</ele>
        <time>2009-10-11T09:53:07Z</time>
      </trkpt>
      <trkpt lat="43.28545" lon="2.72835">
        <ele>50.6065674</ele>
        <time>2009-10-11T09:53:15Z</time>
      </trkpt>
      <trkpt lat="43.28541" lon="2.72815">
        <ele>51.0871582</ele>
        <time>2009-10-11T09:53:21Z</time>
      </trkpt>
      <trkpt lat="43.28533" lon="2.72807">
        <ele>51.5678711</ele>
        <time>2009-10-11T09:53:24Z</time>
      </trkpt>
      <trkpt lat="43.28509" lon="2.72798">
        <ele>49.6452637</ele>
        <time>2009-10-11T09:53:31Z</time>
      </trkpt>
      <trkpt lat="43.28481" lon="2.72792">
        <ele>52.048584</ele>
        <time>2009-10-11T09:53:39Z</time>
      </trkpt>
      <trkpt lat="43.28466" lon="2.72793">
        <ele>55.4130859</ele>
        <time>2009-10-11T09:53:43Z</time>
      </trkpt>
      <trkpt lat="43.28445" lon="2.72804">
        <ele>60.2197266</ele>
        <time>2009-10-11T09:53:49Z</time>
      </trkpt>
      <trkpt lat="43.2842" lon="2.7281">
        <ele>58.77771</ele>
        <time>2009-10-11T09:53:56Z</time>
      </trkpt>
      <trkpt lat="43.28398" lon="2.7282">
        <ele>66.9489746</ele>
        <time>2009-10-11T09:54:02Z</time>
      </trkpt>
      <trkpt lat="43.28379" lon="2.72826">
        <ele>67.4296875</ele>
        <time>2009-10-11T09:54:07Z</time>
      </trkpt>
      <trkpt lat="43.28353" lon="2.72825">
        <ele>68.3908691</ele>
        <time>2009-10-11T09:54:13Z</time>
      </trkpt>
      <trkpt lat="43.28341" lon="2.72824">
        <ele>68.3908691</ele>
        <time>2009-10-11T09:54:16Z</time>
      </trkpt>
      <trkpt lat="43.28314" lon="2.72824">
        <ele>66.9489746</ele>
        <time>2009-10-11T09:54:23Z</time>
      </trkpt>
      <trkpt lat="43.28295" lon="2.72827">
        <ele>63.1036377</ele>
        <time>2009-10-11T09:54:28Z</time>
      </trkpt>
      <trkpt lat="43.28288" lon="2.72844">
        <ele>59.7391357</ele>
        <time>2009-10-11T09:54:32Z</time>
      </trkpt>
      <trkpt lat="43.28285" lon="2.72849">
        <ele>59.2584229</ele>
        <time>2009-10-11T09:54:34Z</time>
      </trkpt>
      <trkpt lat="43.28279" lon="2.72849">
        <ele>57.8165283</ele>
        <time>2009-10-11T09:54:38Z</time>
      </trkpt>
      <trkpt lat="43.28278" lon="2.72849">
        <ele>57.3358154</ele>
        <time>2009-10-11T09:54:45Z</time>
      </trkpt>
      <trkpt lat="43.28277" lon="2.72849">
        <ele>55.8937988</ele>
        <time>2009-10-11T09:54:49Z</time>
      </trkpt>
    </trkseg>
  </trk>
</gpx>